GFSGBSN_250_spd_000.txt.gz
Wind_Speed
32 32 39 55 67 78 79 80 76 81 69 72 66 67 63 57 58 59 58 58 56 56 58 51 53 54 55 56 54 54 53 59 60 57 58 60 73 78 81 78 78 82 83 84 81 74 66
27 27 31 42 57 69 76 72 76 80 84 76 75 75 71 64 59 57 58 59 56 55 59 54 54 55 56 56 59 58 52 54 59 55 55 54 56 68 79 84 82 80 84 86 85 77 69
33 30 28 29 46 56 75 81 84 85 84 83 82 84 83 74 72 60 61 61 60 59 61 60 57 57 55 60 58 60 47 54 55 52 51 54 56 61 70 81 86 83 84 89 86 78 71
37 36 34 32 31 42 58 73 86 83 84 81 72 70 76 77 74 71 64 60 61 63 65 63 61 58 57 62 60 56 45 47 51 54 57 60 64 66 69 74 82 90 89 87 85 80 73
41 42 40 41 39 38 40 52 70 83 85 85 86 87 78 73 76 73 69 65 63 68 67 63 62 58 57 65 61 52 50 54 58 60 65 69 70 72 74 73 80 90 89 83 88 83 77
49 46 44 46 46 45 45 45 47 66 77 88 89 88 81 77 74 70 66 66 65 67 65 64 61 58 61 63 58 53 57 61 63 68 69 69 71 72 73 76 72 77 88 87 86 84 80
49 50 50 50 52 53 52 51 51 53 55 70 83 85 87 83 82 73 67 66 68 63 64 64 60 62 62 63 59 61 63 65 66 68 72 78 79 72 73 76 73 79 90 94 88 86 83
56 55 56 56 59 59 59 58 57 58 57 57 68 78 82 79 79 77 75 67 68 62 61 60 63 63 67 64 62 68 67 64 70 73 78 80 76 75 82 77 73 71 88 93 90 87 86
58 61 64 66 68 66 66 65 63 62 61 60 62 67 76 78 76 72 67 65 66 62 61 57 64 68 73 62 66 69 67 75 77 76 79 83 71 78 73 73 66 60 82 89 86 87 82
65 71 74 74 75 76 74 72 71 68 64 63 61 63 69 73 72 66 64 63 63 63 59 57 65 70 68 65 63 71 74 77 74 74 81 73 71 70 65 59 56 59 74 87 83 82 79
79 81 84 83 83 84 85 79 75 73 69 66 60 61 66 67 66 59 61 58 58 65 60 58 65 66 62 65 69 75 75 69 66 69 65 61 62 61 58 52 57 62 81 84 81 86 81
81 80 84 86 89 86 83 82 78 74 71 68 60 60 62 64 57 54 57 53 55 62 59 61 65 57 58 68 73 74 69 59 52 49 46 49 49 47 50 58 66 91 90 95 85 82 81
68 65 70 71 72 73 70 73 75 70 66 65 58 59 59 55 49 51 48 46 56 60 57 61 58 56 62 68 70 66 56 45 35 35 38 35 39 43 48 63 82 86 93 93 89 85 87
60 56 55 58 60 62 62 66 65 63 59 62 56 56 53 44 48 45 41 47 54 51 56 54 54 58 64 64 58 51 36 29 25 24 27 31 35 42 50 61 72 83 89 86 87 88 74
51 47 47 49 50 51 55 58 58 56 56 59 54 52 47 43 43 39 38 48 46 47 49 48 51 56 57 50 39 29 22 18 15 22 28 34 44 55 63 70 82 89 85 78 78 78 75
41 41 42 43 44 44 49 51 52 53 57 55 52 49 48 42 41 36 40 42 40 42 40 41 47 53 41 33 22 17 16 17 21 28 37 53 61 65 75 86 92 89 84 82 85 80 71
37 36 37 37 40 42 44 47 49 54 57 52 50 50 48 41 36 35 37 36 35 32 32 34 42 43 27 14 7 10 20 30 32 40 56 67 72 77 79 84 89 88 88 83 72 75 72
34 34 35 35 38 39 41 46 52 55 52 49 49 51 47 38 36 34 33 30 29 23 23 26 35 34 22 10 2 12 33 44 56 65 68 76 83 87 84 78 80 82 82 81 77 72 70
31 32 32 33 38 40 42 44 48 49 48 50 54 51 43 38 36 31 30 25 21 18 15 19 26 29 23 10 7 28 47 59 64 70 77 78 85 83 81 83 84 82 82 77 74 72 71
29 33 32 34 38 39 40 45 47 49 51 55 56 49 42 38 32 31 26 22 14 12 7 10 18 21 18 3 18 43 54 66 71 77 79 79 82 81 86 86 84 81 80 77 71 69 67
27 30 31 32 37 40 43 48 52 54 56 58 54 50 44 39 32 30 23 19 12 9 4 1 9 11 11 1 21 47 56 65 67 72 79 76 80 88 86 80 74 73 74 67 63 66 64
27 28 33 33 38 42 44 48 54 56 58 59 56 50 45 37 34 28 20 17 12 9 8 6 6 5 6 7 15 22 55 63 69 72 76 77 82 80 77 76 75 72 64 59 61 59 60
24 28 34 33 39 45 49 50 55 59 60 60 57 51 45 38 33 27 21 19 12 13 12 10 10 10 9 9 18 30 35 44 55 58 62 63 63 61 69 74 72 67 61 60 59 59 62
23 31 36 37 43 47 49 56 61 67 67 64 58 51 44 37 34 25 24 22 14 15 14 14 15 14 15 16 16 20 27 34 39 44 47 46 46 48 59 60 58 55 56 58 58 57 58
23 30 34 40 43 46 51 54 60 64 66 64 57 52 44 39 33 25 26 24 18 14 17 17 17 16 15 18 20 23 27 30 32 34 36 40 44 51 55 58 58 57 56 56 56 59 59
24 31 37 40 45 46 50 62 69 71 68 63 57 51 44 39 34 25 31 26 18 17 17 19 18 17 18 18 20 24 26 29 30 33 35 36 39 46 53 57 61 60 58 58 58 59 60
24 31 39 42 46 49 57 66 69 70 67 63 59 52 46 39 34 27 34 29 23 21 18 19 20 20 20 18 17 19 22 26 31 33 34 37 40 44 51 57 61 64 61 60 61 62 61
24 31 43 46 48 53 58 62 70 71 69 63 59 53 48 40 37 27 38 36 29 26 22 19 22 23 21 20 19 16 18 23 24 25 31 33 34 38 44 52 59 60 62 62 64 63 63
23 30 42 46 50 55 62 67 71 73 71 66 61 55 51 42 38 33 30 35 31 29 26 22 21 25 24 21 22 20 20 18 21 23 25 27 30 32 36 42 45 54 60 63 65 66 66

GFSGBSN_250_spd_003.txt.gz
Wind_Speed
46 47 45 43 32 30 37 46 66 67 72 77 74 72 70 66 64 61 57 59 59 57 56 56 53 59 60 55 55 50 52 57 56 52 55 58 59 63 64 68 71 71 71 71 81 80 78
44 46 42 37 34 27 29 41 52 66 72 71 74 75 74 69 67 69 65 66 63 62 61 56 54 56 59 60 56 53 54 58 59 56 54 58 57 60 60 62 70 75 74 69 73 79 80
45 45 45 41 36 32 27 30 44 59 69 73 74 72 74 72 69 66 71 68 67 71 68 64 60 57 61 63 61 59 57 60 60 58 58 59 56 56 54 56 58 64 75 75 70 74 79
46 46 47 46 41 37 33 31 31 46 57 70 73 74 72 72 67 68 70 73 70 69 62 62 53 55 65 65 65 64 58 63 61 61 61 58 54 55 54 54 54 53 65 74 76 77 77
47 48 49 50 49 45 41 39 36 36 44 55 64 77 76 75 73 76 76 75 67 65 66 67 63 58 65 69 67 63 60 63 62 61 62 53 48 51 51 50 49 51 54 64 72 80 80
46 47 50 54 54 52 49 46 44 41 43 44 50 62 73 82 82 80 77 72 72 70 71 72 64 64 66 69 68 65 63 65 63 64 61 50 47 47 52 55 53 62 64 64 61 74 85
43 46 47 50 55 57 56 53 51 48 47 46 47 50 56 67 76 82 85 82 78 71 71 71 69 68 63 68 68 66 64 66 68 69 62 57 51 52 62 64 62 62 65 66 64 73 88
39 45 48 48 52 58 63 61 59 57 55 53 51 50 53 53 54 64 80 83 87 84 75 74 73 71 71 67 68 69 69 70 72 74 67 59 50 66 70 69 67 68 68 63 64 70 88
48 48 48 52 53 53 61 66 65 64 62 61 58 56 53 53 54 58 56 61 70 81 74 62 73 69 68 68 67 75 72 76 77 76 70 62 62 72 73 75 73 70 66 66 62 69 78
57 59 62 58 57 60 62 62 68 66 65 63 62 61 60 57 55 56 58 55 61 66 69 65 68 70 67 69 70 73 77 79 80 73 72 66 76 80 82 78 78 73 74 75 66 72 70
64 66 69 73 76 75 72 70 71 70 72 69 68 64 63 59 58 57 56 55 59 57 55 60 60 61 67 73 72 79 80 84 78 76 79 74 80 86 83 77 84 76 81 75 70 66 66
73 78 80 78 80 81 85 83 80 76 78 74 72 71 64 64 62 58 57 54 54 52 51 48 53 58 64 70 73 77 84 81 80 82 81 79 81 80 78 80 77 74 72 67 64 60 71
75 70 65 62 60 67 74 80 82 77 81 78 77 77 70 67 66 59 55 50 47 47 43 41 50 56 61 69 74 80 77 79 82 82 73 58 58 62 64 64 58 57 62 58 59 60 67
64 60 57 54 50 52 56 63 70 75 78 81 80 78 69 67 64 55 51 43 40 39 35 41 48 54 63 71 75 74 77 76 67 55 46 43 45 44 44 45 44 51 50 50 52 62 61
58 53 48 46 44 43 47 55 61 64 65 74 73 69 64 60 56 50 42 36 37 28 34 41 48 56 66 70 67 70 57 43 37 33 32 32 32 31 34 38 44 51 50 54 66 73 78
53 48 44 43 43 43 44 48 51 55 53 61 62 63 56 53 49 43 34 35 26 25 33 39 48 56 61 60 59 45 35 28 23 21 20 18 21 27 28 35 48 63 72 76 76 77 77
49 45 41 39 38 41 41 42 45 44 49 53 51 53 48 49 42 35 35 29 24 26 30 37 46 51 52 49 33 23 18 14 10 8 9 14 21 30 32 35 46 58 77 82 70 63 75
47 43 38 34 34 34 35 38 38 41 42 46 48 44 47 43 38 37 34 25 24 22 28 36 38 40 41 23 25 20 8 4 19 23 26 28 30 41 46 63 69 81 74 66 62 67 72
47 40 32 31 30 28 31 36 37 37 39 44 43 46 44 43 41 40 30 25 21 22 26 24 31 28 29 27 22 4 20 46 56 59 65 65 64 67 70 74 71 73 70 60 30 34 64
47 36 29 28 26 27 32 34 40 44 48 48 46 45 44 47 46 37 30 26 21 21 20 17 19 20 6 15 8 21 46 56 74 64 63 61 71 65 64 66 70 71 60 46 26 33 63
46 33 25 24 23 27 30 36 42 41 41 40 40 46 52 51 46 37 32 26 20 20 15 12 8 8 7 6 35 32 48 63 70 67 59 54 62 66 67 56 61 63 47 44 41 54 67
44 32 22 21 25 28 32 38 40 40 39 42 48 53 57 52 45 39 32 25 21 20 12 10 0 9 11 6 17 45 50 64 68 68 63 56 64 72 65 67 59 62 65 62 76 68 70
39 28 20 21 28 30 33 37 39 40 45 54 58 61 57 52 46 39 31 24 22 19 13 12 5 8 8 14 13 22 36 58 61 67 64 63 69 70 64 70 70 68 73 72 62 61 66
35 25 20 23 27 31 34 37 36 40 49 55 64 63 59 51 45 38 31 25 25 18 16 17 13 10 12 12 19 16 28 35 57 58 57 60 68 73 69 72 72 70 67 59 51 56 57
33 23 20 23 28 32 32 35 35 52 60 64 62 61 57 50 43 37 32 27 24 19 17 21 19 15 16 18 22 24 25 34 36 52 57 53 64 63 59 64 64 62 53 48 54 50 50
30 22 19 23 27 30 28 31 51 58 60 64 64 62 56 50 43 37 31 31 26 21 20 20 21 18 15 19 19 24 26 30 28 32 39 49 46 55 58 48 47 39 45 49 49 48 51
28 21 19 23 27 28 30 43 53 59 65 68 68 62 55 49 44 38 32 34 27 25 22 21 24 21 18 17 19 20 26 27 28 28 27 31 34 35 39 44 43 46 46 49 50 49 50
28 19 18 22 27 29 35 47 56 61 66 71 68 61 56 49 43 38 35 36 33 28 26 23 23 23 20 18 18 18 21 25 29 29 31 33 33 34 33 35 40 43 49 49 48 47 49
27 18 16 22 29 32 42 50 60 65 69 71 67 62 55 51 43 39 39 41 35 29 27 24 19 25 23 20 18 18 19 22 25 29 31 30 29 28 30 31 34 43 50 52 52 50 50

GFSGBSN_250_spd_006.txt.gz
Wind_Speed
55 54 51 50 48 50 54 54 53 47 44 52 58 69 80 78 72 70 72 71 70 63 61 56 56 53 54 53 52 50 57 52 48 49 51 52 50 52 53 50 50 49 56 58 64 66 71
54 54 50 49 46 47 52 51 48 41 40 45 54 64 74 77 73 70 68 69 69 65 62 61 58 60 61 59 55 54 57 60 55 50 50 53 56 51 51 51 51 52 56 59 65 71 70
52 51 49 48 44 45 50 51 47 40 35 41 48 57 70 71 68 71 71 67 69 68 65 60 62 62 64 66 61 60 59 66 61 58 56 53 53 54 52 54 52 53 54 59 63 71 74
49 49 47 48 45 44 48 51 49 43 34 35 44 53 63 66 68 64 66 66 71 69 67 66 61 60 68 65 63 56 56 65 60 60 62 57 54 53 53 55 54 55 55 56 59 64 76
44 44 45 45 44 45 47 50 52 49 41 35 38 48 57 65 68 69 67 65 67 67 65 66 68 65 63 69 65 61 61 64 59 61 62 60 56 55 55 54 56 53 53 56 56 59 65
41 40 42 42 43 43 46 50 52 54 51 45 39 40 49 59 67 72 76 73 76 72 69 70 69 71 70 69 69 68 66 69 66 62 65 63 58 55 56 58 55 52 53 57 57 58 63
42 37 36 38 40 43 46 48 54 57 57 53 49 43 43 45 54 66 76 77 74 72 70 71 67 68 65 69 71 73 74 73 70 65 66 66 60 57 62 64 61 57 51 49 55 58 63
42 42 41 41 42 42 45 50 54 58 60 62 57 53 49 45 45 48 54 62 71 78 76 77 76 78 76 73 76 78 77 76 75 73 70 69 63 66 67 66 64 61 53 50 57 62 63
49 50 50 48 47 49 49 49 55 58 60 61 64 61 57 53 48 49 50 50 49 52 59 67 74 77 87 87 89 90 87 84 85 78 76 75 71 71 71 71 69 65 59 59 62 71 66
56 59 59 60 61 57 55 56 54 57 59 62 64 66 64 59 55 54 53 49 48 50 50 51 57 64 72 78 80 89 88 82 76 75 78 73 75 76 75 74 76 69 68 68 68 70 66
60 59 64 67 70 70 70 65 64 62 57 66 60 63 64 65 60 58 54 53 51 51 46 47 56 65 68 69 70 77 80 79 78 78 79 77 78 80 78 82 83 72 77 73 72 71 75
65 65 68 70 68 69 71 75 74 72 67 69 64 62 63 65 66 60 54 52 52 51 46 50 56 61 62 63 65 68 71 75 76 77 77 80 81 85 86 90 86 84 83 79 78 79 69
69 73 66 57 54 54 56 60 65 72 76 77 72 67 66 63 68 60 59 56 52 49 52 53 55 56 57 58 59 61 68 74 76 80 81 83 87 87 88 89 85 87 89 87 83 75 54
76 67 58 52 46 44 45 48 55 60 72 79 72 77 73 71 67 65 60 57 53 56 55 51 53 51 49 52 54 62 66 73 76 81 79 80 80 81 81 83 84 89 92 84 73 64 66
75 61 51 44 41 38 38 39 44 51 61 64 73 71 77 77 72 66 60 54 55 56 49 51 48 39 42 48 56 61 65 69 70 73 67 59 54 53 50 52 58 64 58 70 67 62 64
65 56 46 41 37 33 33 34 37 44 53 55 56 74 68 78 77 69 59 59 55 50 44 43 35 33 41 49 55 58 59 63 56 47 39 35 34 33 32 32 32 37 47 44 42 46 45
61 51 45 40 34 29 27 28 31 39 45 49 52 57 64 70 72 61 59 59 47 40 38 33 27 31 41 47 49 50 39 34 30 22 20 18 17 16 17 23 28 31 32 35 48 51 48
60 52 46 38 29 22 20 21 27 31 32 35 44 54 46 43 52 50 55 43 37 33 31 23 23 31 40 40 31 20 15 15 13 14 3 4 4 10 17 23 28 38 52 57 55 55 55
58 54 46 35 26 13 14 18 23 25 29 39 45 40 38 39 41 46 45 37 32 35 24 17 22 29 30 22 22 10 9 5 11 20 20 21 29 28 32 35 43 49 55 62 67 63 58
58 55 45 32 22 10 12 17 23 27 36 43 45 38 35 39 46 45 38 37 39 30 20 16 17 22 3 3 7 41 43 52 48 45 44 47 49 50 53 60 61 62 60 51 61 54 56
58 53 42 29 21 10 12 17 21 28 33 40 36 32 40 42 46 42 44 45 36 26 20 14 12 13 9 13 25 32 46 57 58 54 57 60 57 51 57 58 53 43 39 38 36 43 39
56 52 40 28 18 11 13 17 23 30 34 36 37 43 47 46 44 52 51 43 32 25 18 15 13 8 17 28 19 46 39 49 54 51 57 63 62 55 50 60 50 43 40 33 30 41 53
53 49 39 26 18 13 12 15 20 24 27 28 38 46 46 48 57 55 47 38 32 28 21 16 13 9 19 19 18 33 39 43 43 49 50 49 57 52 48 48 43 39 39 34 23 36 51
51 44 35 22 18 13 13 17 18 19 27 37 44 47 49 58 59 52 45 40 35 27 22 17 15 10 16 17 25 19 40 38 46 50 49 46 49 54 44 44 49 48 45 37 39 41 50
51 43 32 20 16 16 14 17 20 28 37 44 48 54 62 62 56 49 43 37 31 27 23 19 19 15 18 22 28 22 29 35 43 56 51 50 48 48 49 45 52 57 52 52 46 45 44
49 41 31 19 12 16 16 19 23 28 37 46 54 63 67 62 55 50 44 39 33 28 24 20 20 17 20 23 31 29 31 30 39 31 51 50 49 53 50 51 53 56 53 55 38 28 36
47 37 29 17 11 12 19 22 26 32 38 50 61 68 66 61 55 48 42 39 35 31 28 25 25 22 19 19 21 29 32 42 28 35 33 44 49 48 49 46 46 49 46 44 39 24 31
43 36 24 16 11 12 21 26 30 34 43 55 67 69 67 62 56 49 43 41 36 32 29 27 26 24 21 22 22 23 20 19 19 25 17 29 38 39 39 39 44 35 26 32 24 34 32
42 34 22 12 13 15 23 29 36 40 51 63 71 69 65 61 54 48 44 45 40 35 30 29 27 26 23 20 21 23 20 18 18 19 20 23 31 38 37 32 30 31 34 34 34 33 37

GFSGBSN_250_spd_009.txt.gz
Wind_Speed
51 50 49 50 49 52 53 52 52 52 51 54 58 63 65 67 70 75 78 84 83 80 78 76 76 72 70 68 64 59 57 55 51 50 52 50 46 43 44 45 50 47 52 52 54 55 57
49 49 49 48 49 50 50 50 49 49 49 51 55 55 56 56 60 66 71 77 77 74 74 75 74 73 70 65 61 62 62 58 54 54 50 52 54 48 47 47 49 51 49 51 51 53 56
47 45 46 48 47 48 46 47 48 47 47 51 53 50 48 50 57 65 70 74 73 73 70 73 73 73 71 65 65 63 65 61 60 58 58 58 60 58 52 54 49 49 53 54 51 54 56
47 46 42 42 43 43 44 45 46 45 46 49 51 49 45 46 54 63 70 74 70 71 69 69 70 70 71 68 66 65 65 66 63 64 62 61 60 62 57 57 55 50 52 54 55 58 58
44 43 40 37 39 41 41 43 44 46 46 48 48 48 45 40 50 60 69 75 76 70 72 67 67 67 70 71 70 68 67 66 67 64 64 64 64 61 58 55 56 52 51 55 57 61 61
49 37 36 34 34 36 39 41 40 44 47 49 49 49 45 39 43 56 64 71 73 69 69 69 70 72 72 70 69 69 70 70 70 68 68 69 68 63 58 63 57 58 55 56 56 58 58
55 46 37 34 37 37 35 37 40 42 46 50 51 52 49 45 38 45 59 64 72 74 74 72 64 67 67 69 71 73 73 75 74 75 73 72 68 65 71 71 68 60 58 55 57 57 60
54 48 46 46 40 40 43 41 39 43 45 51 53 54 55 51 47 40 44 61 67 67 72 74 72 71 75 74 75 76 80 81 82 81 79 76 73 75 75 72 70 67 64 61 61 62 60
55 52 48 49 53 55 51 49 49 46 47 50 53 55 58 58 53 45 46 47 53 62 71 74 76 77 82 79 78 79 79 80 81 81 81 83 81 79 76 80 79 75 73 72 67 69 63
56 48 46 52 54 60 65 68 60 56 55 53 54 55 58 61 60 53 53 50 44 46 47 60 60 64 69 73 76 83 85 86 88 90 94 91 90 92 90 89 88 85 82 80 75 70 64
67 58 55 60 65 68 67 67 71 69 63 61 56 58 58 56 59 63 67 53 48 47 42 45 45 48 51 53 56 65 71 72 73 78 82 84 86 92 90 92 90 80 83 81 79 74 69
77 70 71 68 60 54 52 51 58 68 71 68 67 59 60 55 55 63 63 60 57 52 41 41 45 47 49 51 57 62 65 69 74 78 78 78 78 80 84 86 86 84 85 84 83 81 67
82 75 75 62 54 47 44 44 45 52 60 68 72 64 60 55 58 63 57 58 58 51 49 47 48 48 51 53 55 59 64 71 75 74 70 71 71 74 77 82 84 86 88 88 88 83 67
88 83 69 58 48 42 39 38 38 42 49 57 65 69 64 63 64 56 54 53 52 51 53 49 46 47 52 53 56 60 67 72 71 68 67 67 69 74 75 78 81 83 87 86 88 81 80
89 83 68 55 46 41 37 36 35 35 41 48 55 63 68 75 61 57 57 52 50 54 52 49 46 51 53 54 57 63 67 66 64 63 67 69 71 76 79 83 86 91 91 93 94 88 88
89 81 64 54 48 42 36 32 31 32 38 42 50 59 69 69 65 66 60 53 55 51 48 46 49 49 50 54 55 57 58 62 60 62 67 72 71 69 65 65 70 75 78 76 76 77 73
89 81 64 55 49 42 34 27 24 28 33 36 41 50 48 60 71 70 60 62 60 55 47 45 47 47 48 48 47 48 54 56 53 49 46 43 38 39 40 42 47 50 49 48 52 52 50
87 79 65 56 49 39 29 22 17 21 26 32 38 42 48 43 45 59 64 68 61 53 49 46 45 43 39 37 36 44 41 34 34 33 31 31 28 27 29 29 28 30 33 32 35 43 45
86 76 64 56 47 34 21 15 13 17 20 26 31 39 46 43 42 57 73 70 62 56 49 44 39 32 30 28 33 25 25 21 20 16 11 8 9 10 9 8 5 13 22 28 32 43 47
84 73 61 54 45 27 14 8 11 17 20 27 32 35 31 34 46 53 57 63 61 53 47 37 30 24 22 17 10 1 10 10 15 18 22 22 10 14 20 25 22 8 11 24 33 40 43
82 70 59 53 41 23 10 7 8 18 25 27 29 30 30 32 38 41 47 50 44 42 39 36 29 15 18 4 26 28 24 31 34 40 45 41 44 41 39 43 40 35 26 26 39 47 50
82 67 59 53 39 20 8 6 8 15 18 22 29 36 40 41 40 41 41 44 44 45 43 34 22 29 24 16 27 31 36 33 39 48 47 43 40 38 37 33 36 37 47 47 51 56 52
80 66 59 51 39 22 11 6 5 7 16 25 35 38 40 39 39 42 46 47 49 49 42 30 24 28 28 20 23 25 24 36 39 43 38 37 37 35 35 34 29 30 41 48 42 42 42
77 66 56 50 36 23 13 5 2 5 11 19 30 35 38 41 44 47 50 54 52 46 36 28 27 26 27 30 26 16 25 26 41 43 38 36 37 39 39 34 36 21 27 26 43 35 24
73 63 54 45 35 19 10 4 3 8 13 22 24 27 38 43 47 52 58 55 48 41 34 29 28 28 30 25 21 19 22 34 44 45 41 38 39 36 37 34 21 29 30 27 25 19 35
70 59 53 44 31 18 8 5 5 14 22 26 29 37 44 49 57 61 57 51 44 38 34 31 27 26 24 27 22 25 16 31 34 45 43 39 38 33 36 33 30 22 37 38 30 21 15
66 57 51 43 30 18 8 6 9 16 24 27 31 43 51 58 64 60 54 48 41 36 31 31 26 26 26 24 23 26 21 30 30 37 37 34 34 35 35 31 35 31 29 26 21 18 14
62 53 48 41 29 17 11 9 12 18 25 30 38 48 57 64 64 59 51 46 42 37 30 27 24 22 20 20 28 28 28 28 31 27 29 32 33 35 31 33 34 32 30 29 21 11 2
60 51 44 37 28 17 12 13 15 20 27 34 45 52 59 66 62 55 50 45 42 38 32 28 25 23 22 22 21 21 19 22 29 35 32 26 31 32 32 30 32 24 23 24 20 18 21

GFSGBSN_250_spd_012.txt.gz
Wind_Speed
47 46 46 44 44 45 47 51 52 54 56 58 57 57 56 56 58 63 69 73 75 72 73 73 73 74 76 76 76 76 74 72 68 65 60 58 54 43 43 48 51 49 54 52 54 57 57
53 50 45 45 46 46 47 46 50 50 52 52 53 54 54 54 56 58 64 67 70 70 72 73 75 77 78 78 73 75 75 73 72 68 67 62 57 53 52 49 47 47 49 51 54 57 58
56 54 53 47 42 43 44 44 45 44 44 47 47 50 51 51 53 55 57 60 64 69 74 78 80 82 81 79 76 78 76 73 72 69 68 61 60 58 57 56 54 52 52 51 54 58 62
63 58 50 47 45 38 39 38 38 40 39 42 43 47 50 50 54 54 55 57 66 75 82 85 86 86 84 80 80 77 76 74 72 71 65 62 63 63 60 62 60 57 56 59 60 59 58
70 64 55 43 40 39 36 34 36 36 38 40 41 45 48 51 54 53 54 54 55 62 69 74 80 81 79 77 76 75 76 73 72 73 67 65 65 65 65 65 67 64 61 59 60 60 61
71 66 59 50 42 39 39 35 34 36 37 37 40 42 48 52 53 52 50 48 47 53 61 71 76 75 75 73 72 73 72 73 72 72 73 70 68 67 69 72 71 69 65 63 63 62 58
76 68 55 49 49 45 42 43 40 38 37 38 39 41 46 52 53 49 46 44 42 49 62 71 73 73 72 71 70 69 68 71 74 73 74 73 74 69 73 77 74 72 69 64 64 66 65
81 72 59 51 57 55 53 51 52 49 44 42 41 41 44 52 51 50 44 42 39 48 62 69 73 72 72 71 69 67 66 68 70 74 77 77 77 78 77 78 78 79 79 73 69 73 71
90 80 68 57 56 61 68 66 64 63 54 49 48 45 45 48 55 51 47 43 38 41 56 67 72 73 73 71 70 71 75 75 76 81 82 84 80 82 83 84 86 87 86 85 82 77 74
96 89 81 73 71 72 69 65 65 68 74 60 55 54 51 49 53 55 50 47 43 37 41 59 69 73 75 78 71 76 76 77 76 78 80 82 85 89 89 86 85 85 86 88 85 84 82
101 95 88 81 78 71 62 57 54 51 55 71 63 60 60 56 48 53 60 56 47 41 34 40 48 60 64 67 68 73 72 75 76 79 82 86 86 86 87 90 90 89 93 96 97 95 91
104 99 93 86 78 65 55 48 45 42 42 51 57 65 67 59 50 54 61 57 50 47 37 34 38 44 49 54 60 67 70 69 69 66 64 66 68 71 76 83 83 86 89 92 90 92 83
107 101 94 88 77 61 52 45 40 38 37 41 46 54 68 61 55 57 57 58 55 51 43 39 39 39 38 41 44 48 51 53 57 61 63 66 71 75 78 84 87 88 86 83 80 79 63
109 104 96 90 76 61 53 45 37 31 31 35 39 45 59 65 60 58 55 51 52 52 52 48 44 41 40 39 41 45 46 51 57 62 69 75 75 80 81 83 79 73 72 72 72 70 67
111 106 98 90 76 63 54 44 33 24 27 31 33 38 45 63 64 61 57 50 44 51 51 52 49 46 43 44 42 45 50 55 60 65 73 79 76 70 71 73 75 72 69 74 70 68 66
113 107 99 89 75 63 55 43 31 20 20 24 27 33 41 55 65 63 59 49 47 47 49 48 46 46 45 43 44 47 52 56 60 66 71 72 66 70 68 71 75 74 73 73 72 69 66
116 107 98 89 75 63 52 42 29 16 17 23 29 33 38 52 69 69 51 52 48 46 44 38 40 42 40 39 41 46 52 55 62 61 64 67 57 48 45 44 46 50 53 54 59 56 56
116 106 98 89 74 63 50 40 22 11 13 22 27 32 35 47 62 60 59 56 50 46 41 39 37 34 35 36 42 47 51 52 50 51 37 32 35 36 36 35 36 40 41 38 43 43 41
116 106 97 88 71 60 48 33 19 8 12 21 24 28 33 42 56 63 63 62 54 47 42 41 36 35 35 39 41 44 42 39 24 11 15 13 17 19 21 22 23 26 28 22 22 26 29
115 106 96 87 69 56 43 26 15 4 11 18 20 23 25 28 39 50 60 61 55 50 48 43 37 36 38 40 39 34 28 8 7 7 8 15 19 21 23 21 13 4 2 5 9 16 24
114 107 96 84 67 53 40 23 13 6 7 16 19 21 23 26 30 37 49 59 55 53 50 44 41 39 40 37 31 22 14 14 17 17 19 19 23 24 32 34 29 25 24 17 5 7 16
111 107 95 82 65 50 38 20 11 8 5 12 19 26 31 35 35 36 45 55 62 58 53 47 43 42 39 31 23 15 21 27 23 20 23 15 24 25 28 29 31 32 25 21 15 19 22
108 103 95 81 63 48 35 19 11 6 4 11 20 27 31 28 31 36 45 53 56 58 55 52 45 40 37 29 20 20 30 28 20 19 16 20 20 27 24 23 25 33 31 24 31 31 34
104 99 92 82 62 48 34 15 8 3 2 11 20 25 24 28 34 36 38 43 47 48 52 49 43 41 37 29 22 27 29 27 24 18 21 19 25 25 18 23 25 17 30 29 29 25 26
99 95 87 81 61 48 35 15 3 2 6 9 15 20 28 30 28 31 38 42 46 47 46 45 45 40 36 30 25 29 27 23 26 19 17 17 28 24 13 21 19 16 16 22 21 30 26
94 91 82 76 60 46 33 17 6 5 10 13 18 23 28 30 33 36 41 43 47 49 47 47 44 40 36 31 26 24 18 29 28 24 24 24 25 28 20 21 24 20 11 2 9 12 19
90 87 78 69 56 45 32 19 9 6 9 15 18 25 32 34 39 41 45 47 47 49 49 45 40 37 31 28 37 23 24 19 28 24 28 28 24 20 23 12 13 26 19 5 7 8 11
86 84 76 65 51 42 31 20 12 9 11 17 25 27 36 40 42 44 45 49 52 49 42 39 35 32 35 29 32 29 30 25 30 17 21 23 24 21 19 15 11 16 20 11 5 9 9
82 80 73 63 49 39 29 21 14 13 12 15 22 31 39 44 46 48 50 53 51 45 40 35 34 30 30 28 26 22 24 29 32 25 24 18 16 20 23 20 15 15 14 14 12 12 13

GFSGBSN_250_spd_015.txt.gz
Wind_Speed
69 62 52 43 38 37 38 40 43 47 51 54 57 61 67 72 74 72 71 69 68 71 73 81 86 86 79 75 79 79 79 79 77 74 75 70 65 60 57 53 44 42 49 50 54 56 58
72 64 55 51 45 39 35 35 39 43 47 51 53 58 61 64 66 67 66 66 67 69 71 75 84 83 78 77 74 74 74 76 79 76 75 71 70 67 61 59 51 49 48 45 48 54 58
79 71 61 58 51 42 36 36 37 40 43 46 47 51 55 59 61 62 63 63 64 63 67 72 79 83 82 77 75 76 76 75 73 72 72 71 69 68 67 64 59 55 56 55 56 54 46
84 76 66 61 53 44 38 37 37 38 41 42 42 44 50 51 54 57 60 60 60 62 64 69 75 79 81 76 76 75 74 75 76 77 75 72 71 69 68 66 64 63 60 60 61 59 54
89 85 77 69 59 47 40 41 42 40 41 45 43 42 45 46 48 52 55 55 56 57 58 61 71 77 78 77 75 75 77 76 76 77 74 72 71 69 67 68 68 68 64 64 63 63 62
93 89 84 76 66 55 47 44 47 50 47 46 48 46 44 43 47 48 51 54 52 52 51 55 63 69 74 75 76 76 78 78 78 76 75 73 71 69 70 72 71 68 67 66 67 69 70
98 93 89 81 70 59 56 56 57 57 61 59 53 52 49 45 47 46 49 52 52 53 54 58 57 59 68 74 77 79 80 80 80 80 78 73 73 73 76 75 73 72 71 70 71 75 76
98 95 93 84 75 64 62 65 61 54 54 61 61 57 56 50 46 46 49 53 58 55 56 54 58 63 73 82 86 85 84 83 81 79 76 72 73 76 76 77 77 75 77 76 75 77 78
101 97 93 86 79 71 69 63 57 49 47 46 54 57 60 56 50 45 48 56 57 57 54 50 50 53 60 67 74 81 84 81 77 73 73 72 72 73 74 78 81 83 81 82 83 83 81
105 98 93 87 80 74 69 60 52 45 41 38 41 45 60 58 53 46 49 55 59 53 50 47 39 42 50 58 65 72 74 74 72 70 69 68 73 75 76 78 83 84 86 87 87 87 83
110 105 97 89 80 74 68 57 49 43 38 35 34 38 53 61 55 46 48 56 58 56 47 42 30 38 47 53 63 65 68 69 69 71 73 74 75 77 78 83 87 89 91 92 90 89 90
112 108 101 91 82 75 67 56 52 43 35 32 32 31 40 62 59 50 50 55 55 53 41 35 29 32 41 50 61 62 64 65 68 71 72 74 75 80 84 88 87 86 86 86 87 85 75
113 109 103 94 84 76 68 59 54 42 32 29 28 27 35 56 62 57 54 53 48 47 41 35 31 30 33 45 56 59 62 64 67 69 70 72 74 76 80 81 80 76 77 81 82 82 73
115 109 106 95 86 78 69 63 54 37 27 27 25 26 34 50 66 64 58 49 45 50 45 40 34 31 31 34 41 47 53 58 57 58 58 61 66 66 69 74 77 81 86 90 90 86 81
118 112 106 97 88 80 70 65 52 35 21 17 19 25 32 43 65 65 57 46 43 51 51 45 39 34 30 30 31 35 39 43 47 45 47 48 55 64 73 79 85 86 88 89 88 82 76
118 113 106 96 89 80 72 65 50 35 20 12 20 24 29 39 57 62 58 47 44 46 52 50 45 40 36 33 32 34 37 40 40 44 47 52 58 67 77 81 84 80 72 70 79 75 66
118 113 104 96 89 79 71 62 49 35 21 10 14 25 31 38 50 60 53 46 47 46 48 50 49 46 41 38 37 39 41 38 41 44 47 54 63 68 69 64 53 53 53 55 56 59 53
118 113 104 96 88 78 70 59 47 35 23 8 8 22 29 35 40 52 53 53 51 45 45 48 49 47 44 41 42 41 39 37 38 41 49 55 59 50 46 45 39 41 41 34 33 39 40
118 113 104 94 86 78 68 55 43 33 22 4 8 17 25 28 33 53 58 57 49 45 40 38 40 39 38 39 38 39 35 32 34 44 43 40 40 35 36 28 24 23 26 28 25 19 22
117 113 104 96 85 77 67 53 36 24 18 6 10 16 21 28 38 56 62 59 51 45 40 36 35 36 37 35 35 33 28 29 37 27 27 21 17 20 18 20 32 30 22 6 6 10 6
116 112 103 97 87 79 66 52 36 22 12 6 14 20 27 29 36 55 63 55 50 47 44 40 38 36 35 34 32 26 25 30 23 23 19 15 11 18 26 30 35 37 40 38 26 22 3
113 110 102 95 88 78 66 52 36 24 11 3 15 23 29 29 35 42 51 56 54 52 48 43 38 36 33 30 27 23 26 23 23 21 10 3 9 16 26 30 41 44 42 37 28 24 16
109 107 101 92 87 76 64 53 37 23 9 3 8 17 23 26 29 39 56 61 58 54 50 45 40 39 34 30 27 24 21 21 25 18 12 5 5 13 18 28 33 34 45 42 41 32 27
105 102 99 92 85 76 63 51 37 24 11 2 7 17 25 33 36 36 45 57 59 56 52 47 44 40 35 32 29 24 22 23 24 20 6 10 6 15 16 17 17 27 30 37 43 45 42
101 98 95 91 84 75 63 50 36 25 13 3 5 14 23 26 33 39 45 53 61 60 57 51 46 42 39 33 30 26 25 30 28 18 11 14 16 13 19 10 18 17 23 30 37 35 39
98 93 90 87 81 74 61 50 37 25 14 6 7 12 19 23 27 33 39 45 54 60 58 53 48 45 40 35 29 26 26 29 24 17 12 18 12 10 10 20 14 24 17 19 24 25 26
92 89 86 84 77 72 59 47 36 24 14 8 8 14 17 23 28 32 36 40 43 49 50 51 52 48 42 35 32 28 29 32 20 12 17 20 15 11 10 19 11 9 19 20 16 14 20
87 84 82 80 74 67 58 46 34 24 17 8 8 12 14 20 26 29 34 37 39 41 44 49 51 46 40 37 33 28 29 26 21 19 15 17 16 12 12 7 9 5 4 8 11 16 10
83 79 78 77 70 63 55 44 34 24 17 10 9 12 12 18 22 27 33 36 42 46 46 46 44 40 39 37 34 31 28 23 25 21 15 21 17 15 12 7 6 5 7 10 10 14 13

GFSGBSN_250_spd_018.txt.gz
Wind_Speed
88 78 75 65 54 49 43 39 35 38 41 43 47 52 56 58 62 66 72 77 83 81 79 75 77 76 82 88 88 87 83 84 82 78 80 77 73 69 67 62 58 54 55 52 47 48 49
93 85 79 70 59 52 47 42 36 36 37 41 44 46 51 57 60 62 64 72 76 80 82 74 72 74 74 84 89 88 85 84 82 82 81 78 74 71 69 66 62 57 56 56 55 51 48
97 89 85 77 63 55 49 42 38 36 37 37 42 47 48 52 56 62 64 69 76 78 78 79 76 76 77 78 89 90 88 85 82 81 81 80 78 75 73 71 68 65 64 62 61 58 50
101 93 88 81 70 60 54 43 36 36 38 40 43 45 50 52 54 58 62 66 70 74 76 77 77 78 75 77 84 90 89 87 81 80 79 78 79 79 78 76 76 72 67 65 68 64 57
104 98 93 87 79 68 61 54 46 41 42 44 47 49 50 54 54 54 58 61 65 69 70 73 73 74 73 73 81 85 89 87 84 80 79 77 77 77 77 77 75 73 68 65 66 67 64
108 101 97 92 79 69 66 57 52 53 55 57 60 57 55 57 55 53 55 57 59 61 62 64 72 72 70 71 78 82 87 86 84 81 78 77 75 73 76 77 74 72 70 69 67 70 68
111 105 101 97 85 74 69 58 54 55 58 61 58 62 55 61 59 56 55 51 53 55 59 67 69 64 68 70 74 76 84 85 82 79 78 77 74 77 78 77 75 74 73 71 72 72 71
115 110 105 101 91 79 71 64 60 56 53 53 50 53 52 53 64 59 51 46 56 58 58 59 60 62 64 65 70 73 79 82 84 82 79 76 76 78 77 77 76 75 74 74 74 76 75
117 114 107 105 94 83 76 67 60 52 44 42 41 43 43 44 59 60 49 49 55 56 55 55 57 58 56 56 62 70 77 80 80 79 78 77 77 79 79 79 78 78 77 79 79 78 78
120 116 110 108 97 86 80 70 59 47 41 38 36 37 34 36 51 58 51 52 53 56 56 54 55 55 51 51 54 61 71 74 76 77 77 78 78 79 80 80 81 80 81 79 80 82 81
121 117 112 109 99 89 82 70 56 47 39 34 31 31 29 33 46 56 55 56 55 59 54 52 51 51 50 49 53 57 62 66 70 75 79 79 79 80 80 83 80 79 79 83 85 86 84
122 119 113 111 101 90 81 68 57 45 36 30 25 23 25 33 42 58 60 59 58 56 52 49 51 49 49 48 53 58 62 67 74 80 82 82 84 82 82 80 80 78 81 85 87 88 84
122 119 113 109 100 90 81 69 58 43 34 27 19 14 25 32 44 59 64 61 50 49 51 51 51 49 46 47 47 46 48 51 56 60 65 69 70 71 71 75 75 76 81 85 86 89 85
123 118 112 108 101 89 80 68 57 41 33 24 14 15 28 34 46 56 61 50 42 46 49 51 50 45 42 36 36 34 37 42 46 45 47 48 53 60 68 69 72 78 83 82 80 79 84
124 120 111 106 99 88 78 67 53 41 32 21 9 14 26 32 45 55 54 45 42 49 52 53 48 42 38 30 31 31 34 35 36 39 43 49 56 59 64 66 65 68 73 78 82 84 88
124 120 112 103 96 86 75 65 50 42 30 18 7 10 23 29 42 49 50 47 44 48 50 51 47 41 34 28 26 26 26 29 32 36 40 45 45 51 51 52 60 71 74 82 87 82 81
123 119 112 103 92 85 73 63 48 41 31 18 4 7 20 28 36 48 52 48 46 45 50 50 47 41 34 29 26 24 23 24 26 27 28 32 38 44 50 55 60 71 71 70 72 68 60
121 116 112 104 92 82 72 62 47 38 31 20 5 8 19 25 33 48 51 50 46 45 51 51 47 41 33 30 27 25 23 23 24 27 29 36 41 43 49 53 46 48 52 45 52 55 47
119 114 108 103 93 81 71 59 47 38 29 17 6 10 18 28 36 54 54 52 47 44 51 51 47 41 37 33 30 27 26 27 27 28 32 36 37 42 38 31 31 20 26 26 20 34 34
116 111 106 100 91 80 71 59 47 38 27 16 10 14 23 34 45 57 55 51 46 44 45 47 47 44 40 37 32 29 28 28 27 29 29 32 33 26 22 19 21 23 30 30 23 18 19
112 107 102 96 87 79 70 59 47 38 27 15 4 15 25 35 45 59 58 54 50 43 40 41 45 45 42 40 36 31 28 25 24 24 27 25 20 25 5 21 28 38 41 37 33 27 18
108 104 99 93 86 75 69 60 47 37 26 13 1 12 23 33 45 55 59 58 50 44 40 39 38 39 40 37 33 29 26 23 18 22 20 18 13 13 13 19 26 35 45 49 47 37 28
104 101 96 91 84 72 65 57 47 35 27 14 4 11 20 30 43 58 63 58 52 48 43 39 37 36 34 34 31 27 24 18 16 18 16 12 7 4 8 17 24 34 37 44 49 53 42
98 96 93 88 81 73 63 56 46 34 25 15 7 8 17 27 37 52 60 58 53 48 46 43 40 36 33 32 30 26 20 16 15 14 13 10 4 8 8 11 17 27 32 35 38 46 49
93 92 87 86 81 74 63 59 47 38 25 17 6 3 17 24 33 45 58 58 57 54 50 45 42 39 37 34 29 24 18 14 15 13 13 11 12 12 4 14 11 16 25 28 33 38 39
87 88 82 83 80 72 65 57 50 40 29 18 9 3 7 19 32 44 54 61 59 56 52 50 46 41 38 34 29 24 19 17 15 19 16 10 4 8 7 18 24 15 19 19 25 24 28
81 84 77 78 77 70 64 56 52 41 32 22 13 4 7 15 23 35 48 59 62 59 57 53 48 43 39 35 30 25 19 19 17 15 16 10 4 8 12 3 11 9 14 16 17 20 23
76 80 74 72 70 69 64 56 52 43 32 22 17 8 7 9 19 27 36 50 60 59 58 54 49 45 42 38 33 27 21 22 17 19 21 16 12 8 10 8 5 2 4 9 14 17 14
72 75 71 68 66 62 58 52 49 42 32 22 15 13 10 9 15 23 29 37 49 59 61 56 52 49 46 40 35 28 27 26 23 16 18 19 18 14 10 7 5 6 7 7 7 9 8

GFSGBSN_250_spd_021.txt.gz
Wind_Speed
98 97 91 84 81 75 70 60 55 52 44 39 42 45 49 55 63 68 74 81 84 83 80 81 82 84 86 85 87 87 86 87 87 84 81 77 76 76 74 73 71 73 75 65 63 62 64
102 101 96 88 85 80 73 67 55 49 47 42 40 44 47 48 54 61 68 76 82 84 85 83 85 84 80 85 84 87 85 85 85 85 87 83 80 77 75 72 72 75 76 73 65 63 64
105 106 104 96 92 86 78 70 64 55 44 44 43 45 48 50 51 51 58 67 74 79 82 83 86 90 84 80 78 83 89 88 89 88 85 85 87 85 84 81 78 79 79 76 70 66 61
109 109 107 97 95 89 82 76 68 61 53 43 46 50 51 52 54 53 51 58 67 72 75 78 81 89 89 85 81 83 80 89 93 91 88 85 84 85 85 82 82 80 78 76 71 70 66
112 113 110 102 99 91 84 75 67 62 59 57 53 52 57 57 58 58 54 53 58 67 73 75 77 83 89 87 85 78 80 83 84 89 92 88 87 84 86 85 83 82 79 77 73 73 68
115 116 113 107 103 97 88 79 72 63 59 61 66 66 60 62 63 62 61 57 58 60 65 71 73 77 85 91 90 84 82 79 81 81 88 89 89 87 85 84 85 85 81 81 79 77 77
118 118 115 111 106 101 92 82 74 66 60 54 55 61 59 58 64 69 67 65 62 51 52 64 75 77 81 87 92 89 83 77 78 79 80 90 89 89 90 87 85 84 83 81 81 81 79
121 122 120 115 110 104 97 90 79 72 63 55 52 49 50 50 55 64 73 73 56 55 65 63 71 73 81 83 82 81 79 76 76 78 81 84 91 90 87 86 84 83 83 83 82 82 79
122 125 121 116 112 108 99 90 79 71 63 57 52 47 44 44 47 51 68 77 64 61 61 57 61 63 68 74 75 75 74 72 72 73 75 81 87 89 87 85 84 83 82 82 80 78 78
124 126 122 117 111 108 99 89 79 70 62 54 48 41 38 39 41 44 58 75 71 62 59 57 54 57 62 62 65 66 67 68 67 68 69 72 80 84 84 83 85 84 83 83 82 82 81
127 127 123 118 110 107 99 88 78 69 58 49 42 34 27 30 38 44 52 66 72 66 61 56 50 49 54 55 56 58 58 58 59 61 66 69 77 82 83 86 84 83 82 83 84 84 82
129 129 124 117 110 107 97 86 77 66 54 45 35 26 20 26 36 42 52 66 74 70 57 48 46 46 47 46 49 50 49 50 56 59 64 66 70 77 81 83 83 83 83 85 85 86 83
130 129 123 115 108 105 94 84 74 63 51 41 30 19 17 25 33 41 49 67 75 55 47 45 45 44 44 44 44 44 45 46 49 54 58 63 68 72 75 79 80 81 83 85 86 87 86
131 129 122 113 108 101 91 83 71 60 47 38 27 15 10 22 32 39 53 65 56 42 44 43 46 44 42 42 41 42 41 42 44 48 55 56 63 68 74 77 79 81 81 85 88 91 92
130 127 119 110 107 99 87 78 67 54 43 34 21 8 5 20 29 38 47 52 45 47 43 44 44 42 40 40 41 40 40 42 45 49 52 56 62 69 73 76 79 80 79 73 70 73 76
128 125 114 107 105 98 86 76 64 48 40 31 19 6 8 19 26 34 36 38 45 46 43 44 42 43 42 42 40 39 38 40 42 41 39 39 36 35 36 39 40 40 48 58 66 70 79
128 121 110 105 102 94 83 74 63 47 38 30 19 6 8 14 24 33 44 47 46 40 40 44 43 40 39 36 33 33 32 31 27 24 23 22 22 29 25 27 34 42 51 59 68 75 83
123 117 105 100 99 89 81 72 60 45 36 29 18 7 10 15 25 42 48 45 42 41 43 43 43 40 36 31 31 26 25 24 23 20 17 18 20 20 23 31 38 46 49 51 54 60 61
118 111 102 97 95 85 77 70 59 44 34 27 13 10 12 13 23 42 46 45 40 40 41 43 44 41 35 28 27 25 23 20 18 16 15 17 17 21 28 33 31 34 30 28 33 31 38
111 106 100 95 90 80 73 67 57 43 33 26 16 9 16 20 30 39 47 43 37 36 41 43 44 40 35 28 27 25 23 20 17 15 16 17 20 22 24 18 8 17 29 35 24 23 23
104 101 97 91 85 76 70 65 54 41 32 26 19 5 15 27 36 40 42 42 37 38 43 45 45 42 37 33 27 25 23 20 17 17 17 16 20 16 10 5 7 15 24 30 39 31 28
96 96 95 89 81 70 67 62 51 41 31 26 18 4 13 24 40 42 43 40 38 39 43 45 43 40 37 33 28 27 24 21 19 17 16 17 12 6 6 6 6 12 18 28 33 40 37
90 91 92 88 79 64 60 58 49 40 31 23 18 6 12 23 39 45 44 40 39 38 40 43 44 41 38 34 32 29 27 22 18 15 15 7 7 8 9 5 11 19 22 27 30 32 40
85 86 89 85 79 67 55 56 53 41 30 22 14 7 6 18 35 46 44 44 41 38 37 39 40 41 40 39 36 32 26 21 17 14 10 3 9 7 12 7 5 13 18 22 29 33 40
81 81 84 81 74 69 58 53 51 44 33 24 14 5 4 17 30 47 51 50 47 43 39 38 38 37 39 37 33 29 25 19 17 15 12 6 11 7 5 10 6 3 10 22 25 28 36
76 76 77 77 69 66 59 55 48 44 35 25 17 6 4 12 30 46 52 53 49 46 42 39 38 37 35 33 31 28 23 19 15 9 10 10 9 10 13 14 8 5 10 17 17 26 28
72 72 71 70 66 63 58 55 50 44 37 29 18 11 4 11 24 40 52 54 54 49 46 42 39 38 36 33 31 28 23 18 15 13 9 10 12 11 16 12 12 7 5 10 11 18 26
69 67 66 65 60 58 59 54 52 46 38 30 22 14 9 11 17 30 48 55 55 54 50 47 42 41 38 36 33 29 25 20 16 15 11 14 10 9 11 6 6 7 6 7 11 14 18
66 64 61 62 57 54 54 54 53 48 39 33 24 18 14 13 16 23 33 49 58 58 54 50 47 45 42 39 35 32 25 21 19 19 19 17 15 11 12 13 12 11 12 12 13 15 16

GFSGBSN_250_spd_024.txt.gz
Wind_Speed
102 104 106 105 105 102 97 90 84 77 67 58 55 54 46 44 50 57 65 72 79 88 88 87 86 83 84 86 87 88 87 88 88 83 77 76 76 75 73 71 73 69 67 71 72 71 73
106 108 111 112 110 107 98 92 89 83 76 66 59 53 54 49 48 55 61 68 77 86 91 92 90 85 86 84 81 86 89 87 88 87 84 81 77 76 75 73 73 72 71 72 72 72 72
110 112 114 114 114 113 103 93 87 82 78 76 69 58 52 54 51 54 57 62 69 77 84 92 89 87 82 86 82 84 86 88 87 88 89 87 82 81 76 75 74 75 76 74 70 74 73
112 115 117 115 117 117 109 98 91 86 77 72 69 67 61 55 57 55 59 59 64 71 78 84 87 92 89 83 80 85 84 82 86 87 88 89 86 87 83 78 75 78 77 76 76 77 76
114 117 119 120 121 119 112 101 94 91 83 74 67 65 68 67 56 61 58 61 61 66 72 79 84 87 88 83 80 82 83 83 84 86 86 84 86 86 85 85 83 81 80 81 81 79 76
118 120 121 122 123 123 115 105 100 95 87 74 63 55 56 61 57 56 61 60 64 64 68 71 74 79 84 88 85 84 83 82 82 85 85 82 84 85 86 87 88 88 86 84 83 82 83
122 123 124 124 126 123 115 105 100 95 86 75 63 53 48 48 51 47 61 66 65 64 59 58 62 71 79 90 90 85 85 85 82 77 75 78 80 83 90 87 87 85 85 86 86 85 84
122 125 125 127 127 124 114 105 100 94 85 75 63 49 43 38 36 39 51 65 66 63 58 55 59 59 71 76 81 86 83 87 85 81 76 73 72 83 87 87 88 87 88 87 87 85 82
123 126 126 128 128 123 112 106 101 94 82 71 59 47 40 36 28 30 42 63 65 66 59 57 58 55 63 67 72 77 82 87 89 85 80 79 75 77 77 80 85 91 92 92 89 87 85
124 127 128 129 127 121 111 106 101 91 79 66 57 48 35 30 25 25 37 54 64 66 64 60 51 50 54 57 70 72 73 76 83 85 82 81 76 75 73 75 77 79 86 88 89 89 86
125 127 129 130 126 117 109 105 100 90 77 64 57 46 33 27 24 24 35 48 63 68 68 58 52 50 47 47 58 66 69 70 77 85 83 82 81 78 74 78 77 80 80 87 88 87 86
126 128 129 131 123 115 107 102 98 86 72 62 54 43 29 21 15 21 31 43 54 70 71 54 46 47 43 41 50 60 64 70 68 72 79 83 84 82 78 76 77 78 80 82 84 87 85
125 127 129 128 120 114 107 100 93 79 67 59 48 38 26 13 9 18 29 36 46 63 55 53 48 44 40 41 45 50 58 60 64 67 67 70 72 71 69 67 67 67 67 72 75 78 79
125 127 129 125 116 113 107 102 93 76 64 53 42 34 21 8 3 15 25 33 41 41 54 55 48 38 36 38 38 42 47 49 51 53 57 58 57 55 55 56 56 56 60 68 69 74 78
124 125 127 121 112 108 106 100 90 73 61 48 38 30 18 9 2 11 19 30 36 46 57 54 43 35 32 35 36 37 38 39 38 39 39 40 42 44 46 48 52 56 59 63 66 71 73
120 125 123 115 108 106 103 98 88 71 59 44 37 28 16 10 5 11 20 28 34 53 55 47 38 34 35 36 34 31 30 30 31 30 28 32 37 39 43 46 47 51 58 61 66 70 76
119 121 118 111 104 102 101 95 83 69 56 41 39 24 11 9 6 9 19 31 44 48 47 40 33 31 36 35 33 30 27 27 27 29 31 32 34 38 41 43 47 50 52 51 52 52 56
117 118 112 106 99 98 98 93 80 65 53 40 38 23 14 12 12 20 27 33 41 40 37 32 31 33 29 27 27 27 27 29 28 29 31 34 38 38 30 24 21 22 27 36 44 50 55
113 112 105 102 94 93 93 89 76 63 52 38 36 25 14 12 16 27 36 42 39 34 31 30 34 33 30 29 27 25 25 24 24 25 25 23 22 15 13 11 17 25 28 33 36 28 32
109 106 99 98 91 89 87 84 71 60 49 38 35 26 10 10 24 31 37 37 36 30 29 33 34 32 28 26 25 23 20 19 22 23 21 17 11 9 10 14 16 17 17 15 8 15 20
104 98 94 93 89 85 81 77 66 55 47 39 33 27 13 11 19 23 26 27 22 22 27 32 34 31 27 23 18 20 21 23 21 18 15 10 8 10 11 9 11 6 9 9 13 16 22
99 92 89 90 87 82 77 67 65 53 46 38 28 24 12 10 17 21 23 20 19 23 32 35 34 31 27 24 23 23 22 20 18 14 10 9 9 7 11 12 7 8 9 12 20 24 29
92 85 84 85 85 81 77 65 56 51 44 36 25 18 8 8 14 21 22 22 22 25 30 34 34 32 30 27 24 23 21 18 14 10 9 8 8 13 15 12 11 7 9 14 13 23 30
85 79 81 81 81 79 73 67 48 46 43 34 25 14 5 10 20 24 26 26 25 26 29 33 36 35 32 29 25 24 22 18 15 11 10 9 8 14 19 15 11 3 8 13 13 20 26
80 76 75 76 75 76 71 64 53 39 36 35 25 16 4 12 22 28 30 32 31 30 31 33 36 36 35 31 27 25 23 19 15 14 10 12 11 16 24 18 11 4 4 10 15 19 23
75 73 71 71 71 71 67 63 57 42 35 31 27 16 8 8 25 30 36 38 35 34 34 34 36 36 36 34 31 29 26 19 17 15 12 14 15 16 17 21 13 9 3 10 14 19 25
70 69 67 67 65 65 64 61 53 46 37 31 27 21 9 10 18 31 38 42 40 37 37 35 35 35 35 36 34 31 26 22 19 13 13 15 10 10 15 20 18 13 10 5 13 18 22
67 65 63 60 63 59 60 59 53 46 38 33 30 25 19 9 16 27 37 44 49 45 42 39 37 35 35 35 31 29 26 24 20 17 15 14 16 14 21 18 20 15 7 11 15 19 20
64 61 59 56 59 57 56 57 52 48 42 34 33 24 22 17 13 22 32 41 48 50 48 43 40 38 37 33 31 29 28 24 20 17 17 16 16 13 21 18 16 12 13 16 18 20 21

GFSGBSN_250_spd_027.txt.gz
Wind_Speed
106 108 109 111 108 108 108 108 105 96 86 80 76 73 60 57 51 43 44 50 61 71 77 82 84 86 84 84 86 89 90 92 88 84 82 81 78 80 79 81 82 78 78 77 79 77 76
109 110 110 113 109 109 109 109 104 96 87 81 77 72 72 58 54 49 43 50 57 66 76 80 84 84 84 82 82 84 90 91 92 90 86 82 80 78 80 77 75 76 76 74 76 76 74
110 111 112 112 111 113 111 110 103 96 89 83 75 69 66 67 56 53 47 46 55 61 72 80 82 85 88 85 84 83 84 88 89 90 91 89 83 80 78 77 75 72 73 74 75 76 73
111 113 114 113 113 115 112 112 104 99 94 86 76 65 59 56 60 46 50 46 48 59 66 75 81 84 92 88 89 84 84 86 86 89 91 91 92 86 79 77 74 74 72 72 76 73 73
114 117 118 115 116 118 114 112 105 100 93 85 76 67 59 52 48 45 43 47 46 54 62 71 79 82 93 93 92 87 82 82 85 86 87 90 91 88 84 79 74 73 74 77 77 75 74
114 116 118 117 120 120 115 112 107 103 94 83 74 66 54 44 39 38 35 45 47 49 60 65 71 80 87 96 99 93 85 80 80 79 80 85 86 84 85 84 83 82 77 73 76 77 75
114 118 116 117 121 119 116 113 109 105 93 83 74 61 47 40 35 29 27 41 50 52 54 53 62 71 85 90 96 97 90 83 83 79 79 77 77 81 84 86 87 85 82 80 80 79 76
115 118 117 118 121 120 116 113 110 104 92 83 73 58 49 39 33 28 27 36 47 48 46 54 59 65 75 80 91 93 88 89 86 83 79 78 75 74 84 84 83 82 85 87 88 87 82
115 118 118 119 121 121 116 112 109 102 91 84 71 60 48 36 25 21 22 30 44 46 49 54 57 59 66 72 81 87 89 89 91 85 77 73 74 74 76 75 77 78 80 84 87 88 87
116 118 119 121 121 121 116 113 109 97 90 82 68 58 45 32 19 13 20 30 40 44 51 52 53 57 57 59 67 77 81 80 80 79 74 72 71 69 70 72 75 76 77 78 79 83 85
115 117 120 121 121 120 116 114 109 97 88 78 65 53 41 29 15 6 17 27 36 46 51 51 53 52 50 50 53 61 68 75 84 85 79 76 79 75 71 71 69 68 69 74 76 78 82
116 116 119 120 121 120 116 113 107 96 90 75 61 48 39 27 14 3 11 23 32 43 49 46 48 43 42 43 45 47 56 62 69 74 77 77 79 75 75 74 73 72 73 73 72 72 74
116 118 119 120 120 119 114 111 106 95 88 70 58 45 37 26 15 6 7 20 28 28 37 47 47 42 41 41 39 41 46 56 56 61 71 80 78 77 79 75 75 74 75 73 69 67 67
116 120 120 120 119 117 112 109 105 96 86 68 56 42 34 24 15 11 10 18 20 19 38 47 45 41 39 34 33 33 38 44 53 56 56 60 66 76 79 80 75 73 75 74 70 69 70
116 119 121 120 118 114 111 107 101 94 85 67 52 41 33 22 16 10 13 16 23 33 45 45 39 36 30 25 27 30 32 37 46 54 55 55 57 61 66 69 76 78 72 71 67 64 59
115 117 118 119 115 112 108 105 100 92 83 64 50 40 30 21 15 11 15 21 33 42 43 42 42 35 27 22 23 24 27 33 39 45 45 48 51 54 54 55 58 61 61 56 49 45 47
112 114 115 117 113 109 104 102 97 90 81 61 48 38 33 22 13 13 24 34 37 45 46 41 37 30 23 19 19 20 24 27 30 34 39 40 38 40 38 38 38 37 35 35 39 47 48
109 112 113 114 111 106 100 98 95 88 79 60 46 40 37 28 15 10 17 33 42 51 47 42 36 27 18 15 16 18 21 24 25 26 26 29 30 26 22 25 28 33 37 40 39 38 42
107 109 109 109 107 104 96 93 92 86 78 62 46 40 36 28 15 13 20 31 36 41 40 33 28 21 19 20 21 24 25 26 25 25 24 22 20 21 26 27 27 24 21 20 24 30 38
104 107 107 104 102 100 95 89 87 83 76 63 46 41 36 29 19 17 24 28 31 29 27 23 21 24 25 27 25 22 22 22 22 21 22 22 21 24 23 20 15 14 13 15 19 19 21
102 103 104 97 97 95 91 85 83 77 72 63 48 38 31 23 22 21 22 21 22 21 19 21 28 29 28 26 24 22 21 21 20 21 19 25 28 24 18 14 12 14 13 14 10 4 12
99 100 99 93 91 88 86 81 74 72 65 55 43 32 27 21 15 17 18 19 16 17 23 27 29 29 28 24 21 20 19 19 20 24 27 24 18 16 15 13 13 15 9 2 5 9 15
97 98 93 87 85 82 80 78 69 64 60 50 40 28 16 10 5 9 13 13 14 20 27 30 29 26 22 20 20 20 21 24 24 21 18 16 16 15 16 15 17 13 5 2 3 8 18
94 94 87 80 79 75 76 74 69 57 49 48 39 28 16 3 3 7 9 10 13 21 27 29 29 27 23 19 21 23 23 21 18 13 13 15 14 15 18 22 21 13 6 3 1 11 17
91 87 82 74 72 69 69 71 69 59 49 39 36 29 20 9 6 12 14 13 14 19 25 30 30 28 26 23 22 22 19 17 15 11 15 15 16 18 21 26 20 12 5 7 7 16 19
84 81 76 70 66 64 63 66 65 62 53 41 30 27 23 16 10 15 20 23 21 20 25 30 33 31 29 26 24 23 21 18 16 13 17 14 16 19 25 28 23 17 14 13 8 14 18
77 75 71 65 61 60 60 62 60 58 55 49 37 26 22 17 16 15 23 30 31 28 27 29 32 33 33 30 28 26 23 20 16 17 17 13 17 19 24 27 25 20 20 16 9 14 16
72 69 66 62 56 56 57 60 57 54 52 49 45 33 24 19 17 19 21 30 38 37 31 30 31 34 35 34 32 30 27 23 20 21 16 17 18 19 21 25 28 23 22 18 14 16 18
66 66 61 58 55 52 55 59 57 55 52 48 44 41 32 22 20 18 23 26 36 43 41 37 35 34 35 36 34 32 30 25 24 23 18 19 22 21 25 23 26 23 23 23 19 20 20

GFSGBSN_250_spd_030.txt.gz
Wind_Speed
102 104 106 108 108 108 107 104 99 92 89 88 83 75 64 62 52 43 44 41 46 53 61 71 78 85 87 90 91 93 96 101 94 93 91 91 91 92 93 94 93 86 84 83 83 80 76
103 105 108 108 109 106 107 106 101 93 93 90 84 76 64 53 55 46 41 44 44 51 58 67 78 82 86 89 94 91 93 98 101 94 91 89 84 84 87 89 87 84 85 82 81 81 80
104 106 109 109 108 108 109 107 100 94 94 90 82 74 60 48 45 42 40 42 44 50 56 65 74 80 85 91 91 92 92 92 96 99 92 90 87 84 83 83 84 83 82 81 83 86 82
105 109 110 106 107 110 113 108 101 97 96 92 83 71 57 45 38 34 33 39 44 48 56 63 69 78 85 87 90 92 91 89 92 94 99 95 89 86 83 80 80 81 78 76 81 82 80
107 109 110 107 108 113 115 111 104 100 100 93 82 68 54 44 35 31 27 35 43 48 55 60 66 71 84 85 91 92 90 87 84 89 93 94 96 89 85 80 78 75 72 76 80 77 77
107 111 110 109 111 115 117 113 106 101 102 94 78 64 57 49 36 27 23 32 39 48 54 58 62 72 81 88 89 90 91 88 86 82 86 93 91 92 87 83 78 77 76 75 72 73 72
110 112 112 110 114 117 118 117 108 104 102 91 74 63 61 54 41 25 18 30 39 48 52 51 49 62 73 82 82 87 88 87 87 86 81 82 86 86 87 90 86 82 78 75 74 73 72
113 114 111 111 117 118 119 118 111 107 102 87 74 66 62 53 37 20 14 26 32 39 46 47 54 62 71 79 83 88 87 88 88 82 80 77 74 80 87 88 87 88 85 82 79 76 73
115 115 112 114 118 120 121 120 112 109 103 89 72 67 61 50 35 15 10 24 30 36 45 49 53 61 63 71 76 83 89 88 87 84 82 78 74 76 77 78 81 84 86 88 85 82 77
116 116 113 115 118 122 122 120 112 108 101 87 74 69 58 46 32 14 9 23 27 37 47 49 51 53 50 60 68 78 86 91 84 81 82 81 75 73 74 71 70 74 78 83 86 86 82
116 116 114 116 118 123 123 121 112 107 100 85 75 69 53 44 28 12 6 14 21 29 41 47 49 45 46 50 61 70 78 84 89 89 85 82 77 73 70 68 67 67 69 72 78 79 79
116 118 116 117 118 122 124 121 112 107 98 84 77 65 49 41 27 11 6 10 19 33 44 43 43 38 40 43 49 55 66 75 78 79 82 82 80 74 72 72 69 68 66 65 68 70 70
116 117 117 118 119 122 123 120 111 105 97 85 76 59 45 37 28 14 11 13 22 30 35 38 37 38 40 41 39 44 53 64 73 77 78 82 82 77 75 75 71 67 65 59 57 61 65
116 118 116 118 120 121 122 119 110 104 95 83 73 56 42 33 25 18 17 19 21 33 37 41 37 38 38 37 36 38 39 44 53 64 75 79 77 77 75 74 72 66 66 66 63 61 63
117 116 115 118 121 120 120 116 107 101 92 80 70 55 41 34 24 19 21 29 35 37 38 33 33 34 32 30 29 27 30 34 43 52 58 64 70 73 71 69 69 67 65 68 66 64 64
115 113 115 117 120 120 117 114 106 97 89 80 70 54 41 38 28 17 23 32 38 38 37 38 35 29 26 25 23 23 25 29 33 38 47 49 54 61 65 69 71 67 64 69 72 70 70
112 110 111 115 119 118 113 111 104 98 90 81 72 56 44 42 29 15 13 27 36 34 34 33 29 28 22 18 16 19 25 28 28 33 38 44 44 45 45 49 55 62 64 64 67 70 72
110 106 108 113 116 116 107 102 99 94 86 80 70 58 43 39 33 20 16 27 33 34 31 27 23 18 11 9 9 16 22 25 27 29 32 39 41 39 38 39 41 43 44 46 51 55 56
105 103 106 111 110 109 105 98 94 89 83 77 68 57 42 36 31 21 21 24 29 28 28 24 23 19 12 10 12 15 17 20 24 26 28 30 32 31 31 33 35 36 37 37 35 36 35
100 100 104 107 106 99 97 94 87 85 78 73 65 55 38 30 29 23 21 22 27 26 24 22 19 15 13 21 21 20 22 23 23 22 23 24 25 28 29 30 29 29 29 29 29 27 26
98 99 101 103 99 93 89 86 82 77 72 68 62 51 38 26 22 21 20 18 23 25 21 17 16 16 21 25 27 26 26 24 25 25 23 24 25 26 27 28 27 26 24 23 20 15 14
96 98 98 98 91 86 83 79 77 73 68 63 55 48 34 20 13 12 14 17 17 19 20 19 19 21 23 25 25 23 22 22 22 21 21 24 26 28 26 24 26 23 20 14 13 7 4
94 96 97 92 85 81 76 75 71 65 61 59 52 43 36 25 15 4 6 6 11 14 17 22 25 26 25 23 20 19 19 19 20 21 25 27 28 27 26 24 22 22 22 20 17 13 7
91 93 93 86 80 76 71 70 69 61 55 52 52 44 33 24 16 13 6 4 6 11 17 21 23 25 25 21 19 19 19 21 24 28 29 29 26 24 22 21 23 23 21 19 16 13 9
91 91 88 81 74 72 68 65 64 62 54 46 42 43 36 27 19 14 13 11 9 12 19 21 23 24 23 23 23 23 25 26 27 24 22 21 21 19 18 23 27 24 22 20 18 10 13
90 87 82 77 69 65 65 62 62 60 55 48 42 36 36 31 22 18 17 19 17 16 19 23 27 27 25 25 26 27 27 26 22 17 19 21 19 18 23 26 32 28 22 18 16 15 15
86 81 77 72 68 63 62 59 61 59 55 49 43 40 31 29 28 22 18 20 22 21 21 21 25 29 29 28 27 28 27 25 22 18 17 21 18 18 23 30 37 31 24 20 20 19 19
80 76 73 68 64 62 60 57 57 56 54 51 46 43 38 30 25 27 24 20 23 26 26 24 27 30 32 32 31 30 29 27 24 20 19 22 21 21 23 30 38 34 30 25 21 24 24
74 71 69 65 61 58 59 57 55 55 52 50 46 42 43 40 28 24 26 26 22 27 30 32 31 32 34 36 36 34 32 30 27 24 21 25 22 23 25 28 31 32 30 26 27 28 28

GFSGBSN_250_spd_033.txt.gz
Wind_Speed
99 103 104 105 103 102 103 105 107 105 96 91 86 80 73 66 56 54 48 51 55 58 66 71 75 79 86 90 99 105 108 110 110 107 104 107 108 108 105 100 97 92 90 90 91 89 85
99 103 103 106 105 105 106 108 111 108 99 94 90 83 73 60 50 46 45 47 52 58 66 73 75 78 83 87 99 101 106 108 107 107 103 100 99 103 103 101 97 94 93 91 91 86 83
102 102 103 107 109 107 109 113 115 111 102 96 93 83 71 56 44 38 39 41 49 53 63 72 75 77 78 89 90 97 102 103 105 106 106 100 99 97 97 99 99 95 94 92 88 88 85
101 103 105 110 112 111 111 117 117 112 103 97 93 82 69 53 38 29 31 36 41 48 60 70 72 75 74 86 87 94 97 100 101 103 105 103 98 97 95 91 93 92 93 91 92 93 89
102 105 109 114 117 116 114 119 120 113 104 97 92 80 65 49 38 29 25 31 36 43 56 66 69 72 75 85 87 93 95 97 99 101 101 102 99 95 92 89 87 86 85 89 93 92 91
105 106 112 116 119 118 115 120 121 113 104 97 92 79 59 47 40 31 23 27 35 40 51 62 67 69 75 74 84 90 94 95 97 97 98 101 102 96 91 87 82 80 82 82 83 83 81
107 110 112 118 120 120 117 121 123 113 105 98 93 76 59 50 43 33 22 24 34 35 46 58 58 63 68 72 80 87 93 96 94 94 93 96 97 95 90 88 87 83 79 79 76 77 76
108 112 116 120 122 121 118 121 124 114 105 100 95 74 63 50 43 33 20 18 26 30 41 56 59 64 68 71 75 83 88 92 93 91 89 89 88 90 96 92 87 83 78 76 76 79 73
111 115 119 121 123 120 118 121 123 113 106 102 92 74 61 47 41 34 18 12 20 29 41 54 58 60 62 65 70 77 85 88 92 88 88 84 80 82 90 93 92 86 83 81 79 78 75
113 117 122 122 121 119 119 121 123 112 105 100 87 72 60 44 39 30 16 4 16 28 42 51 55 58 58 60 64 72 80 85 92 87 85 81 82 80 80 86 87 88 90 89 85 82 76
116 119 122 122 120 118 120 122 121 109 101 94 83 71 58 44 36 28 11 6 15 26 40 48 51 51 52 51 57 60 69 76 81 82 83 82 79 77 75 76 75 81 83 82 85 85 80
118 120 123 122 120 117 120 121 119 106 96 92 81 69 53 41 32 23 10 11 15 24 41 48 44 39 39 43 49 56 60 69 74 75 77 79 79 77 77 73 71 69 72 77 79 81 78
117 120 124 121 119 117 120 119 117 105 97 91 80 67 51 38 29 20 12 12 19 26 36 38 36 36 38 40 43 49 56 60 66 74 74 73 74 77 76 71 68 69 67 67 68 69 68
116 117 121 119 117 116 117 119 116 104 96 88 78 66 54 41 29 20 17 16 23 33 36 37 36 33 34 33 37 42 47 50 56 63 75 77 74 73 73 70 69 69 63 61 63 64 62
114 117 117 116 115 115 115 118 112 102 95 89 80 65 55 42 33 24 16 21 33 38 36 32 28 27 27 27 27 28 34 40 46 53 59 65 73 71 69 67 70 73 69 64 61 61 61
112 114 113 113 111 111 112 115 109 100 92 88 78 69 61 46 37 24 13 27 31 33 33 32 31 25 25 24 23 23 27 31 34 39 47 54 60 64 66 64 67 70 69 67 64 62 61
110 112 109 109 107 108 110 109 104 97 89 84 77 69 58 48 36 24 18 27 31 33 33 30 27 28 25 21 20 19 19 22 26 30 35 44 55 61 62 62 61 61 62 62 62 62 64
108 108 106 105 104 105 107 105 98 91 86 81 73 65 58 48 35 23 22 25 26 26 26 26 23 19 15 13 12 12 17 21 23 25 29 37 46 52 61 63 65 65 61 61 61 61 61
105 105 103 103 102 104 104 101 93 86 80 76 69 62 53 46 34 24 20 21 24 24 25 24 22 19 17 13 13 14 17 22 24 24 24 27 35 42 44 47 50 54 57 61 64 63 57
103 102 101 100 102 102 99 94 87 82 74 69 66 58 50 43 36 21 16 16 19 20 20 19 16 12 9 8 12 16 20 22 24 25 26 28 33 39 41 39 37 35 34 37 36 35 38
99 97 99 99 99 99 92 87 81 77 72 66 59 53 46 40 32 24 13 11 12 14 14 13 11 9 10 11 17 20 18 18 19 22 24 26 29 32 34 32 29 27 30 29 29 28 26
96 95 97 98 95 93 85 80 75 72 66 63 55 49 42 34 27 22 14 7 2 3 6 8 10 11 10 15 18 17 16 17 18 20 22 24 25 28 29 27 26 25 23 26 26 26 25
93 94 96 96 90 86 79 75 71 69 63 57 53 45 39 31 25 17 14 10 8 8 10 13 14 14 15 18 17 16 15 16 18 21 22 23 24 24 24 24 24 26 26 24 25 24 21
92 93 94 92 85 79 73 70 67 65 62 55 49 46 37 30 24 19 15 13 14 15 17 18 18 15 17 18 18 18 18 17 17 18 20 21 23 24 24 25 25 27 27 27 27 23 22
92 94 92 85 79 73 68 66 63 62 59 54 46 41 39 32 25 20 19 18 18 16 17 17 18 17 20 20 19 18 18 19 21 23 23 22 21 21 23 26 28 31 30 27 28 28 23
93 92 87 80 75 67 65 63 61 58 57 53 46 39 33 32 30 23 19 19 20 21 18 17 18 20 22 23 22 22 22 22 23 23 22 22 20 23 24 27 29 34 33 32 30 28 25
90 86 80 75 70 63 61 60 58 57 57 52 48 40 33 29 27 27 24 19 19 21 23 20 20 24 26 25 25 25 25 26 24 23 22 20 20 22 22 26 30 35 31 30 31 29 27
84 79 74 71 65 61 59 56 55 54 54 54 49 44 37 32 28 24 26 25 20 22 23 26 24 26 30 29 27 27 29 29 27 24 21 21 22 22 21 24 33 36 34 32 29 27 25
79 74 69 67 63 59 57 55 53 52 50 52 49 46 41 36 29 30 25 23 26 23 24 25 31 30 32 34 33 32 32 32 30 27 24 22 22 24 21 23 29 34 40 38 33 29 30

GFSGBSN_250_spd_036.txt.gz
Wind_Speed
96 98 98 103 108 110 108 105 105 107 111 100 90 85 79 73 64 55 50 50 51 48 52 59 64 72 77 81 89 99 106 111 119 121 118 120 113 111 104 99 101 97 92 92 94 92 91
98 99 101 105 109 111 110 108 109 111 113 101 91 84 79 69 59 52 45 45 47 46 47 54 61 68 74 79 89 97 104 109 111 123 114 112 115 115 112 106 100 98 98 96 94 92 90
99 101 103 107 111 112 112 112 113 114 113 101 92 86 79 68 55 46 39 41 43 43 46 50 58 66 71 80 88 94 100 106 111 117 117 108 109 113 114 112 105 99 95 95 95 95 91
100 101 103 107 112 114 114 114 115 115 114 102 96 89 81 66 52 39 33 34 37 40 44 45 55 63 69 82 83 89 96 103 106 110 121 115 106 106 108 109 107 102 99 95 94 93 94
102 103 105 109 115 116 116 115 116 117 114 104 98 91 80 62 49 39 33 30 31 35 40 41 48 61 70 76 79 87 92 99 105 110 113 121 107 99 101 105 104 102 99 97 96 95 93
104 105 108 112 117 117 117 116 116 118 115 103 96 90 76 60 50 40 33 25 24 28 34 37 45 60 72 73 78 83 88 93 101 108 112 111 117 103 96 94 90 91 94 96 98 96 93
107 109 114 115 118 119 118 117 118 117 112 101 93 87 72 58 51 41 29 18 16 22 29 35 44 64 66 68 72 79 86 89 95 102 105 106 104 99 98 93 93 88 92 91 90 89 86
109 113 116 115 118 120 118 118 118 117 111 99 91 85 70 58 50 38 25 12 6 13 25 35 46 60 64 68 74 77 83 84 91 94 100 104 102 103 102 98 91 91 85 81 83 83 81
114 116 117 116 118 119 118 117 118 116 110 99 91 83 68 56 46 35 23 12 2 13 27 36 48 58 63 67 64 67 75 79 87 91 98 107 100 97 97 96 93 87 85 86 83 82 78
116 118 118 117 118 120 117 118 117 114 108 99 90 82 67 54 46 34 23 12 4 16 28 40 52 57 61 63 61 66 70 76 84 90 93 94 91 94 94 92 94 91 85 84 82 80 76
116 118 118 118 119 120 117 119 117 109 103 96 88 81 65 53 46 34 23 13 8 11 23 37 48 52 56 52 54 61 64 71 82 84 85 85 87 90 94 92 90 91 90 85 82 79 76
116 120 117 117 118 119 117 117 118 111 99 94 87 81 64 51 45 35 23 17 13 10 20 31 42 44 44 45 49 53 54 63 76 77 80 84 81 84 87 88 88 87 87 88 85 82 77
117 120 117 116 117 117 115 115 116 111 98 92 86 82 66 55 45 35 25 21 15 15 19 30 35 36 37 41 42 44 48 56 64 75 72 77 77 78 78 79 81 79 81 80 85 88 82
116 117 114 113 114 114 112 114 113 108 99 92 84 81 68 57 49 33 26 23 25 23 25 25 26 27 28 30 36 39 41 46 55 61 70 75 76 75 74 75 77 72 71 74 73 74 78
116 112 110 111 112 110 110 112 110 104 97 90 84 79 69 61 52 36 23 22 27 25 28 28 26 30 28 28 31 29 29 37 42 51 59 66 74 74 70 67 70 70 70 69 65 66 71
111 107 109 110 108 106 106 108 105 98 91 86 80 75 67 60 53 30 19 21 26 27 27 27 27 25 25 23 22 22 25 29 34 39 48 59 70 73 68 65 68 70 69 66 65 64 64
107 106 107 107 104 102 104 104 100 92 86 80 75 70 64 52 46 33 17 15 18 18 18 19 19 19 19 16 16 17 19 22 26 33 41 51 57 66 64 62 64 63 64 67 65 63 64
104 105 103 101 100 99 101 100 94 88 82 76 69 64 59 49 40 30 19 14 15 19 20 19 19 18 16 14 12 11 13 17 20 23 30 38 45 51 60 70 64 62 62 66 68 68 68
104 103 100 97 96 96 98 94 88 82 76 73 67 60 54 47 36 31 19 9 11 15 18 19 17 15 14 12 12 14 15 17 19 22 24 29 35 43 51 55 62 66 65 65 64 64 62
102 100 98 93 93 94 95 89 82 76 70 68 64 59 52 46 36 28 22 14 8 11 15 14 13 12 10 9 11 14 17 20 22 22 24 26 31 39 43 49 54 54 53 52 53 52 54
99 98 95 92 91 90 89 82 77 71 66 60 60 55 50 44 38 27 19 15 9 4 4 6 6 6 6 6 10 12 15 18 20 23 23 24 26 30 38 42 44 46 48 52 50 51 46
100 98 94 91 89 86 82 77 72 66 63 56 53 50 47 42 36 31 22 15 10 8 6 5 6 8 9 12 11 9 11 14 15 18 22 24 26 27 31 36 39 39 38 36 35 32 32
100 98 92 90 85 81 76 71 66 62 59 54 50 44 42 38 33 30 25 19 14 13 13 14 12 12 14 16 12 10 10 10 10 15 19 22 23 25 28 31 32 32 32 28 28 29 27
97 93 87 84 79 74 70 65 61 58 56 53 49 43 39 35 32 27 23 21 18 15 16 18 20 19 17 15 13 12 10 10 10 10 13 17 20 22 23 26 30 31 28 28 26 23 24
92 87 82 78 73 69 65 61 57 54 53 52 49 44 39 35 30 27 23 20 17 18 18 19 19 21 16 15 15 14 13 12 12 13 13 13 14 17 21 24 25 25 25 24 22 24 25
88 82 77 73 70 66 61 56 53 51 51 50 48 44 40 35 32 29 24 21 19 18 18 19 18 18 16 17 19 19 18 18 19 20 20 20 20 20 22 23 24 24 24 24 25 27 25
85 79 75 72 67 63 59 54 50 49 49 49 48 44 39 37 31 26 25 25 22 19 19 18 20 20 18 20 23 24 24 24 24 24 24 22 19 20 22 23 25 25 26 27 28 30 30
84 78 74 71 66 62 58 54 50 49 47 47 47 44 39 36 36 30 25 24 26 25 18 20 20 23 22 22 26 28 27 25 24 22 22 24 23 20 22 24 26 26 27 29 30 32 34
82 78 74 71 67 62 57 54 50 48 46 45 46 45 41 36 34 34 29 27 26 26 24 23 23 23 27 27 28 31 29 26 26 27 27 24 20 21 22 23 26 27 29 30 34 33 36

GFSGBSN_250_spd_039.txt.gz
Wind_Speed
89 94 95 97 98 100 103 106 104 105 106 104 98 93 89 83 72 59 51 49 48 47 45 47 49 59 73 80 82 89 91 100 110 116 119 122 122 121 116 111 106 100 96 94 96 94 91
91 96 96 99 101 102 105 107 107 108 108 103 97 91 87 80 68 56 47 44 41 38 38 39 44 52 66 72 81 86 87 92 103 112 118 119 125 123 120 115 110 105 102 99 99 95 92
95 98 98 101 103 104 105 109 109 110 110 103 99 93 86 77 67 54 42 35 33 32 33 32 39 47 54 66 79 83 82 87 97 108 116 118 125 124 121 118 114 108 104 100 99 96 91
96 99 101 104 106 106 107 109 109 112 111 105 100 92 87 77 66 50 38 30 27 28 29 29 37 44 52 67 75 81 87 88 94 102 112 116 119 127 123 119 116 110 105 99 97 95 93
97 100 102 105 107 107 109 109 109 113 111 104 101 94 86 75 61 47 39 32 27 25 25 28 33 44 51 67 73 79 75 80 90 99 107 115 116 121 121 116 114 111 104 101 94 96 96
99 101 104 105 107 109 111 110 110 112 109 103 99 93 84 73 60 46 40 32 23 18 19 26 30 44 53 65 71 72 73 79 89 98 104 112 114 113 117 113 107 106 104 101 101 98 94
101 103 108 106 108 110 112 111 109 112 108 102 99 92 83 70 57 46 37 27 16 5 9 22 37 51 55 61 64 65 68 78 87 94 98 101 107 103 113 103 99 102 106 106 103 97 89
102 105 107 107 109 112 112 111 109 112 108 101 97 91 83 69 55 46 36 27 11 6 18 28 39 44 49 57 60 60 65 74 82 88 92 96 100 104 111 106 97 95 101 100 101 98 96
104 106 107 108 111 112 113 112 109 112 107 101 97 90 83 68 54 47 35 26 14 6 16 26 32 39 48 56 57 60 67 71 74 82 85 91 94 103 104 105 92 87 83 89 91 94 94
103 105 107 108 113 113 112 111 110 113 107 102 97 89 83 70 57 47 37 26 20 11 10 19 30 40 48 55 53 56 63 68 75 76 80 85 91 97 98 104 99 88 83 82 86 85 84
105 106 107 109 111 113 111 110 110 112 106 101 98 91 85 69 59 50 35 26 25 20 8 18 29 38 48 49 49 55 58 64 71 76 81 84 87 92 100 98 105 96 87 84 75 72 72
108 107 105 109 110 110 111 109 109 110 104 99 96 91 83 71 59 54 40 29 30 21 13 13 25 35 39 40 44 47 47 55 66 74 75 74 78 84 89 95 97 105 95 89 85 77 73
107 107 107 109 108 109 110 108 106 105 101 94 91 88 82 74 64 58 47 31 26 26 20 11 22 26 29 35 37 39 44 48 57 67 67 69 73 76 80 87 92 95 95 95 91 87 81
103 106 106 107 105 108 109 106 104 101 94 88 84 81 77 72 65 59 52 36 26 24 21 17 18 21 26 30 32 34 37 42 52 58 61 66 66 67 72 79 82 87 89 88 86 88 87
102 105 106 106 105 108 108 104 100 98 89 81 77 75 72 67 61 56 49 39 24 16 15 20 20 21 24 23 24 29 33 37 43 48 56 60 60 60 64 70 74 80 83 86 84 87 87
104 102 104 104 106 108 105 99 94 90 83 76 70 68 66 62 56 50 45 38 25 17 12 11 9 16 16 16 19 23 29 34 37 43 48 54 58 57 58 63 68 72 76 76 79 82 83
104 101 99 101 105 105 99 93 89 83 78 73 64 62 61 57 51 43 41 35 24 16 14 13 14 9 10 8 7 13 19 23 30 35 42 46 53 54 56 57 59 63 65 67 68 72 77
101 99 96 97 100 100 92 87 82 77 72 69 64 57 54 51 46 40 36 31 23 15 13 14 15 14 13 11 11 11 13 19 21 25 28 36 44 51 56 60 61 60 59 65 64 67 72
100 97 96 96 96 93 87 81 78 72 68 62 60 56 50 45 41 34 29 26 20 16 11 9 10 10 11 11 9 8 9 10 15 22 27 32 36 41 47 51 54 60 60 57 56 59 63
99 98 97 96 94 88 83 77 73 69 66 58 55 51 47 43 38 33 25 20 18 14 10 9 6 6 6 5 3 0 4 9 13 17 22 28 36 43 47 50 53 55 60 62 61 58 58
100 99 98 96 92 83 79 73 70 65 61 57 52 48 43 41 36 33 26 17 11 10 9 6 4 3 2 1 3 8 10 13 15 17 20 23 27 33 40 48 53 56 61 65 64 57 57
101 99 98 95 88 80 75 72 66 61 58 54 51 49 44 38 34 30 27 21 14 9 6 6 9 9 8 8 9 7 10 10 16 19 22 24 25 26 32 36 42 48 51 51 52 58 59
101 98 97 93 85 76 71 68 63 58 54 51 50 46 44 41 35 30 25 23 17 11 10 9 9 10 11 11 12 7 5 7 9 14 19 24 26 26 26 28 34 38 41 43 43 41 43
101 96 93 88 81 73 69 65 61 56 52 49 46 44 41 39 36 32 27 22 21 17 12 12 13 12 14 13 11 7 4 6 6 7 9 16 22 25 26 27 29 32 33 32 30 31 31
97 92 89 83 77 72 67 63 59 55 51 48 44 43 39 37 34 31 29 26 23 19 17 14 14 14 14 13 12 10 8 7 7 7 6 5 9 16 20 24 25 29 31 28 27 29 31
91 88 84 78 74 71 66 62 58 53 50 46 43 41 39 35 33 29 28 27 23 22 20 17 14 14 15 12 12 13 13 13 12 11 10 9 8 7 13 18 23 28 29 30 33 31 31
85 83 79 75 72 68 64 59 55 52 48 45 43 40 40 35 31 29 26 26 26 24 21 21 21 17 16 17 14 16 18 20 19 18 17 16 15 14 14 15 19 24 27 28 30 30 29
80 80 76 72 70 66 60 56 54 50 48 44 42 40 40 35 33 27 25 24 24 25 26 24 21 20 19 19 21 19 23 25 25 23 22 23 23 23 23 25 26 27 27 27 28 27 26
77 75 75 70 67 63 58 54 52 48 47 44 41 40 41 37 33 31 25 24 22 23 25 27 26 22 23 22 23 25 27 28 29 26 25 24 23 24 27 25 27 26 25 22 25 27 27

GFSGBSN_250_spd_042.txt.gz
Wind_Speed
82 86 89 91 92 94 96 96 96 95 95 98 95 90 87 80 71 61 50 42 39 38 41 43 47 50 65 82 86 93 94 96 103 112 120 128 127 125 120 118 113 107 101 101 104 104 100
86 89 91 92 94 95 97 97 97 98 97 97 94 92 88 81 70 58 48 40 34 32 35 37 41 45 56 74 86 91 95 94 97 107 117 123 128 127 124 120 117 111 107 105 105 105 101
88 89 90 94 95 96 97 98 99 98 99 99 94 91 88 81 69 57 47 35 28 27 28 27 31 39 52 69 81 88 92 93 94 101 113 119 127 130 124 121 121 116 112 109 108 106 102
91 91 94 94 96 97 98 98 100 102 101 100 96 92 87 79 66 53 45 33 23 21 22 22 28 38 53 65 77 86 87 90 91 96 105 114 120 128 128 124 123 120 115 111 110 106 102
91 94 96 97 98 98 99 100 103 102 101 101 98 95 88 78 63 53 43 33 23 15 17 23 29 40 50 62 73 79 80 85 89 92 96 106 115 118 128 125 123 122 118 113 109 105 101
96 98 98 100 100 100 100 102 105 104 102 101 97 94 88 78 63 53 43 33 21 11 12 24 33 38 50 59 65 72 76 79 86 88 90 99 107 116 119 127 121 115 118 114 111 107 102
97 100 99 102 102 102 102 103 106 105 103 102 98 94 87 79 64 53 43 31 22 12 9 23 34 43 51 54 61 67 68 70 80 84 86 91 99 104 113 119 127 117 117 118 116 111 107
98 102 102 104 105 104 104 106 107 105 103 101 98 93 88 81 66 55 42 30 23 11 8 23 32 38 41 48 56 63 68 73 80 79 82 85 88 96 107 115 118 120 112 116 116 112 107
98 101 102 104 107 105 105 108 107 104 102 100 98 93 87 81 68 57 44 32 27 21 7 17 28 32 39 45 53 58 60 65 67 72 77 80 83 89 101 111 110 116 110 109 116 113 109
99 99 101 103 106 105 105 108 105 101 99 98 96 92 87 80 69 57 45 34 31 27 17 14 24 32 39 45 49 55 59 63 66 69 70 73 76 81 94 104 110 110 108 97 104 113 108
97 99 101 102 104 106 103 106 104 98 95 94 93 88 85 81 71 59 50 40 33 29 23 15 20 27 37 44 48 52 56 57 58 61 63 66 70 75 87 96 106 103 107 101 93 100 107
96 99 103 103 104 105 103 102 100 96 92 89 88 85 82 77 71 63 53 47 35 35 27 14 17 26 35 39 42 48 49 53 57 58 58 62 68 73 81 90 96 103 103 101 94 88 93
94 98 100 104 104 104 103 101 95 91 87 84 82 81 78 76 71 64 54 47 45 36 29 24 17 14 20 29 33 37 40 39 45 48 52 58 59 66 76 86 91 97 99 101 95 87 75
96 98 102 102 103 103 102 99 92 88 84 80 77 75 73 70 66 61 54 48 47 35 24 20 20 19 19 16 18 24 31 38 40 42 43 44 51 61 70 78 85 91 96 93 96 86 79
95 101 100 102 103 102 99 95 89 84 79 76 70 68 67 64 63 58 49 48 40 30 25 21 13 12 19 20 21 22 26 33 35 37 39 40 42 52 59 66 73 79 87 91 91 89 81
97 100 100 101 104 99 95 91 85 79 76 70 66 61 60 60 55 52 45 41 37 31 22 17 14 12 11 12 14 18 24 29 31 32 36 36 39 40 49 57 65 68 75 86 89 94 89
101 100 102 102 102 98 91 87 81 75 73 69 62 57 53 53 52 47 41 39 34 31 26 18 14 13 15 18 18 18 18 21 25 28 31 33 35 39 43 49 55 61 66 75 83 88 92
103 102 101 103 100 95 88 84 77 73 68 66 61 54 50 48 46 43 39 33 30 29 27 22 17 13 11 14 15 18 20 20 22 25 28 31 33 35 38 45 50 55 60 69 76 82 85
97 96 100 99 96 92 86 80 76 71 66 63 58 55 46 42 40 37 33 29 25 23 20 19 17 15 14 11 10 12 17 21 22 23 25 27 31 33 35 41 46 49 54 59 64 69 74
90 92 92 97 93 90 81 78 72 69 65 60 57 51 46 41 37 36 31 26 18 14 13 13 11 11 11 10 8 7 3 6 14 21 25 26 26 29 33 37 43 45 47 52 60 64 67
87 87 87 91 88 84 78 75 69 66 64 58 55 49 44 38 35 32 29 25 20 11 7 5 6 5 4 3 4 7 6 7 9 12 17 23 27 30 32 34 38 43 47 50 54 56 58
86 85 85 85 84 81 75 73 69 64 62 56 52 50 44 38 33 29 27 23 19 16 8 5 4 4 2 3 4 8 10 11 13 16 17 20 23 27 30 33 38 41 42 44 45 47 49
87 85 82 81 81 78 73 70 68 62 59 54 50 48 42 41 34 28 25 23 20 16 13 9 9 8 7 7 8 6 8 9 9 13 18 22 23 24 25 28 32 38 44 46 48 50 51
87 85 79 76 78 75 70 68 65 60 55 53 48 45 42 39 36 32 24 21 20 17 14 12 11 12 13 8 7 8 8 9 8 8 13 19 22 24 25 26 28 33 36 41 46 46 48
91 85 78 74 74 74 69 65 63 58 54 50 47 43 41 39 36 32 30 25 20 17 15 15 14 12 14 14 11 10 12 11 10 10 9 10 16 22 26 27 26 28 33 36 36 37 36
97 86 78 72 71 69 67 62 61 56 53 48 45 43 40 38 35 33 30 26 22 21 20 16 12 14 15 14 16 15 14 15 14 11 10 10 10 11 18 23 27 28 29 33 34 30 31
95 92 82 74 71 68 64 61 60 57 51 48 44 41 40 38 35 33 31 27 24 23 23 19 17 16 13 16 17 18 18 20 19 16 14 13 12 11 11 16 22 27 30 33 33 37 37
97 88 80 74 70 68 64 62 59 54 49 46 43 40 38 39 36 34 30 27 25 24 24 24 21 17 18 15 16 20 22 24 25 23 20 19 18 16 15 15 16 23 28 32 36 38 38
94 85 80 74 71 66 64 60 56 53 49 45 42 40 38 38 38 35 30 28 25 25 24 26 25 23 21 19 18 19 25 28 30 30 27 24 23 24 24 22 23 22 24 28 32 35 33

GFSGBSN_250_spd_045.txt.gz
Wind_Speed
80 85 90 91 91 93 93 90 89 94 91 87 84 82 77 76 72 64 55 48 39 35 36 42 47 61 74 87 89 88 95 94 99 108 113 122 129 133 129 124 120 113 111 108 101 101 101
83 87 90 92 93 95 94 92 89 95 92 89 86 85 81 79 74 62 52 43 35 29 31 34 39 51 66 79 90 91 93 92 96 104 112 118 125 134 134 129 122 116 113 110 107 107 103
84 90 95 94 94 95 94 93 91 95 93 90 90 87 84 80 75 63 50 38 30 25 27 29 32 42 59 74 83 91 94 91 93 101 108 115 123 132 134 132 125 121 117 114 111 110 106
86 94 95 97 96 96 95 94 93 95 93 91 91 89 86 83 77 65 51 43 30 21 22 25 30 38 54 64 75 90 95 94 91 99 105 111 118 126 135 133 129 123 121 117 114 113 108
89 95 98 97 98 97 96 95 97 96 94 91 92 89 86 83 78 64 52 43 31 18 14 23 31 36 45 56 71 86 95 92 91 96 100 105 110 117 130 133 132 128 121 119 118 114 110
92 97 97 99 99 98 97 98 99 99 95 91 91 90 87 82 77 63 54 42 27 15 6 18 27 33 45 59 68 79 87 89 91 90 95 99 104 111 118 133 129 124 121 121 119 116 110
92 97 100 100 100 99 99 100 99 99 96 91 91 90 85 82 77 64 52 39 26 18 6 12 26 34 47 56 63 74 79 83 87 84 88 93 97 103 110 116 131 127 126 122 123 117 113
93 97 103 102 99 99 99 102 99 98 96 93 91 91 85 81 77 65 52 37 27 23 12 7 20 26 36 48 58 64 68 76 79 80 82 86 89 95 103 113 121 130 124 121 122 118 116
94 98 102 104 103 99 100 102 99 96 93 93 91 91 87 82 79 68 54 37 27 28 16 9 17 24 34 45 51 55 61 67 72 73 77 81 84 85 89 103 109 120 127 122 122 118 117
94 99 104 106 105 104 101 100 97 94 90 91 90 89 87 82 79 72 56 41 29 32 22 10 14 19 28 39 48 55 60 63 66 69 72 74 79 79 82 94 104 112 123 125 121 121 119
95 98 102 107 105 106 103 100 96 92 87 88 89 87 85 81 77 70 58 42 33 35 26 16 15 19 27 37 42 50 56 61 64 66 67 67 70 72 74 83 94 107 113 122 124 121 120
94 94 100 106 105 106 103 99 94 88 85 84 85 86 83 78 74 69 62 43 40 36 27 21 13 18 23 34 43 47 48 51 54 59 60 61 66 68 68 74 82 96 107 112 119 121 119
92 92 98 103 103 104 100 95 90 86 82 81 81 81 80 74 71 68 62 49 46 42 31 24 18 12 17 22 27 34 44 50 50 50 51 54 60 61 64 68 75 88 99 106 110 117 118
87 93 96 98 98 100 98 92 87 83 80 78 77 75 74 71 67 64 60 52 45 36 34 26 22 19 14 13 16 22 25 27 32 33 37 44 48 53 57 60 69 79 90 98 103 106 107
85 92 101 94 94 97 95 92 85 81 77 76 73 72 69 66 62 58 54 48 41 34 28 24 20 15 15 14 14 14 16 18 21 23 28 33 38 44 49 54 62 70 79 87 93 98 100
85 90 97 95 92 92 95 92 86 79 75 73 72 66 65 63 59 54 49 44 36 31 25 20 15 14 10 8 7 11 14 17 19 22 23 26 31 35 40 47 55 63 72 79 87 92 96
81 87 94 96 93 93 93 91 87 79 74 70 68 64 59 56 55 51 47 40 34 27 24 16 11 7 6 9 12 12 12 13 15 17 18 20 23 28 34 42 49 56 64 73 82 87 93
79 86 91 89 97 90 91 89 86 79 72 70 64 61 56 52 49 47 44 40 33 28 22 20 13 6 5 1 6 12 14 16 16 17 18 20 21 24 29 33 42 51 60 68 74 79 84
82 85 88 88 93 100 96 88 84 78 71 68 64 58 53 48 44 42 40 36 31 25 18 14 13 10 7 2 3 5 9 13 17 19 20 20 22 24 28 33 38 43 53 60 67 74 78
81 84 93 87 100 99 97 90 82 78 70 66 64 58 52 47 42 37 36 34 28 25 18 13 8 6 6 8 8 4 3 9 12 15 19 21 24 25 27 33 40 47 50 55 62 64 70
82 87 88 89 91 99 95 87 83 77 71 65 61 58 52 45 41 36 32 29 27 22 19 14 10 5 4 2 3 4 6 8 10 13 17 20 22 24 26 29 34 43 50 52 54 61 59
81 85 90 89 86 98 101 89 81 75 68 65 60 57 53 45 39 35 33 29 26 21 19 16 14 12 10 9 9 10 8 10 14 15 15 16 19 23 25 26 32 36 45 50 52 54 60
87 88 87 84 85 92 101 85 78 74 66 63 60 59 53 48 40 34 30 29 27 24 19 16 16 16 15 15 14 14 14 14 13 14 17 21 21 20 22 24 26 30 37 43 48 51 53
86 89 93 89 88 95 92 83 75 72 65 61 59 57 53 49 43 37 30 25 26 25 21 18 16 16 17 19 19 17 17 16 16 16 17 19 23 24 23 22 24 29 32 35 39 40 44
90 94 96 90 93 91 86 83 73 71 64 60 57 53 50 49 44 38 34 28 23 23 23 20 17 16 17 18 20 21 19 19 18 16 15 16 19 23 26 26 27 27 29 34 37 40 41
96 98 95 90 92 90 87 87 75 69 62 57 56 51 48 47 45 39 35 33 29 24 21 20 18 18 18 18 18 20 21 20 21 18 15 15 16 20 24 28 29 30 29 29 35 37 40
98 100 97 90 95 94 85 86 74 67 63 58 55 51 47 45 45 40 36 34 32 29 26 22 20 18 17 18 19 19 21 22 23 22 19 17 15 15 21 26 30 31 31 30 30 37 36
100 100 93 97 97 88 86 82 73 65 62 58 54 49 47 45 44 40 37 34 33 30 29 26 24 22 20 18 18 20 21 24 25 26 26 24 22 18 16 19 22 27 30 31 33 35 36
109 102 96 96 95 94 88 80 71 63 59 56 53 49 47 46 46 42 38 36 34 32 29 29 26 25 26 23 21 21 23 25 28 29 30 30 28 26 23 20 20 18 23 28 34 37 39

GFSGBSN_250_spd_048.txt.gz
Wind_Speed
82 86 90 96 97 96 94 96 96 94 91 87 83 79 78 73 72 68 57 47 38 32 34 37 39 48 61 78 85 87 88 90 95 100 106 113 121 127 129 126 123 116 113 113 113 104 96
84 88 92 97 102 101 98 98 98 96 90 87 83 82 80 76 75 70 58 48 37 30 29 32 36 42 57 75 84 87 88 92 93 98 104 110 116 125 132 131 126 120 119 116 115 103 102
88 90 94 98 104 105 101 101 101 99 94 87 85 83 83 80 78 73 58 49 38 32 25 26 30 38 48 67 80 86 89 92 94 99 103 108 114 122 130 133 129 127 124 119 111 106 107
89 92 94 100 103 107 106 102 106 103 98 91 86 85 85 82 81 76 62 52 44 34 23 21 25 35 47 59 77 89 90 91 93 98 102 106 113 119 127 132 132 129 128 122 114 110 108
90 91 96 99 103 106 108 107 106 103 100 94 88 85 84 82 80 75 64 56 46 33 21 16 21 31 42 55 71 83 90 89 91 96 100 103 107 114 122 129 134 132 129 123 119 113 112
91 92 98 98 102 106 110 108 106 104 101 96 91 87 85 82 81 77 67 58 46 30 14 8 14 26 40 52 61 78 87 92 91 94 95 99 103 109 115 123 130 131 129 125 121 118 115
90 93 100 99 103 106 108 108 106 103 100 97 93 89 87 83 82 79 70 60 46 27 17 6 8 20 30 42 54 73 82 89 91 92 90 94 97 99 107 114 123 134 134 129 126 120 119
90 93 99 100 101 105 107 108 106 102 100 96 94 91 89 86 83 80 72 60 41 27 24 14 6 16 27 37 48 63 71 82 89 89 87 84 89 95 100 110 117 127 132 129 128 119 118
88 91 97 98 106 104 106 107 105 100 98 96 95 92 90 85 81 81 75 66 46 31 26 18 8 7 21 35 45 56 61 70 82 84 82 80 83 87 91 100 108 113 126 131 127 121 120
88 92 94 94 100 102 103 105 104 101 97 97 95 92 89 87 81 79 75 67 49 36 27 20 13 11 17 27 34 39 49 60 70 79 79 76 76 75 81 87 100 103 114 126 125 124 124
89 90 93 91 98 99 101 101 101 99 97 95 94 92 89 86 80 74 70 64 50 38 26 22 17 12 16 25 33 38 50 58 62 69 72 72 72 70 72 80 89 96 103 113 121 128 125
88 87 92 86 97 94 97 99 97 96 94 93 92 91 87 84 80 74 70 64 55 42 30 27 22 15 9 18 30 40 46 50 52 57 62 66 67 66 66 73 78 82 94 106 114 124 125
86 86 90 90 93 100 93 94 93 92 91 90 89 88 84 82 79 72 68 64 57 42 33 26 21 18 10 8 20 30 38 43 48 50 53 56 58 60 63 64 69 74 83 95 108 114 122
84 85 89 93 91 98 96 91 92 90 88 86 86 84 81 77 73 70 65 61 55 43 33 26 23 19 16 11 7 10 21 29 33 37 41 45 48 51 53 56 63 69 77 86 93 103 108
82 83 85 92 89 94 95 94 90 88 87 85 82 80 78 73 70 64 59 56 51 44 35 27 21 19 17 14 13 8 4 4 9 20 24 31 36 41 46 50 56 62 66 73 82 91 98
81 83 84 85 89 93 98 97 93 89 87 85 81 77 73 71 65 61 55 51 49 44 35 26 20 16 13 12 9 8 6 6 8 10 13 19 25 33 38 44 48 56 62 65 70 79 88
81 82 83 84 86 94 96 99 94 89 84 82 79 75 70 67 63 57 51 47 43 39 36 28 20 15 12 8 5 5 7 8 10 10 13 15 20 25 30 36 44 48 54 59 65 70 80
81 82 84 84 87 88 100 98 94 92 91 82 77 74 68 62 60 54 49 42 39 36 34 31 23 15 9 6 3 0 3 7 9 13 15 16 18 22 26 32 38 44 49 55 59 65 73
81 84 86 86 84 87 96 102 96 91 90 81 78 74 68 60 57 52 47 42 35 31 27 23 22 18 13 7 3 2 4 5 6 8 13 16 18 21 25 27 34 40 47 53 56 62 67
82 83 86 85 81 90 94 106 107 100 88 81 76 72 68 60 55 49 44 40 36 32 28 24 18 15 13 10 5 2 1 4 7 9 12 14 16 20 24 29 31 34 41 47 51 56 63
83 84 85 83 81 88 98 100 105 97 88 79 75 71 66 59 54 47 43 38 35 31 27 23 20 17 12 10 9 8 7 6 5 7 11 13 15 19 23 27 33 38 41 44 51 57 60
84 85 85 83 84 90 93 105 102 97 88 76 75 68 64 60 52 47 42 37 33 30 28 26 21 18 17 16 12 12 12 10 12 12 11 11 12 15 18 24 30 35 40 45 49 55 59
87 89 87 88 84 90 98 105 96 97 88 77 75 67 62 60 52 46 41 38 32 29 26 25 23 19 18 18 17 16 16 15 14 16 18 18 17 16 19 20 22 31 38 43 47 51 53
89 89 87 90 86 88 95 103 96 97 86 80 73 68 61 58 51 44 39 37 34 30 26 23 23 21 18 18 18 18 19 18 18 17 19 20 21 22 22 21 24 28 28 35 41 47 51
91 91 90 90 87 93 96 99 97 91 83 79 72 69 61 55 50 45 39 34 32 32 29 25 23 23 19 18 18 18 20 20 18 19 20 20 21 22 25 26 25 24 26 29 32 41 48
91 95 93 90 90 94 95 98 90 92 81 75 73 66 61 53 48 46 41 34 32 31 27 25 23 24 23 20 19 19 19 19 19 18 20 21 21 19 20 26 29 28 26 27 29 33 38
96 95 96 89 91 94 92 94 92 91 79 72 73 66 59 52 48 44 42 38 35 33 30 25 22 22 23 21 21 20 20 20 20 18 19 23 24 21 19 22 28 29 29 28 29 31 34
100 98 99 93 92 93 93 94 90 83 77 74 68 66 59 53 47 43 40 39 37 35 36 29 25 22 23 22 22 22 22 21 21 20 19 22 25 24 22 21 21 28 30 32 33 32 32
101 99 99 94 98 97 94 93 85 84 80 71 68 67 56 51 47 41 38 37 36 36 38 33 28 24 26 25 24 23 23 23 23 24 23 23 26 29 27 25 21 21 26 33 35 36 35

GFSGBSN_250_spd_051.txt.gz
Wind_Speed
78 80 86 93 98 102 104 104 104 100 95 93 87 80 77 74 71 69 64 54 39 29 27 33 38 37 46 58 71 78 81 84 88 95 97 101 105 113 117 123 124 121 116 114 113 110 105
79 80 87 95 100 105 107 106 106 104 98 97 89 83 79 77 74 72 68 55 43 35 26 24 30 34 42 56 69 77 81 80 85 92 96 99 104 111 118 125 125 122 123 121 116 108 110
79 82 86 95 100 106 109 109 109 106 103 99 93 86 81 79 76 75 70 59 52 46 34 21 21 28 41 55 64 77 82 85 87 91 95 99 104 109 115 126 128 125 127 123 119 112 110
79 83 88 94 97 104 110 110 110 109 106 102 98 89 84 82 79 77 72 63 58 51 37 22 14 23 34 48 63 78 80 84 85 88 94 101 103 108 112 120 128 127 126 125 120 115 112
78 84 90 93 98 102 108 111 112 112 111 106 103 93 87 85 82 79 75 66 59 47 34 21 6 14 31 43 59 71 80 87 91 88 94 99 100 103 109 115 123 128 126 124 123 117 116
78 84 90 95 96 100 106 110 112 114 114 110 108 97 90 88 85 81 77 70 61 45 32 20 4 10 24 40 52 62 75 85 85 86 92 96 98 101 106 112 116 124 125 126 124 120 120
78 82 87 93 97 98 102 108 112 115 113 113 108 101 93 90 89 84 79 72 62 43 33 23 12 8 20 36 45 60 74 81 84 87 87 87 91 95 101 110 117 125 133 131 129 125 122
76 81 86 90 94 99 103 106 111 112 113 111 108 104 94 90 88 86 82 75 64 49 34 25 17 7 17 28 37 51 70 81 86 90 83 82 88 92 99 106 113 120 131 131 129 127 124
75 80 85 89 93 97 103 105 108 111 112 111 107 106 97 90 88 84 80 77 69 56 42 30 19 10 10 23 31 48 65 78 83 82 71 76 83 88 92 99 106 113 121 133 131 127 124
74 78 84 88 93 95 101 100 106 108 109 109 107 105 98 91 86 82 78 73 68 60 49 32 25 13 6 16 26 35 51 67 76 75 75 70 74 80 86 92 96 105 113 126 133 130 126
72 77 83 85 91 94 98 101 101 104 108 107 107 102 98 92 86 84 79 72 67 63 52 36 28 22 9 12 17 26 29 65 72 68 64 67 67 70 76 81 86 93 101 111 127 132 128
71 77 80 84 91 94 92 100 100 102 105 104 103 102 97 90 85 81 77 72 68 64 53 44 27 26 18 9 21 30 37 46 57 63 69 70 68 65 65 68 73 79 90 102 111 122 131
72 76 80 83 86 90 89 92 100 99 103 104 99 97 94 88 82 79 75 68 65 59 54 45 33 22 24 15 9 24 38 50 57 59 64 63 59 57 58 59 62 70 83 91 99 108 114
73 76 80 81 86 87 88 94 97 96 99 104 97 95 91 85 78 73 71 65 58 54 50 44 34 23 19 21 10 10 23 35 39 45 50 52 55 56 57 57 58 62 70 81 88 96 105
71 76 79 81 84 86 83 92 92 97 100 100 98 92 87 82 77 69 66 62 55 51 46 41 31 23 15 14 19 15 10 21 25 30 34 39 41 45 49 52 55 58 62 71 78 84 94
71 77 79 81 84 84 85 87 91 97 100 102 96 90 88 80 75 68 61 58 53 47 44 40 35 25 17 12 14 20 20 22 22 19 25 28 33 38 40 43 47 52 58 63 69 75 80
70 76 78 81 81 82 81 86 90 95 98 101 97 91 88 79 71 66 58 54 49 45 41 37 34 29 21 13 9 9 14 14 16 19 22 20 20 27 34 39 44 47 52 59 62 67 72
72 74 77 79 80 80 83 83 92 96 95 102 94 90 87 79 72 65 57 49 47 42 37 34 31 27 22 16 9 5 6 8 13 17 19 21 25 26 30 35 39 43 48 52 55 62 66
75 75 76 78 78 77 82 82 90 93 99 101 97 88 84 77 71 62 56 47 42 39 35 31 27 25 21 17 12 5 1 6 9 12 15 19 22 24 28 33 36 40 45 51 54 59 63
76 76 76 76 75 78 82 86 86 91 96 99 100 89 82 77 69 62 57 46 39 36 33 29 26 22 20 18 14 11 5 2 6 10 14 17 20 22 26 30 33 35 40 44 49 54 59
75 76 76 74 77 80 85 89 89 90 97 96 95 91 84 78 68 60 56 49 37 35 31 26 23 21 19 16 16 13 11 7 5 5 10 13 15 21 24 27 30 33 36 41 46 51 54
76 77 76 76 77 82 84 85 90 92 95 96 90 90 83 77 69 60 54 49 39 32 30 27 23 19 17 15 11 11 12 12 10 10 9 10 14 16 20 23 27 33 39 43 46 50 53
76 78 79 79 82 84 85 86 91 91 94 95 91 91 79 79 68 62 51 47 41 30 27 25 22 19 18 16 15 12 13 13 14 13 14 13 14 15 19 22 25 31 33 37 41 46 50
78 79 80 81 82 85 87 88 90 89 89 90 96 97 82 77 65 59 51 44 40 33 26 24 21 20 17 16 17 16 15 14 14 15 14 14 16 17 17 18 24 30 29 33 36 40 43
78 82 83 85 86 88 88 89 87 93 93 93 94 100 87 80 72 60 44 41 37 34 27 24 22 19 18 17 18 18 18 16 16 16 17 16 17 19 20 21 23 22 25 31 34 37 39
81 84 85 86 88 89 91 89 89 89 92 88 103 93 85 79 73 62 44 38 36 31 29 26 22 20 19 18 17 17 18 18 17 17 18 19 18 19 20 21 24 23 24 26 31 32 35
85 86 88 89 91 93 93 93 90 91 90 89 100 93 84 78 76 61 44 37 35 31 28 26 24 21 21 20 20 17 17 18 18 17 18 20 20 19 20 20 20 21 26 28 29 31 33
89 88 91 93 95 97 95 93 93 88 91 100 107 91 85 78 75 53 39 35 33 30 28 25 23 21 21 21 20 19 19 19 19 17 18 20 22 21 22 21 18 18 23 28 29 29 30
93 93 93 95 98 100 97 95 96 90 93 102 106 94 80 75 73 54 40 34 31 30 28 25 23 21 22 21 21 21 20 20 20 19 19 20 21 22 24 26 22 21 20 22 28 31 32

GFSGBSN_250_spd_054.txt.gz
Wind_Speed
73 75 78 81 84 88 93 101 104 102 100 101 103 89 81 74 70 67 64 60 49 34 24 22 32 37 35 45 65 75 75 77 81 89 95 97 97 102 108 112 115 116 118 117 117 111 107
72 74 77 80 83 89 95 102 105 106 103 104 105 97 85 76 73 71 68 64 53 42 32 23 21 30 33 44 60 71 75 79 84 83 92 94 95 102 106 113 117 119 119 120 117 112 110
71 74 77 81 86 90 93 100 108 109 107 107 110 106 91 81 78 74 71 65 55 46 38 26 15 20 29 44 54 67 74 79 84 84 88 94 97 100 103 110 119 122 121 120 118 114 111
73 74 77 81 87 90 96 97 109 112 111 109 112 109 97 88 81 77 73 69 59 47 39 28 12 14 27 38 51 61 71 77 83 83 86 93 96 99 103 108 117 123 122 118 118 119 116
72 74 78 82 84 90 97 101 106 111 113 113 112 112 102 93 83 78 76 72 64 48 39 31 14 8 19 33 44 59 68 74 81 84 85 90 93 95 100 104 111 118 121 116 119 120 118
71 73 78 81 84 90 97 102 104 109 114 115 113 112 107 96 88 83 75 72 66 51 42 33 21 4 14 29 42 55 64 71 81 83 84 86 88 92 95 98 104 113 120 121 121 122 120
69 74 76 80 83 89 95 101 104 108 112 114 114 115 108 102 92 86 80 72 67 53 46 35 26 9 8 23 36 49 61 67 78 82 81 79 82 86 92 96 102 114 123 128 124 123 124
68 72 76 78 83 88 93 98 100 104 110 112 113 112 109 101 94 88 80 75 69 59 50 37 27 18 5 14 29 46 58 70 77 78 78 77 79 85 92 96 100 109 116 128 127 127 125
66 71 74 78 82 87 91 93 98 102 104 108 111 110 108 102 95 88 80 75 67 62 55 42 28 21 9 11 26 43 56 67 75 80 78 78 79 83 88 92 95 102 112 125 128 128 125
63 68 72 75 81 85 91 88 93 100 101 107 108 108 106 102 97 90 82 75 71 62 58 46 31 23 13 7 16 33 56 66 70 74 74 75 73 77 83 88 92 96 104 113 130 127 125
61 65 70 72 78 83 89 88 90 100 97 102 106 105 102 100 96 89 82 75 69 63 58 49 36 25 15 12 9 15 37 49 62 64 63 64 65 71 76 83 87 92 99 107 120 134 128
59 64 69 71 76 81 88 87 89 92 95 98 104 105 101 98 94 89 80 74 67 62 56 50 41 25 19 11 13 17 34 47 49 54 53 60 62 62 68 73 80 85 89 98 106 121 130
57 62 66 70 74 79 85 84 88 93 96 97 102 102 101 97 91 87 78 71 64 58 54 48 40 30 18 13 13 18 25 24 26 31 41 41 47 49 55 61 68 75 80 86 94 101 112
56 60 64 68 73 77 83 82 87 88 91 94 97 101 99 95 92 85 78 69 62 56 49 45 40 32 19 15 8 11 21 27 22 20 31 38 43 47 46 50 51 57 66 77 86 91 103
56 59 62 67 70 75 79 80 83 88 91 92 94 99 97 95 93 83 78 67 60 52 46 41 38 31 23 13 15 8 16 24 22 23 33 37 44 44 44 46 47 51 53 64 75 86 94
57 59 61 65 67 73 78 81 82 86 87 91 96 97 96 95 90 86 77 68 57 50 43 37 32 30 22 14 4 11 19 19 22 27 31 34 39 41 41 41 40 45 55 58 67 75 86
57 59 62 62 67 71 76 79 80 84 88 87 96 98 97 97 92 86 76 68 57 48 43 37 28 24 20 12 6 3 12 22 28 31 32 34 39 39 38 40 42 41 46 53 63 66 74
58 58 62 62 66 70 74 77 76 80 85 89 94 94 98 100 98 83 76 66 58 48 40 34 29 22 16 12 3 1 9 13 19 26 34 33 33 33 36 38 39 42 47 54 61 65 69
59 59 62 64 66 69 73 75 76 79 83 91 88 97 97 98 99 88 77 66 58 45 38 32 28 22 16 12 8 4 7 12 17 21 25 29 32 31 33 35 38 41 45 51 56 61 65
59 59 62 64 66 68 71 73 75 80 84 86 85 95 98 93 94 90 82 72 57 46 34 29 25 22 16 11 7 4 3 5 12 14 19 23 25 28 29 30 32 36 38 42 48 52 58
58 60 62 63 68 69 71 75 75 78 85 90 86 95 106 89 97 92 80 72 58 47 36 25 22 20 17 11 8 4 2 3 4 10 16 19 22 25 28 30 32 34 37 39 42 46 50
57 60 65 65 67 69 72 76 78 79 85 89 85 94 104 98 92 95 82 74 58 46 38 29 20 18 17 12 9 8 6 5 6 7 8 12 20 24 26 27 29 32 37 39 41 42 44
58 62 65 67 70 70 72 76 81 82 84 88 90 90 103 103 89 90 83 72 56 45 41 32 21 18 16 16 13 11 11 10 10 9 10 10 13 16 19 25 28 32 32 35 37 42 44
61 64 65 67 71 71 74 79 82 83 85 88 90 93 102 102 92 89 81 76 56 45 40 30 26 20 17 16 16 13 13 14 14 14 13 13 13 14 16 18 21 24 26 31 35 36 37
62 66 65 67 71 74 77 82 84 84 87 89 91 91 102 94 90 91 80 78 62 43 41 31 27 24 19 17 18 16 15 15 16 18 17 17 17 16 16 17 18 17 20 26 31 34 35
63 65 67 69 73 77 81 83 85 85 88 91 91 90 100 103 94 87 80 78 66 45 37 33 26 24 22 21 19 19 17 17 18 18 20 20 20 19 18 17 14 13 19 24 27 29 32
65 63 69 72 75 78 82 84 85 88 90 90 94 95 100 108 92 80 80 76 59 43 38 33 25 23 24 23 20 20 20 19 19 19 21 21 22 22 22 19 16 17 19 19 24 28 28
67 66 70 74 77 81 83 85 87 90 91 93 97 98 96 105 97 72 79 73 57 43 38 33 25 25 25 23 22 23 23 22 21 21 21 21 22 22 24 21 21 18 18 17 20 25 28
68 70 72 76 80 83 84 87 90 93 94 95 95 95 103 99 95 74 71 68 56 43 36 30 27 25 26 24 24 25 26 24 22 22 23 23 22 22 24 24 21 22 20 18 16 19 26

GFSGBSN_250_spd_057.txt.gz
Wind_Speed
72 74 73 75 80 86 88 92 94 95 101 100 99 101 96 89 77 67 62 61 58 51 39 29 27 34 41 45 60 70 75 77 81 83 86 89 94 98 95 101 101 106 113 112 114 113 111
71 75 74 75 79 85 90 93 96 97 101 105 102 101 101 92 81 70 65 64 60 53 41 31 25 24 32 44 56 62 72 79 82 81 83 83 88 96 97 102 102 105 114 116 115 113 113
70 76 74 75 78 83 88 93 96 98 102 105 105 103 100 96 83 73 67 66 63 56 40 31 24 18 26 40 48 56 70 77 81 82 82 83 89 94 97 101 102 107 114 118 114 113 114
70 73 76 74 79 82 88 93 97 99 102 108 108 104 102 99 88 77 69 68 65 59 42 33 24 12 19 36 50 57 66 74 80 80 84 84 88 93 97 99 103 106 113 118 116 114 116
68 73 77 75 76 80 86 91 96 98 103 109 111 108 106 101 93 83 75 71 68 63 46 37 27 12 9 28 43 49 64 73 79 83 88 86 86 90 93 96 98 102 108 113 117 114 115
65 72 76 74 76 78 84 89 95 97 105 108 112 110 107 103 96 87 79 75 72 67 52 41 29 18 2 18 31 43 58 69 78 83 88 83 82 84 89 90 89 96 103 107 118 117 114
62 69 74 74 75 76 82 86 92 99 104 106 110 112 110 106 99 92 84 74 72 69 57 46 33 21 8 11 26 40 52 67 74 75 79 73 74 75 84 87 90 97 104 109 122 121 115
61 67 71 73 72 74 79 84 89 96 102 104 107 110 110 107 104 96 87 78 70 68 61 50 36 24 12 4 22 37 46 60 66 68 72 72 71 74 83 86 88 95 100 109 119 124 119
60 62 69 70 71 72 76 82 88 94 100 101 101 107 111 107 105 100 89 82 73 67 65 54 40 27 17 7 11 32 46 58 64 66 69 70 71 72 77 83 86 91 97 105 112 124 122
58 62 66 69 69 70 74 77 85 91 94 97 97 97 107 109 104 103 92 83 77 67 63 55 43 32 18 14 5 20 37 50 56 63 69 66 67 70 73 81 82 87 93 99 109 121 124
57 61 64 69 68 69 73 75 82 88 91 96 97 95 102 106 104 102 95 83 76 69 62 56 47 34 22 13 4 12 24 47 55 60 59 58 63 68 70 76 80 85 89 96 104 116 123
56 59 64 68 68 67 70 73 77 84 88 91 93 93 97 106 105 102 97 85 74 66 60 54 48 37 23 14 9 7 20 37 43 51 54 55 61 65 67 70 76 81 85 91 97 103 119
55 57 62 66 67 66 66 70 77 81 84 87 93 91 95 100 105 102 97 86 75 66 57 50 44 38 27 17 8 7 6 15 34 17 38 43 52 59 63 65 69 74 79 83 90 95 105
56 55 61 65 65 64 66 69 73 78 83 84 90 91 95 96 104 101 96 93 75 65 55 47 41 36 30 19 12 10 4 3 13 8 5 15 36 45 52 59 63 67 72 78 83 88 97
58 54 59 64 65 62 65 66 71 75 81 84 87 91 94 101 94 103 96 91 81 66 56 45 40 34 28 23 17 8 7 8 5 6 3 8 15 33 38 46 50 54 62 70 74 80 87
60 54 58 62 67 62 64 66 69 75 78 83 84 86 91 98 93 100 95 89 81 67 53 45 38 32 27 20 17 12 3 6 5 5 10 21 17 15 25 26 33 43 50 56 64 74 81
59 55 57 61 66 62 62 66 67 73 74 80 83 82 87 96 105 92 99 89 80 66 51 40 34 32 24 18 15 13 9 2 9 11 13 17 20 24 23 31 41 46 46 50 58 63 71
57 56 58 61 65 63 61 65 68 70 72 77 80 80 85 94 99 102 96 89 81 69 52 42 30 26 22 15 11 10 9 8 6 13 17 20 23 23 28 32 34 37 41 49 55 61 69
57 59 59 61 63 62 61 65 66 71 73 74 79 80 88 94 102 106 90 90 79 70 56 43 32 22 19 14 7 7 8 9 11 14 17 20 25 29 31 31 33 32 37 42 51 58 63
57 59 58 61 61 60 61 64 66 70 71 75 78 78 87 93 101 106 94 87 84 71 58 44 33 23 17 15 9 7 7 10 13 15 18 21 24 27 30 30 32 34 36 39 41 49 57
57 57 58 61 60 58 62 65 67 70 72 77 78 80 87 89 94 107 91 86 81 72 60 42 37 26 18 15 15 11 10 10 12 15 19 21 24 26 26 28 31 31 32 34 38 44 43
58 58 59 61 60 57 61 64 67 69 73 77 77 80 88 87 96 109 103 91 82 76 59 41 37 29 21 17 17 14 13 13 14 14 15 17 21 24 25 27 28 29 29 30 34 37 41
57 59 59 62 59 57 60 64 66 69 73 78 77 81 84 91 98 107 104 80 80 71 64 43 34 34 24 20 19 17 17 16 17 18 17 17 18 19 20 23 26 29 28 28 31 34 36
56 57 58 63 59 58 59 63 66 69 73 78 79 82 86 92 96 107 106 93 81 77 58 45 35 33 28 23 22 21 20 20 20 20 22 21 21 20 20 22 25 22 24 27 31 33 34
55 54 58 61 58 58 58 62 65 68 73 76 78 82 85 92 99 104 102 96 84 76 60 43 36 30 30 27 24 24 23 22 23 23 23 22 22 23 21 23 26 23 23 23 27 31 31
54 54 57 59 58 58 59 61 64 68 72 77 80 83 86 92 96 102 101 99 89 81 63 44 37 30 28 28 26 25 26 25 24 25 25 24 25 25 25 25 25 24 27 27 27 27 28
55 56 58 59 58 58 61 61 64 70 73 76 80 83 86 89 92 93 105 100 87 76 62 42 38 33 29 31 27 27 27 27 27 25 26 27 26 26 24 25 25 26 28 27 27 27 28
57 57 59 60 59 58 61 63 65 70 75 76 78 83 86 85 85 91 102 97 86 75 61 45 38 34 30 32 29 27 29 29 28 25 26 28 28 25 25 24 23 24 26 26 26 26 26
57 58 59 61 60 60 61 65 68 72 76 78 80 82 85 82 87 85 93 96 81 73 61 49 38 35 31 32 31 30 29 30 30 29 28 27 28 27 26 26 24 26 26 27 26 26 24

GFSGBSN_250_spd_060.txt.gz
Wind_Speed
62 64 69 75 79 84 85 85 86 90 94 101 99 101 100 100 98 89 77 66 60 58 53 43 33 28 32 38 45 52 70 78 79 81 86 88 92 96 96 96 95 94 95 97 98 101 106
59 63 69 73 79 84 87 86 86 90 95 100 103 103 101 104 99 93 82 73 64 59 55 46 35 29 28 34 42 47 59 71 79 82 86 88 90 97 98 97 96 95 97 99 97 103 106
57 59 68 71 76 81 85 85 86 89 92 99 105 106 108 106 101 98 87 76 68 64 59 48 36 29 22 25 38 45 52 65 78 80 85 84 92 95 97 99 98 97 96 99 96 102 104
57 59 67 70 73 79 84 87 86 88 93 98 105 108 109 109 105 102 90 76 72 67 63 51 38 27 18 18 31 42 51 61 77 81 84 87 88 93 100 99 100 98 95 96 95 97 103
57 57 64 68 71 78 82 85 85 87 89 94 102 108 111 111 107 100 96 80 73 67 64 53 42 29 17 8 22 42 51 59 72 78 82 84 85 89 93 100 101 98 94 92 92 93 102
57 58 61 66 70 75 80 83 85 85 88 92 100 107 111 111 106 101 98 86 74 67 64 57 44 31 19 6 14 29 42 50 63 75 82 83 83 83 85 92 92 93 95 94 92 96 104
56 56 58 65 69 74 78 82 84 81 86 90 96 105 108 108 108 106 99 92 79 72 64 60 47 32 22 9 12 28 31 45 59 71 80 83 81 75 79 84 89 95 99 97 97 102 103
57 55 58 63 68 72 75 80 83 82 85 88 94 101 107 109 109 107 104 94 84 71 66 62 50 37 24 14 3 21 30 45 61 69 74 77 77 77 77 80 83 90 95 94 96 102 103
59 55 57 60 65 70 75 78 82 79 83 85 90 98 104 106 108 104 105 99 89 75 65 60 53 40 29 18 8 10 23 39 51 60 67 72 75 74 73 75 78 84 89 91 94 98 100
58 55 56 56 63 67 73 77 81 79 79 82 87 95 100 104 107 107 104 100 91 81 70 60 56 43 32 19 13 0 21 35 43 49 54 54 60 64 65 65 73 80 83 84 88 92 96
59 55 54 56 61 63 70 74 78 80 79 82 85 90 96 100 106 106 98 99 93 84 72 64 54 49 34 23 14 10 4 22 35 43 45 48 53 59 62 64 69 74 78 79 82 86 92
58 57 55 56 60 61 67 71 74 78 77 78 82 86 92 98 100 103 98 97 92 82 77 64 54 49 38 26 15 14 5 13 27 33 37 45 52 58 62 63 65 70 73 75 76 80 88
59 58 55 54 59 58 64 69 73 78 75 78 80 84 86 92 95 100 102 97 90 82 79 66 53 47 40 29 17 12 8 9 26 20 23 33 46 51 59 61 62 65 69 71 71 75 84
58 57 56 55 56 56 61 68 71 76 74 76 78 82 86 88 92 97 100 94 89 81 75 65 53 44 39 31 16 10 11 4 2 7 6 6 29 39 48 55 60 62 66 68 70 72 80
58 56 54 53 53 54 59 66 70 74 72 73 76 80 85 87 93 102 103 93 89 83 75 68 59 43 36 31 20 8 8 9 3 5 8 2 3 24 39 46 51 54 58 62 66 70 73
57 56 53 53 52 52 59 63 69 71 69 71 75 76 82 83 88 96 104 94 89 83 76 67 59 49 37 30 22 12 6 7 8 11 11 8 11 9 7 30 40 49 56 55 58 63 68
56 57 55 51 53 53 56 62 67 70 69 70 73 76 79 82 87 88 100 97 89 84 74 64 59 48 38 31 23 15 7 3 12 14 16 11 9 11 13 22 30 41 44 50 55 57 63
56 58 57 51 52 52 56 60 64 68 68 67 71 75 79 80 87 89 95 102 90 84 77 68 56 49 39 31 24 17 11 3 3 9 11 15 19 17 21 21 27 30 41 47 55 59 62
56 58 58 54 51 52 55 61 62 66 66 66 69 73 76 80 83 85 94 104 95 88 77 65 56 43 35 29 29 20 15 11 5 7 12 13 17 21 24 28 32 33 40 44 48 51 54
54 60 59 55 51 52 55 58 61 63 63 65 67 71 75 76 81 82 90 100 97 83 80 68 52 43 32 26 24 24 19 14 12 8 9 12 15 17 22 25 28 32 35 33 36 42 55
56 58 57 55 52 55 56 56 59 62 60 61 65 69 72 76 80 84 89 98 105 88 79 72 55 47 32 22 21 24 21 18 15 13 11 12 14 13 14 16 18 21 25 29 33 42 41
55 56 56 55 52 53 55 55 57 60 60 59 62 69 71 72 78 84 88 96 103 101 87 74 63 50 39 25 18 21 24 22 19 18 15 14 15 15 16 17 18 21 24 26 27 28 33
55 56 55 55 53 53 54 55 57 59 59 58 64 66 67 70 76 85 92 97 98 99 88 78 64 47 39 27 20 19 21 23 22 21 20 18 16 16 19 20 22 25 27 24 27 30 30
55 54 54 54 52 54 54 55 57 57 58 58 62 64 66 71 76 86 89 96 99 96 91 73 70 49 41 28 23 20 22 24 25 24 24 24 22 23 24 21 24 30 23 25 30 30 27
55 54 54 54 54 54 54 55 58 56 57 59 63 63 66 71 76 85 89 95 104 100 94 79 81 56 42 33 26 22 23 25 25 25 26 27 28 27 25 25 29 26 25 25 28 26 25
54 52 54 53 56 56 52 54 56 53 56 59 63 63 67 72 76 84 88 94 104 101 91 77 84 71 49 33 25 24 24 27 26 28 27 27 30 30 28 28 30 27 26 28 31 29 28
54 54 55 54 56 55 52 53 53 52 56 58 60 63 67 72 75 79 85 90 101 100 97 73 79 69 51 34 26 23 24 28 30 30 27 28 30 30 29 30 26 29 29 29 31 33 31
55 55 53 52 55 52 53 53 49 51 54 56 59 64 68 72 74 79 86 89 96 98 97 76 76 64 47 36 27 23 22 28 32 31 30 30 30 29 31 32 26 30 30 32 31 31 33
58 55 50 51 51 53 51 49 48 51 54 57 60 65 69 72 73 78 83 88 89 96 82 72 63 56 51 34 28 22 20 26 32 33 32 31 29 30 30 31 29 30 31 31 32 31 32

GFSGBSN_250_spd_063.txt.gz
Wind_Speed
61 63 63 65 70 75 77 81 86 88 89 89 89 92 101 103 101 100 102 101 88 68 61 55 45 33 24 25 33 37 53 72 79 82 87 90 91 95 95 92 90 89 90 92 100 99 103
65 63 63 62 68 73 77 81 85 90 91 92 91 93 100 105 108 101 104 100 90 71 63 58 47 35 25 21 28 35 46 61 76 79 85 88 88 93 95 95 94 91 90 92 98 99 100
66 63 64 64 65 70 74 80 83 88 92 90 90 92 100 108 108 106 106 101 87 72 64 60 49 36 28 17 18 31 41 55 69 75 80 86 89 89 91 95 95 93 91 94 95 96 97
68 68 66 66 64 70 73 78 81 87 90 91 92 92 98 105 108 110 108 99 89 75 65 61 51 37 30 16 10 27 38 47 65 74 81 85 86 86 89 93 94 93 92 91 92 94 96
69 70 66 65 64 69 70 75 80 85 89 91 90 90 93 102 109 107 106 101 91 79 62 61 54 40 32 17 5 20 35 46 61 71 79 81 83 84 87 90 93 94 89 88 92 95 96
69 70 65 65 63 67 70 74 80 84 88 90 91 92 90 100 104 112 109 104 90 78 64 61 56 43 35 20 7 7 27 47 58 67 76 79 79 81 81 82 82 87 88 87 91 91 93
70 69 67 64 65 67 70 72 78 81 84 87 89 92 91 96 104 108 106 102 96 76 66 61 56 47 38 20 16 3 17 42 51 62 70 71 69 71 77 78 83 89 90 89 91 92 92
67 69 68 64 64 66 68 71 76 79 83 86 88 90 88 95 103 105 104 101 95 79 71 63 58 50 40 24 17 5 16 31 43 55 62 67 67 71 76 78 81 87 90 89 90 91 91
64 66 68 64 62 64 68 69 73 76 80 84 87 90 84 90 100 105 103 100 97 81 73 64 57 51 42 29 19 9 15 27 38 48 55 63 69 72 73 74 78 84 87 88 89 91 90
60 63 65 63 63 62 65 67 71 73 77 83 85 88 84 91 99 105 104 100 96 88 76 65 57 51 47 36 19 13 8 19 33 43 52 61 67 71 72 72 74 80 87 90 89 88 88
59 62 64 61 60 60 63 64 69 70 75 80 82 84 82 89 96 101 104 100 94 93 79 68 59 51 46 38 24 13 9 9 18 27 37 51 59 66 68 70 72 75 79 82 88 88 89
59 59 60 59 56 59 61 63 66 69 73 79 79 82 79 85 94 98 98 101 96 92 83 74 64 52 44 38 26 13 12 10 3 11 19 27 41 51 60 63 65 67 70 73 80 86 88
58 58 57 57 55 57 58 59 64 67 70 76 76 79 78 81 89 93 98 100 93 91 87 79 66 52 41 35 29 18 11 16 9 7 5 12 27 43 53 57 59 60 63 66 71 75 81
57 59 57 56 54 53 56 58 63 65 67 73 74 75 77 78 86 88 90 97 98 91 86 79 68 59 41 34 28 17 11 14 12 10 11 15 23 36 45 50 56 60 63 64 65 69 75
58 57 55 54 52 52 55 57 62 62 65 71 73 72 72 75 82 84 87 92 99 96 90 84 77 63 44 31 25 20 12 6 11 18 16 16 15 31 40 47 52 55 57 60 61 65 69
58 56 54 52 50 51 52 57 61 61 63 67 71 71 69 71 77 82 82 87 97 99 89 87 83 67 52 32 23 15 14 5 8 17 20 16 17 20 27 35 40 48 55 56 57 59 61
57 55 54 53 51 50 50 55 59 61 61 64 68 69 67 68 73 77 80 85 92 102 89 85 81 68 56 40 22 15 10 7 3 11 16 24 29 23 26 25 33 39 41 46 54 54 56
56 54 53 51 51 50 49 53 56 59 60 63 65 65 65 65 70 73 76 83 90 98 87 86 75 69 61 45 25 14 9 7 5 10 15 21 27 27 25 27 27 30 36 45 48 51 56
56 52 52 50 51 51 50 52 54 56 58 61 62 63 61 63 68 71 73 81 90 99 97 88 73 64 61 47 33 16 9 4 5 7 17 20 25 28 28 30 32 35 38 44 48 54 58
54 52 49 49 49 50 51 51 53 54 57 58 60 62 61 64 66 68 73 78 87 95 100 90 76 68 62 53 34 24 14 6 6 8 10 14 20 25 29 32 34 35 39 44 49 49 59
53 50 49 48 49 51 50 51 51 53 54 57 59 61 58 63 67 66 71 76 85 93 101 85 78 72 65 53 44 24 17 14 8 9 10 13 16 18 23 29 35 39 38 39 42 46 40
51 50 49 50 51 50 50 51 50 52 53 55 58 59 56 59 63 64 70 76 82 90 102 86 73 74 66 53 45 31 18 15 14 11 12 13 14 18 21 20 21 26 31 33 36 39 38
51 50 50 51 50 51 51 52 50 50 52 55 56 57 53 56 60 62 70 74 79 87 98 102 72 77 59 63 43 31 24 19 18 15 14 15 14 16 19 21 23 28 26 28 31 33 34
50 50 51 50 50 51 52 51 50 50 51 53 53 51 51 56 59 61 69 74 79 84 95 103 76 72 74 64 45 37 23 21 21 20 18 17 17 19 17 16 21 20 18 20 25 26 28
50 51 51 49 50 52 53 51 49 48 51 51 51 48 49 54 57 61 68 74 79 81 92 101 89 75 63 70 44 30 26 22 21 21 23 21 21 22 23 19 21 24 22 20 23 23 27
52 49 50 48 50 52 52 50 49 49 48 50 48 46 49 55 56 59 66 72 77 81 89 99 101 67 75 67 45 30 23 20 21 24 25 24 22 23 25 26 27 26 26 25 25 24 29
47 46 46 49 49 51 50 49 48 48 46 50 46 44 49 54 55 60 66 72 75 79 87 95 99 72 64 65 47 37 23 20 20 23 26 27 27 28 27 29 27 26 28 30 29 30 28
45 42 44 45 47 49 48 46 47 47 46 49 44 45 49 56 55 59 66 70 72 80 85 89 94 74 62 64 56 43 31 21 18 19 24 29 29 27 28 31 27 26 29 28 30 33 31
45 42 41 44 45 46 46 46 46 47 47 45 43 44 51 56 54 58 64 67 72 76 83 86 91 75 59 54 46 43 40 27 20 18 23 26 29 29 28 27 27 27 30 30 32 33 33

GFSGBSN_250_spd_066.txt.gz
Wind_Speed
75 69 67 68 76 76 76 75 85 87 89 88 89 90 93 92 92 92 92 96 97 95 81 61 52 46 38 28 27 32 43 60 75 81 85 86 86 88 95 97 96 96 96 96 96 98 104
70 72 68 70 71 76 77 77 81 86 86 88 89 93 94 94 92 94 89 94 98 94 80 63 53 47 38 26 22 29 39 53 68 78 84 85 86 87 92 95 97 102 93 95 92 96 102
73 70 69 71 72 74 76 77 80 84 85 86 88 91 94 94 94 92 90 95 100 94 79 59 52 49 38 26 19 25 38 47 56 71 78 83 85 85 89 97 97 96 94 96 97 95 99
72 78 73 73 71 75 70 75 77 82 84 84 87 90 94 94 95 95 91 95 99 97 84 63 54 50 39 26 18 19 34 45 57 71 79 82 84 83 89 91 94 95 97 97 95 96 98
72 75 76 73 70 73 68 71 75 81 82 81 86 90 92 95 96 95 99 91 98 95 86 67 55 51 41 28 16 11 27 41 54 59 71 77 78 81 84 89 95 95 93 95 92 92 92
77 75 73 68 67 69 65 70 74 78 79 80 84 88 92 94 95 94 96 92 96 98 87 70 58 51 44 30 14 5 19 38 47 53 70 76 76 80 83 83 83 86 91 93 90 88 87
72 71 71 67 66 66 63 66 72 76 77 79 81 87 89 92 93 91 97 95 96 97 87 74 61 49 43 32 14 3 16 34 42 50 65 72 73 72 75 81 83 88 90 90 91 88 87
67 69 67 64 62 64 63 63 68 73 75 76 80 84 87 90 91 90 97 100 97 95 89 76 62 48 43 33 19 6 15 24 38 49 60 63 70 72 75 78 80 83 87 91 92 90 88
67 65 65 63 60 63 62 61 65 70 72 73 78 81 84 89 89 88 95 100 100 99 85 74 61 47 41 36 21 12 10 21 31 46 54 57 66 68 68 71 75 78 83 86 90 89 86
64 64 61 62 57 62 60 59 62 67 69 71 76 79 82 86 85 85 91 97 95 94 90 72 66 54 43 36 24 15 8 17 24 36 45 53 62 64 66 68 73 78 82 85 88 87 85
63 61 59 61 58 59 57 58 61 64 66 67 72 76 79 83 83 81 88 96 95 95 91 76 68 58 45 37 28 16 13 10 20 31 41 49 58 62 64 67 68 72 77 80 82 84 86
58 59 57 59 57 57 55 56 59 61 63 66 70 74 76 81 80 78 84 92 96 95 94 77 68 62 48 36 29 17 13 18 13 23 37 46 53 58 61 63 65 66 72 76 77 80 82
57 57 58 56 55 56 53 53 57 58 60 63 68 71 73 77 77 75 81 89 93 92 89 82 71 64 54 39 29 20 9 20 23 13 12 28 40 49 55 59 59 61 63 67 72 76 79
55 56 57 56 54 55 52 51 55 58 58 59 65 67 70 74 74 71 79 85 89 89 91 82 74 64 58 41 27 19 8 12 24 31 25 17 25 36 45 53 56 57 60 63 67 72 77
54 56 57 55 54 53 48 49 53 56 57 56 62 65 66 69 72 69 76 80 84 88 86 82 77 64 59 48 29 19 11 3 14 21 28 31 29 36 42 48 53 56 58 61 64 69 74
56 56 55 53 54 51 48 47 51 53 55 54 58 62 64 67 69 66 71 77 80 85 83 79 76 67 63 52 35 18 11 3 12 17 25 24 30 33 36 41 46 52 58 60 61 65 68
55 54 55 50 52 50 46 46 48 49 51 51 55 59 61 64 67 63 69 74 75 77 81 79 78 72 63 57 41 21 12 5 4 14 20 25 32 35 37 39 44 48 52 56 60 61 63
52 51 54 50 52 49 46 45 46 47 48 50 54 55 59 62 63 61 66 70 72 76 82 83 79 72 66 57 47 30 12 4 5 12 24 22 30 35 36 35 37 38 45 47 52 57 62
51 49 53 52 53 49 47 44 43 45 45 48 51 52 56 60 60 57 64 68 72 74 80 82 75 76 71 59 47 36 18 8 6 10 18 23 29 32 38 43 43 45 48 47 51 55 58
54 48 50 50 50 49 45 43 41 44 45 48 50 51 54 57 56 53 59 64 70 74 77 79 76 75 72 60 52 37 23 13 8 9 13 20 28 31 35 39 47 47 49 53 54 54 57
52 51 49 52 49 45 42 42 43 44 46 49 48 49 52 53 53 50 58 60 67 74 80 85 77 75 70 64 57 42 22 17 12 11 12 17 22 27 34 38 44 47 48 51 54 60 57
52 49 49 47 46 44 43 43 44 46 46 48 47 48 50 51 50 48 56 61 64 74 80 86 83 68 64 68 62 52 31 16 16 14 15 16 16 22 26 32 38 40 46 49 50 55 52
52 50 47 45 43 42 42 42 44 46 46 45 46 46 49 49 49 46 54 57 62 69 75 82 89 83 66 65 61 52 41 23 12 17 17 16 17 19 23 26 27 31 34 36 38 45 41
52 51 47 45 43 38 40 42 44 44 45 44 45 45 47 47 48 45 50 53 59 66 69 76 83 89 76 65 57 61 47 32 17 13 16 17 19 21 22 22 25 27 26 29 30 32 36
50 52 49 44 41 38 39 42 44 44 44 43 44 43 46 47 42 43 45 51 57 63 67 75 80 86 89 72 57 56 55 41 26 16 15 17 19 21 21 22 23 22 21 23 25 26 31
49 49 48 43 39 39 41 43 43 42 41 40 42 41 43 47 41 42 45 49 55 61 67 73 78 84 90 82 66 48 56 48 34 25 17 19 19 21 23 22 23 22 20 19 21 19 25
48 50 48 43 40 38 39 42 41 40 39 38 39 41 42 46 41 44 46 49 53 58 66 68 77 80 87 88 75 48 57 52 42 28 22 19 21 23 24 26 24 24 24 24 22 25 28
46 46 45 42 40 38 40 41 40 38 37 37 39 40 41 44 41 43 47 48 54 57 64 70 75 75 81 88 76 61 55 56 51 39 26 24 24 25 26 27 28 30 30 28 30 30 31
45 44 43 41 39 38 41 41 38 35 36 37 41 40 40 42 39 43 46 49 53 57 62 69 73 75 77 84 82 74 64 45 50 43 34 30 28 27 26 26 28 30 32 33 34 35 37

GFSGBSN_250_spd_069.txt.gz
Wind_Speed
63 67 68 69 77 82 80 82 82 78 82 83 84 86 90 92 91 94 93 86 85 88 89 91 79 61 49 41 31 27 30 42 55 69 76 78 79 82 85 91 98 102 99 100 97 99 101
68 74 68 72 78 83 85 79 80 79 81 82 82 85 88 91 93 95 96 86 85 89 92 94 82 62 46 40 28 22 26 38 51 69 77 79 82 82 86 92 99 95 99 97 97 98 99
66 72 74 79 76 84 86 77 77 77 78 81 81 85 87 90 92 95 97 88 86 90 93 92 82 60 48 37 26 19 23 35 43 62 74 79 83 80 83 87 94 96 100 97 101 97 99
72 74 77 78 87 85 81 84 75 75 76 80 80 83 86 88 93 94 96 88 87 89 95 97 80 60 51 39 26 20 19 30 43 52 68 78 80 80 80 86 86 91 99 98 102 107 99
74 77 84 86 87 92 90 78 73 75 75 77 78 82 84 86 91 94 96 94 83 87 93 95 80 60 51 44 31 21 16 25 41 58 67 77 78 78 78 82 87 97 97 101 106 104 98
74 85 86 89 88 83 85 72 72 73 72 76 75 80 82 84 90 94 93 89 84 87 92 94 76 61 50 42 31 22 13 23 42 50 60 72 76 76 80 86 85 85 96 105 99 101 102
97 100 92 93 82 87 73 69 72 70 69 72 73 78 80 82 88 91 92 91 83 87 93 88 77 62 47 40 31 18 9 23 39 44 52 63 70 73 76 78 82 87 99 99 97 98 98
105 99 95 94 88 76 68 64 69 68 68 69 72 75 78 81 86 88 89 90 84 83 91 90 78 62 46 39 30 17 8 18 32 42 48 56 66 70 73 80 79 84 87 90 96 95 92
102 97 87 80 73 70 65 61 65 68 65 65 69 72 76 79 83 88 87 88 85 84 87 90 74 63 47 39 30 17 4 12 23 31 42 54 61 64 67 71 74 76 81 88 93 92 90
95 88 78 77 72 64 62 58 63 66 61 63 66 70 74 76 80 85 86 87 87 83 85 90 73 60 48 38 30 17 5 15 22 31 41 49 55 62 66 69 74 76 81 83 87 91 90
85 82 76 73 67 62 59 55 59 62 58 60 63 67 71 74 76 82 84 83 87 84 86 88 76 60 51 38 31 21 6 7 16 26 32 41 51 57 62 66 70 72 75 79 82 84 86
87 78 73 68 63 61 57 53 57 58 55 56 61 65 68 70 74 78 80 80 84 85 87 88 77 66 56 42 32 25 7 7 10 17 28 42 48 55 61 62 64 71 74 77 79 82 82
83 80 72 69 58 59 55 51 56 56 53 53 57 61 64 67 71 75 77 76 82 86 84 86 80 68 57 46 32 24 12 4 12 15 25 39 46 52 56 59 60 64 69 71 73 74 77
84 74 72 65 59 58 53 49 56 53 51 49 55 58 60 64 66 70 72 72 77 83 84 83 78 68 61 51 36 22 16 6 11 19 17 28 38 44 51 56 59 61 63 65 67 69 72
82 74 64 59 58 58 51 49 53 51 48 46 52 55 58 60 62 67 69 69 76 83 80 79 79 66 61 56 39 22 14 10 12 21 24 25 33 40 46 52 55 56 58 58 61 66 72
81 72 60 53 55 57 49 48 52 48 46 45 49 52 54 56 59 62 65 66 73 80 80 77 71 68 62 59 49 26 14 5 8 16 25 33 30 33 39 46 52 56 57 59 60 64 70
83 72 55 47 53 53 48 48 48 44 43 43 46 49 51 53 55 58 62 61 67 75 81 76 69 67 61 58 53 31 15 8 4 15 20 31 38 39 37 40 45 50 54 57 60 62 64
84 69 54 49 53 51 47 46 46 42 42 42 45 45 48 51 50 55 57 58 65 71 76 78 68 65 57 55 52 40 18 9 8 10 20 26 34 34 39 42 44 49 54 57 59 60 62
83 68 56 47 52 49 47 45 43 42 42 40 42 42 45 48 47 53 53 53 62 66 72 75 71 66 61 52 54 47 29 12 9 11 14 21 27 34 37 40 40 42 47 52 55 59 62
75 70 56 45 48 48 47 44 42 42 38 39 39 40 43 45 45 49 50 50 54 62 66 71 74 66 64 51 51 51 39 20 10 12 13 15 24 26 34 39 45 47 48 50 54 57 62
72 69 47 46 46 47 47 44 41 39 34 34 36 38 42 42 43 46 46 46 50 56 62 69 72 70 65 57 52 51 46 31 14 11 14 15 20 25 31 35 40 49 52 55 57 63 59
70 58 49 47 46 48 46 43 40 39 38 33 35 36 40 40 40 43 45 44 48 52 57 65 73 73 64 62 58 48 48 40 26 11 12 17 19 23 28 34 38 41 49 53 56 58 59
64 61 49 47 47 47 46 43 40 40 33 31 32 35 37 37 39 41 43 42 48 50 51 60 69 76 77 64 58 53 46 45 35 23 13 14 19 24 28 32 37 40 44 47 52 55 56
74 62 52 49 46 49 46 41 41 36 33 31 31 31 34 34 36 38 42 39 45 47 49 54 62 71 77 73 64 58 49 44 40 31 22 15 17 23 27 27 29 35 36 40 45 49 53
55 51 49 48 47 44 44 40 41 36 32 30 29 29 32 33 35 36 39 38 43 45 48 49 57 68 79 83 75 66 59 52 43 37 27 22 20 21 24 26 26 28 31 32 35 37 39
63 56 52 47 48 47 41 39 38 34 33 30 28 29 32 31 36 37 38 35 40 44 46 51 52 63 72 79 79 79 66 55 52 42 36 26 21 23 25 25 26 30 29 30 32 30 37
63 57 51 48 52 49 45 41 40 37 34 31 28 29 31 29 34 37 37 34 40 44 46 49 52 58 66 72 81 79 75 65 59 53 39 32 27 23 24 26 28 32 34 34 32 32 38
69 59 51 48 49 48 44 41 39 38 32 30 29 28 29 29 35 37 37 32 40 44 46 48 53 57 62 69 76 81 81 76 65 57 43 36 31 29 26 25 28 32 35 36 35 36 37
60 56 52 47 49 49 45 41 40 37 32 31 30 29 29 28 33 37 33 33 40 44 46 48 52 58 61 65 75 78 81 78 73 64 54 36 37 33 29 28 30 33 36 37 35 36 38

GFSGBSN_250_spd_072.txt.gz
Wind_Speed
68 68 61 67 69 75 78 77 80 89 89 96 100 90 86 88 89 92 91 87 89 86 81 84 86 77 68 60 44 39 35 33 36 43 55 64 68 74 80 85 90 94 96 102 102 100 99
72 71 71 73 74 71 83 75 78 91 97 93 97 85 85 87 88 91 90 91 88 86 82 86 85 79 73 61 46 37 31 30 33 42 53 65 69 73 80 85 88 91 99 101 109 103 101
68 73 74 81 84 80 78 76 80 95 96 97 91 81 84 84 89 89 89 89 89 87 82 86 87 85 75 63 46 35 27 26 30 42 50 62 68 71 80 83 87 92 98 100 107 103 100
79 76 82 87 91 85 82 78 83 89 102 88 84 79 81 84 88 88 87 88 90 86 82 86 87 85 78 64 47 35 24 19 28 36 47 60 67 70 74 82 83 90 100 103 105 105 100
91 94 89 91 94 90 81 81 94 101 100 85 78 76 79 84 86 87 88 88 90 86 81 85 87 85 79 64 47 37 23 14 22 30 41 55 65 70 77 83 87 91 97 100 103 103 104
105 103 102 103 98 87 83 91 101 95 90 79 73 74 76 81 83 85 85 88 91 83 81 85 88 88 78 63 45 35 22 13 19 31 46 56 64 70 79 86 85 96 101 100 100 102 101
106 103 101 95 94 91 95 100 94 92 78 73 73 71 73 78 82 82 85 87 90 80 79 82 86 87 77 60 42 34 24 13 18 30 43 50 62 70 77 82 90 94 95 89 92 98 96
110 109 105 102 96 92 98 95 86 83 76 70 68 67 69 75 79 80 81 86 89 76 75 82 86 83 78 58 40 33 27 10 8 23 38 49 57 70 77 86 91 94 95 88 87 94 98
118 104 95 94 92 89 90 86 80 70 67 67 64 65 67 71 77 76 79 84 85 76 74 80 80 79 75 59 40 32 25 10 4 20 32 39 52 64 74 78 83 81 82 81 81 88 97
115 107 98 90 91 87 85 86 71 68 63 65 62 61 65 68 72 73 75 82 84 73 72 79 81 77 72 58 42 34 21 12 6 18 28 34 48 61 67 74 77 79 81 82 83 87 94
109 109 107 94 86 84 81 79 68 64 60 62 58 58 62 65 68 70 73 79 82 73 70 75 82 76 66 59 44 30 23 11 3 15 22 34 46 55 63 70 72 76 80 83 80 83 90
78 92 100 96 90 87 76 67 63 59 57 59 56 55 60 62 64 66 70 75 79 75 70 75 80 77 64 59 46 33 23 14 5 7 18 34 42 49 55 62 68 76 81 80 83 85 83
63 70 85 90 88 82 77 63 59 57 55 57 52 52 56 59 60 63 66 70 74 72 69 74 79 79 62 57 46 31 23 15 2 10 17 26 36 43 51 59 64 69 72 77 76 77 72
51 59 71 80 81 84 78 63 55 53 55 55 48 50 53 54 56 59 63 65 70 68 68 71 78 77 65 57 50 33 23 17 5 7 17 29 40 47 52 57 61 65 67 70 69 70 71
41 58 65 71 73 72 72 61 52 49 52 48 46 48 49 50 52 55 59 61 67 68 69 69 72 74 64 56 51 38 24 16 9 5 12 19 30 42 50 55 59 61 62 64 67 69 68
44 59 62 68 68 71 66 58 43 46 49 44 43 46 45 46 49 50 55 58 62 63 68 68 68 72 63 54 50 39 29 17 9 5 9 19 25 33 43 49 53 58 59 61 62 65 67
60 59 62 63 68 67 59 52 40 45 44 41 40 43 42 43 44 46 51 54 57 59 65 68 69 71 63 54 50 44 30 18 11 7 9 13 25 30 35 42 47 51 54 58 61 63 65
70 57 63 61 60 64 61 54 42 45 41 38 35 39 39 39 41 43 46 50 54 54 61 66 68 68 64 56 47 45 35 23 14 9 8 12 20 31 37 40 44 48 54 55 56 58 62
69 60 57 58 59 60 56 47 42 41 40 36 33 35 34 35 38 39 43 46 50 51 58 65 66 66 64 59 52 43 39 27 17 12 10 9 13 24 31 38 42 46 50 54 56 57 61
70 64 66 63 60 54 54 43 42 39 38 35 33 32 29 32 34 35 40 42 45 46 54 59 64 63 62 58 53 45 40 35 24 14 11 11 14 17 23 28 34 44 48 50 51 54 60
70 68 63 64 57 53 51 47 42 39 37 35 33 30 27 31 31 32 36 39 43 40 49 55 61 65 61 59 54 48 43 36 32 21 12 12 15 17 21 24 27 33 40 46 49 56 54
73 70 64 61 54 51 46 43 39 39 37 35 32 28 26 30 27 29 34 35 40 39 44 51 56 59 61 63 59 56 46 38 35 28 18 14 15 19 20 21 24 26 32 41 50 52 55
75 72 65 62 56 52 47 44 41 38 36 35 31 25 27 27 25 28 32 33 36 36 41 48 53 56 60 63 65 60 54 48 37 32 24 17 16 18 21 21 23 27 31 33 36 43 52
80 74 73 69 65 55 48 43 42 39 37 34 27 25 26 25 25 27 30 32 33 32 37 43 47 54 58 59 60 66 61 52 44 38 34 26 17 17 21 23 24 30 30 34 36 39 42
79 76 71 60 57 51 47 42 41 40 36 32 27 26 26 22 23 27 28 31 32 31 36 40 44 49 53 58 63 60 64 59 50 44 39 34 31 22 15 21 25 30 32 34 37 41 45
81 74 66 59 50 47 43 43 41 41 36 32 30 27 25 20 24 26 28 30 32 30 34 39 43 45 47 56 59 65 69 62 61 58 46 39 35 35 30 17 19 27 34 35 35 34 45
78 72 68 64 55 50 46 44 41 39 36 32 29 26 22 22 24 25 26 29 27 29 32 36 39 45 47 50 58 62 70 74 70 61 54 46 40 36 33 28 20 26 32 32 35 34 41
78 76 70 64 58 52 51 44 41 39 37 33 27 25 25 23 22 22 27 29 27 26 29 35 38 43 46 47 51 57 66 66 75 68 58 50 44 38 32 30 29 28 33 34 35 38 40
83 79 74 70 64 58 51 45 42 37 39 32 29 29 26 25 21 22 27 29 29 28 29 35 40 46 44 45 48 52 57 63 64 74 65 65 56 46 39 33 31 33 33 34 38 42 44

GFSGBSN_250_spd_075.txt.gz
Wind_Speed
82 85 87 82 77 75 77 69 75 78 91 92 96 98 93 101 107 94 91 92 90 89 86 82 75 77 79 72 59 51 40 38 35 30 34 42 49 57 62 71 82 89 98 102 105 106 105
86 89 87 84 79 79 74 73 76 84 91 98 95 93 95 100 102 95 91 90 89 87 86 80 76 77 78 73 60 52 40 38 34 28 31 41 51 58 64 71 80 86 93 98 101 104 105
95 96 87 91 84 81 80 78 85 91 93 97 96 94 96 98 87 87 87 89 88 87 86 78 75 77 79 72 64 52 43 36 30 26 28 37 49 59 66 72 81 87 91 98 103 104 102
108 102 97 97 90 88 89 85 88 95 94 92 95 98 92 89 90 82 84 87 87 86 84 79 73 79 76 71 68 53 44 35 26 21 27 38 49 60 65 71 80 88 90 93 96 100 100
106 105 101 101 93 94 94 95 92 96 95 96 96 89 84 84 81 80 83 85 85 86 84 78 73 78 75 71 70 52 42 32 20 17 24 36 47 60 67 71 80 84 86 89 97 98 98
100 99 97 100 103 95 97 100 99 96 96 96 92 85 82 80 81 78 80 82 83 83 82 74 75 77 72 74 69 51 40 27 14 15 26 35 47 59 66 69 76 80 83 89 95 97 99
108 111 111 111 101 97 97 101 107 105 97 92 85 79 81 78 76 76 77 79 82 82 82 72 71 73 73 71 65 50 35 22 8 11 25 32 45 56 61 65 78 88 87 92 93 99 101
120 116 113 110 108 108 107 105 103 96 92 85 78 75 76 76 72 74 73 75 79 79 80 70 72 73 76 72 64 46 33 21 8 8 23 34 41 56 66 72 81 86 89 90 93 95 100
100 101 110 110 102 100 99 97 97 93 90 83 79 71 69 72 67 70 70 72 75 77 75 66 68 73 77 75 64 47 32 23 11 7 20 36 44 57 66 75 80 85 88 88 88 94 99
84 77 76 79 84 84 81 89 86 85 82 80 69 66 64 64 63 66 66 69 73 75 71 66 68 71 75 75 64 45 30 22 11 4 16 30 42 55 66 73 78 84 89 87 87 91 95
66 62 49 57 67 58 64 63 67 69 69 68 65 60 62 61 60 63 62 66 69 72 69 65 66 67 71 73 64 44 27 21 11 4 12 22 39 52 61 69 72 78 83 86 86 89 91
63 58 56 47 51 51 58 58 59 63 63 60 57 54 54 55 57 57 58 62 64 69 68 66 66 67 70 69 61 46 25 18 10 4 12 23 36 50 59 62 61 72 77 81 82 83 82
61 61 55 50 55 38 54 53 59 55 54 56 52 48 50 52 53 52 54 58 60 65 64 61 65 66 70 66 59 48 28 20 9 6 15 23 33 43 50 57 65 69 73 80 81 75 72
62 64 72 55 54 43 43 49 52 51 51 47 43 44 48 48 47 47 50 54 55 61 59 57 62 68 70 68 61 50 34 19 13 5 13 24 33 40 48 53 59 70 70 71 75 70 69
69 71 76 73 58 46 43 46 46 43 41 38 38 41 45 43 42 43 45 50 52 58 55 53 56 67 70 68 60 52 36 19 14 7 4 17 31 39 45 52 60 64 68 70 70 71 72
68 81 71 72 64 51 47 42 45 39 40 37 35 40 42 38 37 38 40 45 49 53 53 50 53 60 63 64 59 52 44 27 14 9 2 5 18 31 42 49 56 61 63 66 68 69 71
71 74 77 73 71 62 51 44 42 36 34 35 35 37 37 33 31 33 35 39 45 48 48 52 53 57 58 58 57 55 46 33 20 11 6 5 8 19 29 42 50 55 60 63 64 67 70
79 77 77 68 74 60 47 42 37 32 33 35 36 34 32 28 26 28 31 34 40 45 42 50 51 56 61 59 54 52 45 39 26 16 8 5 6 12 24 33 41 49 55 59 59 62 64
75 76 81 71 68 58 47 47 39 36 36 33 33 33 29 24 23 24 28 31 36 40 40 48 49 55 61 61 56 52 49 41 31 20 12 5 4 8 11 24 33 42 48 54 56 59 61
69 77 74 70 66 58 55 46 44 42 38 33 35 33 28 22 21 22 25 27 31 36 36 43 49 51 58 61 61 55 50 44 37 29 18 10 6 5 7 15 23 32 42 46 52 56 60
57 75 71 69 66 63 58 58 47 43 38 36 34 32 27 21 21 20 22 24 27 33 33 39 45 50 54 59 59 56 51 45 41 34 28 18 12 9 8 10 14 20 29 36 49 52 55
55 66 69 67 65 62 58 52 47 44 36 35 34 31 27 20 19 17 20 20 24 30 33 38 42 48 53 59 60 57 53 43 39 36 33 27 20 14 11 12 13 16 20 25 34 41 53
54 56 69 71 70 67 59 49 49 43 41 36 33 31 25 21 19 17 18 18 20 27 30 34 38 44 50 57 58 57 52 49 40 35 28 29 28 24 19 14 15 19 17 20 25 33 40
54 56 68 73 74 68 63 59 54 46 40 37 33 31 26 23 18 17 16 16 19 24 26 28 36 40 45 49 54 57 56 52 47 38 33 30 26 24 23 16 17 17 19 23 26 28 36
55 64 64 77 75 69 60 55 56 49 43 38 34 31 27 24 17 17 15 15 16 20 24 25 32 37 41 43 51 55 56 56 54 48 40 39 34 24 22 20 17 18 19 23 26 28 33
55 63 66 72 71 64 59 54 46 43 43 38 36 33 28 22 19 18 15 14 14 18 19 23 27 34 37 40 45 50 52 51 55 56 53 47 40 34 30 27 26 23 25 26 30 33 39
63 57 72 76 68 64 60 53 47 41 41 38 37 33 28 24 22 18 14 14 13 17 17 23 25 30 35 39 40 46 50 52 54 55 56 53 50 45 38 31 30 29 29 27 24 33 41
68 70 76 73 74 68 61 54 48 46 42 42 39 34 29 27 23 17 15 16 13 16 17 21 24 28 32 36 39 42 46 48 54 49 53 51 51 49 49 45 39 32 33 33 30 27 30
78 80 80 74 67 68 62 54 51 46 41 43 38 33 30 27 22 18 18 15 15 18 18 19 22 27 29 35 38 41 43 46 48 55 54 52 52 49 46 46 50 48 38 37 35 33 32

GFSGBSN_250_spd_078.txt.gz
Wind_Speed
72 69 70 74 77 81 84 83 79 83 98 92 90 82 88 89 93 92 100 104 89 88 84 82 76 70 66 71 73 74 64 59 45 36 30 30 36 42 48 52 59 73 83 92 100 105 106
81 83 81 78 84 84 85 83 87 87 97 95 90 89 94 92 93 95 104 103 94 84 85 81 76 69 69 72 74 75 58 52 42 35 28 28 34 43 50 56 61 71 75 86 95 105 108
96 100 92 88 89 89 90 91 97 101 105 102 90 91 90 94 93 95 104 98 87 83 85 80 75 69 70 73 75 70 55 46 38 34 25 27 34 46 53 56 63 77 80 81 98 101 104
94 95 93 98 93 91 94 99 102 107 103 100 91 86 89 92 94 95 101 96 90 82 84 75 75 69 70 74 73 64 55 43 37 32 23 25 34 46 54 56 65 74 79 84 89 95 102
106 107 113 114 108 103 104 106 104 96 91 89 89 91 90 92 95 95 94 92 85 80 83 73 71 67 71 72 71 60 54 41 38 28 22 25 33 45 55 57 67 74 77 84 91 97 103
117 122 119 117 115 111 108 104 97 88 95 94 91 92 91 93 91 89 88 89 80 78 80 72 68 66 69 71 66 59 51 39 34 24 19 25 33 46 58 60 65 64 71 81 87 94 96
88 101 112 114 108 111 107 102 98 98 97 99 98 93 85 86 82 83 79 80 76 78 76 73 67 67 68 68 60 59 48 36 27 17 15 26 35 44 53 59 66 62 73 81 83 92 97
75 85 85 101 101 103 101 98 101 103 98 99 96 83 74 74 74 76 76 73 71 76 72 70 66 67 69 68 62 57 42 33 23 11 11 25 38 44 47 53 59 67 74 79 86 93 98
72 80 79 80 73 74 71 70 78 82 87 91 87 77 66 71 70 65 64 65 66 69 69 69 68 66 69 64 64 56 41 30 19 7 8 27 36 45 54 59 59 66 71 79 85 89 90
64 66 76 84 80 69 57 60 66 72 76 74 69 62 62 60 51 56 58 58 63 66 66 65 65 64 67 62 64 57 39 28 18 6 7 24 31 37 43 56 61 65 71 78 80 85 87
71 69 62 74 76 75 69 57 55 53 49 54 47 48 45 44 42 51 53 53 60 62 62 61 61 60 64 64 63 57 40 27 16 7 7 19 32 41 49 53 59 65 73 77 78 81 88
82 72 59 56 67 73 71 66 55 49 46 44 40 41 36 35 40 46 48 50 56 57 58 58 55 57 59 62 62 52 39 26 17 7 9 19 30 40 48 54 60 69 77 79 83 83 83
87 77 57 52 60 69 73 65 69 57 45 43 39 35 29 30 38 41 43 47 49 52 55 53 50 54 53 57 56 50 40 25 15 8 10 19 31 39 46 56 65 71 76 80 77 82 83
78 69 55 50 55 74 72 71 73 59 50 43 34 30 28 27 37 36 38 43 44 46 51 51 46 49 50 51 53 49 43 27 16 10 4 17 27 36 46 53 61 71 73 71 71 73 80
72 58 51 47 50 68 73 74 73 60 52 39 33 26 27 29 34 33 34 39 39 41 44 48 44 45 46 52 52 49 42 30 16 10 5 7 26 32 41 48 55 60 57 61 66 66 68
60 51 54 50 61 72 74 77 76 69 58 42 35 27 31 31 31 27 30 34 33 35 39 42 42 42 46 47 51 49 46 35 18 9 5 3 10 31 40 45 51 55 56 58 58 59 59
51 50 54 59 61 67 72 73 75 66 55 45 36 31 32 32 27 23 26 28 28 30 34 37 41 43 47 51 47 46 44 37 25 11 5 4 4 12 29 42 47 51 56 55 58 56 52
46 43 46 47 61 62 60 64 65 62 45 48 42 37 34 28 24 20 21 23 23 27 29 28 38 43 47 53 51 47 44 38 26 16 8 4 4 7 17 31 41 48 53 57 56 60 57
38 33 32 39 61 60 59 58 55 55 54 47 39 40 34 28 22 18 18 20 18 23 26 26 33 38 45 49 52 48 45 43 34 26 16 7 1 4 7 20 29 42 47 51 53 55 55
27 19 20 41 55 58 56 56 55 60 57 46 41 37 34 27 22 18 16 16 15 19 23 25 31 36 42 46 51 51 46 43 40 35 25 15 5 2 6 10 17 29 37 44 50 55 59
18 11 25 49 53 55 50 57 58 63 57 48 43 39 33 29 23 19 15 13 12 15 20 23 31 37 40 44 48 55 54 44 37 36 31 23 15 6 1 7 10 17 24 35 47 50 54
11 16 35 52 61 53 54 57 67 63 59 50 46 40 33 29 24 18 14 10 10 12 17 19 29 35 40 46 51 53 54 54 45 39 35 31 24 15 7 2 8 13 17 21 28 38 48
9 22 38 53 62 59 57 64 68 62 54 51 48 41 37 30 25 19 14 9 7 10 16 18 23 30 34 43 49 54 54 54 56 51 44 39 35 28 21 14 8 6 13 19 23 27 31
13 30 42 60 62 59 57 72 69 59 54 52 47 43 36 32 25 20 15 9 5 7 13 16 19 26 30 36 39 47 51 52 54 54 51 45 43 40 35 28 24 16 14 13 18 24 31
18 33 41 55 55 55 68 74 66 64 57 49 46 42 37 33 27 21 15 9 4 5 10 13 16 21 28 30 34 38 44 49 50 51 47 46 47 44 40 32 27 27 21 16 12 14 23
30 46 49 59 60 64 70 67 62 56 51 49 46 40 37 33 27 21 15 11 6 5 8 11 13 17 22 28 32 36 40 40 46 47 46 45 41 38 39 39 32 28 29 26 24 24 23
34 45 49 54 59 64 74 72 61 55 50 47 43 42 37 32 26 21 17 13 8 6 6 8 12 16 20 26 31 32 38 41 45 44 47 49 45 43 38 35 39 36 35 39 37 31 29
37 49 54 58 57 71 68 66 62 56 51 45 42 41 36 30 26 21 18 14 10 8 5 6 9 14 19 23 29 34 37 43 44 45 46 45 49 50 46 41 39 37 40 39 31 32 28
49 56 64 64 69 68 66 63 61 56 52 48 44 41 36 32 26 22 20 15 11 10 6 7 8 11 17 22 26 30 34 40 47 47 47 49 46 53 54 49 49 48 51 44 47 39 34

GFSGBSN_250_spd_081.txt.gz
Wind_Speed
103 95 90 87 88 88 89 86 82 81 84 85 82 85 82 81 85 87 91 98 93 94 92 96 98 89 77 65 70 66 68 66 70 69 67 58 46 39 39 45 46 46 52 63 71 78 91
104 103 107 106 102 100 90 91 93 96 95 94 88 88 89 84 87 87 92 93 91 94 91 93 94 85 76 65 68 67 70 69 69 67 60 45 37 34 41 45 44 50 53 61 63 73 91
112 110 108 107 103 102 103 105 102 100 97 97 92 92 92 92 94 93 96 93 93 93 96 94 93 86 69 64 67 69 72 71 69 63 49 36 32 32 40 43 51 53 56 62 74 78 90
94 103 107 112 116 115 111 104 109 101 98 96 91 96 100 100 98 99 97 93 91 94 94 91 87 87 63 63 64 70 69 70 63 55 38 32 28 31 37 46 55 59 61 64 70 69 83
78 81 84 83 96 106 112 112 113 108 102 100 96 96 102 99 99 97 95 93 92 93 94 87 84 80 63 61 62 67 67 63 54 42 34 26 23 30 38 51 57 56 61 69 67 74 84
70 71 68 78 75 84 92 103 110 107 101 106 104 100 100 101 97 95 94 91 91 94 87 82 82 72 60 60 62 65 66 57 44 36 30 21 21 27 37 48 54 56 60 66 64 66 78
74 74 69 63 62 71 82 84 87 92 92 95 98 92 88 92 93 89 91 86 92 89 81 80 73 59 60 59 63 64 58 50 39 33 26 15 18 28 39 49 56 56 62 61 65 69 75
76 71 73 71 66 63 65 78 86 85 86 78 76 72 78 82 83 81 80 79 80 80 73 69 65 57 59 59 63 61 53 44 34 29 19 11 18 31 40 49 52 53 50 57 67 67 75
84 76 71 70 65 68 65 69 74 74 72 74 73 71 69 70 66 71 67 66 63 61 56 60 58 55 58 60 63 57 52 42 33 27 13 6 19 30 40 47 51 49 50 61 68 72 71
91 84 75 73 65 68 62 58 61 67 65 67 74 61 54 51 55 57 56 51 47 45 50 55 52 53 53 59 60 53 46 36 29 23 9 3 15 23 28 38 48 48 54 58 63 75 80
93 86 76 74 73 67 57 49 52 60 61 60 64 51 50 45 44 45 40 35 33 40 46 51 48 51 51 56 55 53 44 32 25 20 8 6 20 32 38 40 39 44 56 63 66 72 74
95 86 76 75 73 68 52 44 43 56 55 66 67 55 43 41 34 32 27 23 28 38 41 48 44 46 48 52 49 48 41 30 23 15 4 9 20 25 32 40 42 41 55 59 68 74 75
90 82 75 75 68 60 53 41 49 54 55 69 62 53 44 32 29 26 20 22 25 35 37 43 40 40 44 47 46 44 39 28 20 13 4 10 20 26 30 30 39 44 51 64 68 66 73
85 80 77 75 64 54 47 41 51 53 61 65 60 55 44 36 27 23 16 21 20 31 35 40 36 36 40 42 43 41 36 27 19 12 6 8 18 23 29 33 35 43 51 59 64 67 70
86 83 76 64 55 46 43 45 55 56 61 66 65 53 45 35 31 20 16 14 19 26 32 36 34 35 36 41 41 41 37 30 22 13 8 5 16 24 28 34 40 47 56 57 55 58 61
87 78 64 52 44 37 35 45 54 59 50 60 66 56 48 39 31 21 19 7 17 21 26 33 31 32 35 36 37 40 38 31 27 16 9 5 9 20 30 36 40 49 50 53 55 55 59
83 67 53 41 31 29 31 41 47 46 41 53 63 61 49 43 31 21 19 9 12 15 21 30 26 28 35 34 34 37 39 35 29 21 10 5 5 6 24 35 40 43 39 43 44 43 48
70 56 41 28 18 17 23 36 35 34 45 59 65 57 49 42 30 25 18 11 8 10 17 25 24 23 32 35 34 36 37 37 32 25 16 9 7 5 6 18 31 35 36 34 32 40 39
59 48 33 18 10 13 22 37 30 35 54 57 61 53 48 41 33 28 19 13 6 6 13 18 22 26 29 37 33 32 37 38 36 31 22 13 6 5 5 10 16 31 32 29 32 35 38
48 37 24 13 9 10 12 22 32 51 59 56 56 50 46 41 36 27 21 14 6 2 8 13 22 28 31 35 37 34 38 39 38 36 30 23 13 6 3 6 13 21 23 30 33 37 37
39 26 17 9 10 15 21 20 36 55 61 55 52 51 48 42 35 28 22 15 8 2 5 9 20 28 34 39 38 44 45 44 47 43 39 30 23 13 6 2 4 10 17 26 30 27 32
28 18 12 7 15 19 29 28 41 53 59 56 55 54 46 40 35 30 22 15 9 3 5 8 16 23 31 39 43 47 47 50 49 49 47 43 36 25 17 7 2 4 10 14 19 26 36
19 11 12 9 16 27 35 37 49 54 53 59 58 55 48 43 37 30 22 16 10 5 5 7 13 19 24 33 37 44 50 51 53 51 51 46 41 40 33 22 19 14 8 9 14 21 27
14 7 15 16 17 28 30 34 46 50 57 60 60 52 46 40 35 30 22 16 11 6 6 6 12 17 24 27 32 38 42 45 48 50 49 47 41 41 39 37 36 31 27 16 8 12 20
5 13 24 26 27 36 38 38 45 51 50 62 58 52 46 40 35 29 22 17 11 5 6 5 10 15 21 25 26 30 36 38 42 44 47 48 45 41 41 39 37 39 37 35 31 27 17
10 18 30 35 34 48 52 53 58 63 60 56 54 46 45 41 35 28 23 18 12 7 5 4 5 11 14 21 23 26 30 36 39 41 40 43 44 42 42 39 36 38 32 31 33 32 33
10 18 29 31 46 58 52 56 59 61 59 54 50 46 42 40 34 27 22 18 12 8 5 2 3 8 12 16 20 25 27 31 33 36 38 39 37 39 40 43 43 42 37 38 38 36 35
12 17 25 38 60 61 57 60 60 59 56 52 49 43 40 39 34 28 23 19 13 9 5 1 1 4 8 14 18 22 27 30 33 35 37 41 40 45 46 47 51 50 49 49 45 42 39
12 25 35 41 54 56 63 60 63 57 53 49 48 42 37 38 34 28 24 19 14 9 6 3 1 3 7 11 15 22 27 29 32 36 39 41 41 44 47 50 47 55 58 63 55 53 52

GFSGBSN_250_spd_084.txt.gz
Wind_Speed
69 70 81 88 93 101 105 109 110 106 106 105 103 97 95 90 92 91 86 91 89 88 88 87 92 97 88 89 81 67 66 69 66 67 68 70 70 63 61 57 50 51 50 50 53 57 60
66 66 71 70 69 76 79 90 102 108 110 108 102 102 100 100 93 93 94 91 92 88 90 89 96 91 87 81 75 69 71 70 67 69 71 70 64 62 54 44 44 48 51 51 55 56 62
69 69 70 67 69 71 72 72 81 88 91 99 107 107 101 97 91 93 96 95 91 90 91 94 96 89 80 71 66 71 71 71 68 70 71 64 60 51 42 40 45 47 53 55 55 55 58
83 83 83 77 70 71 71 70 69 79 86 88 90 96 107 107 98 97 99 97 92 92 93 96 96 91 78 67 64 68 70 67 67 66 62 59 50 41 40 39 43 47 54 52 54 55 62
82 83 82 79 77 76 72 70 74 68 74 78 76 82 89 93 94 88 94 97 96 96 94 93 95 86 73 66 63 66 64 64 64 62 61 50 42 37 35 35 39 46 50 52 57 59 62
84 84 85 84 81 74 67 63 68 66 65 72 76 70 75 78 83 83 88 89 93 93 92 94 88 78 65 66 65 63 59 62 60 58 52 44 35 32 29 28 32 42 51 55 56 57 57
81 84 87 86 84 79 73 61 58 66 62 63 67 68 72 68 61 71 75 82 86 85 85 80 76 70 64 61 60 56 55 55 59 51 42 35 28 26 24 26 35 48 55 59 61 64 67
87 89 90 92 90 87 81 67 56 63 66 57 64 60 67 66 60 65 66 66 65 66 69 71 67 61 60 54 53 52 55 57 54 43 34 28 24 19 19 26 39 48 55 58 61 58 70
90 93 97 98 96 91 82 66 59 58 58 53 58 57 59 62 58 59 63 59 52 54 57 57 60 53 48 48 48 50 54 53 45 34 28 21 15 11 13 23 35 47 54 56 56 58 67
99 100 102 101 97 91 82 70 63 55 51 47 46 49 51 52 46 55 57 54 49 48 50 49 49 43 41 42 44 49 51 47 36 28 22 16 9 6 15 25 38 46 51 50 52 55 60
97 99 105 103 99 90 77 69 61 52 45 43 42 45 45 44 46 53 48 45 42 37 37 40 38 34 36 38 45 49 47 39 28 23 17 10 4 7 12 25 35 44 44 48 48 53 58
99 106 108 105 94 81 75 67 57 49 39 42 42 46 41 42 49 50 45 36 28 27 30 30 26 29 33 37 44 46 41 34 25 18 12 6 1 7 16 22 29 34 40 42 43 48 56
106 110 108 103 88 77 65 53 46 42 40 41 45 49 38 43 50 47 37 29 19 20 25 20 21 24 30 37 42 41 35 30 22 16 11 7 3 6 9 16 25 31 36 42 46 51 54
114 112 109 97 82 67 53 43 38 34 42 44 52 42 45 52 48 40 31 20 15 15 16 12 20 22 29 35 37 34 29 25 19 14 10 6 5 7 11 17 23 27 39 47 48 44 48
110 105 101 86 71 57 44 35 28 29 38 44 38 39 54 52 46 38 29 22 11 12 9 11 18 23 28 30 32 30 27 23 20 14 12 4 4 10 13 18 24 26 33 44 47 47 51
107 100 91 75 63 48 35 24 18 21 31 28 30 44 53 49 44 36 31 21 12 9 4 12 16 21 23 25 28 27 28 25 20 14 12 10 4 7 11 18 23 29 31 38 43 45 53
107 95 80 65 53 37 26 18 13 20 21 22 36 47 55 48 41 38 33 23 11 2 5 10 16 19 20 21 24 26 28 27 23 19 12 12 12 7 7 13 20 19 25 28 32 36 38
101 88 70 55 44 30 20 13 15 20 24 33 41 48 51 47 40 38 34 23 13 2 6 10 18 21 21 22 22 26 27 30 27 23 18 15 10 9 8 3 3 11 15 15 16 14 27
92 79 61 47 34 20 15 12 19 18 29 39 50 45 45 44 43 40 34 25 16 5 6 11 19 22 22 24 23 26 28 33 33 29 25 22 19 14 11 10 8 7 2 9 8 11 14
84 68 52 38 23 12 8 21 21 24 35 44 46 50 48 42 42 41 33 27 18 9 8 17 19 22 27 27 28 30 33 38 40 39 36 33 26 22 18 18 13 8 6 3 4 6 9
75 59 43 27 9 5 11 19 28 33 43 46 53 47 46 48 47 41 33 28 20 12 14 19 20 23 28 30 35 36 38 38 42 46 45 43 39 34 27 23 19 19 14 10 5 4 10
68 50 35 16 13 19 19 22 29 46 44 49 52 45 46 52 47 40 33 28 22 17 16 20 20 23 28 36 38 40 41 42 43 45 48 47 47 44 40 37 31 25 21 17 16 14 11
60 42 23 9 11 18 23 27 36 47 46 49 42 41 53 50 44 38 33 27 23 20 19 21 19 21 27 33 35 40 41 43 46 46 46 46 44 44 43 42 42 37 31 26 18 13 12
50 33 11 13 16 19 24 31 42 48 47 46 48 51 54 49 42 37 31 26 22 24 21 22 23 21 27 29 34 37 41 44 44 45 43 41 42 41 40 39 40 35 34 32 30 29 24
41 26 11 18 17 21 30 37 46 53 47 45 43 50 50 48 42 36 31 27 22 23 20 21 20 22 24 26 28 32 36 39 41 41 40 39 37 37 36 36 35 34 32 33 28 24 23
35 18 10 18 10 11 23 30 41 43 43 36 48 50 49 45 39 34 29 26 22 20 19 16 15 17 17 21 23 26 29 32 34 34 34 36 38 34 38 37 35 36 32 33 31 28 23
27 7 13 15 12 11 18 25 36 41 41 50 52 51 47 44 37 32 28 23 20 17 16 14 11 12 12 14 17 20 23 27 29 31 33 36 39 38 36 37 41 42 42 41 37 41 40
18 3 14 13 8 10 25 28 43 47 49 51 52 48 45 41 34 29 25 21 19 15 13 11 8 6 7 10 14 19 21 23 25 28 31 34 36 39 39 42 44 43 43 43 44 47 48
15 9 15 17 17 18 36 46 47 49 51 50 48 46 41 38 32 28 23 20 17 15 12 9 6 3 4 7 11 15 19 22 25 28 30 34 37 37 40 44 43 43 45 49 50 53 55

GFSGBSN_250_spd_087.txt.gz
Wind_Speed
75 72 69 66 63 60 61 60 55 59 67 74 78 81 83 86 86 91 90 93 91 90 88 86 83 87 84 82 81 79 75 71 65 67 63 65 72 68 66 64 65 69 70 76 80 77 76
77 77 78 77 70 72 72 69 64 58 57 65 70 75 72 78 75 76 81 80 86 88 89 85 87 82 83 83 81 79 71 61 68 67 65 68 65 65 65 66 70 69 67 68 69 69 68
79 79 81 80 79 80 77 70 68 69 66 63 66 71 68 70 74 73 71 69 76 81 88 92 90 85 86 77 82 80 67 64 68 66 66 64 63 64 67 69 66 61 59 53 53 53 54
84 82 81 82 82 79 80 80 76 65 60 67 64 67 72 64 70 69 68 67 68 70 76 83 85 86 81 81 75 70 64 68 67 65 63 60 64 66 67 62 55 49 45 43 43 41 43
83 87 85 86 85 88 89 85 81 76 69 62 63 64 69 57 59 66 62 58 51 58 68 70 73 76 74 73 69 61 62 63 61 59 58 62 65 64 56 51 45 39 38 40 40 40 48
84 85 87 90 91 90 89 89 86 80 71 63 56 57 67 54 54 58 53 46 43 47 55 63 64 64 69 66 58 60 58 55 54 55 58 61 60 53 47 43 38 34 35 36 37 45 50
85 90 91 94 96 94 90 84 84 80 70 58 50 51 63 56 50 51 45 40 41 42 48 51 48 55 60 55 53 51 50 50 52 55 57 56 51 44 41 36 31 28 31 34 40 44 47
84 86 98 100 105 101 93 86 82 76 61 53 47 49 52 45 46 48 38 39 44 42 44 39 44 52 48 46 46 40 44 46 53 53 52 46 41 35 31 26 23 25 32 37 42 46 52
92 94 99 106 111 102 93 85 77 67 56 48 42 44 44 37 44 40 36 33 38 42 38 39 43 37 39 40 35 36 39 45 49 49 43 33 28 21 18 14 19 27 33 38 43 52 55
92 98 104 109 111 101 94 84 72 61 50 45 39 38 36 31 41 37 32 33 36 39 38 38 33 33 28 33 31 32 36 41 44 41 32 22 17 9 9 13 19 24 33 38 41 52 58
99 106 110 112 110 98 87 74 64 52 43 41 37 35 29 33 33 29 31 31 33 32 33 27 24 20 22 25 28 32 37 38 39 32 22 13 7 5 8 13 19 25 32 36 40 46 52
113 113 114 112 104 92 78 63 54 45 38 37 32 33 32 33 31 29 30 31 31 30 24 17 12 12 17 20 26 30 35 37 34 23 13 7 3 4 8 13 18 22 26 34 41 45 48
121 117 115 104 94 80 66 54 42 34 30 28 23 31 33 32 36 32 35 32 30 25 11 5 2 8 14 16 25 29 32 32 25 16 9 8 10 10 10 9 15 21 28 33 38 43 45
122 118 109 96 81 68 56 44 33 25 19 14 20 30 30 32 31 33 34 30 27 14 11 5 4 6 9 15 23 27 26 24 18 12 10 12 13 16 14 13 12 15 24 31 34 37 37
119 112 98 86 70 60 46 35 25 17 12 17 26 31 34 31 31 32 33 30 20 16 13 9 6 6 11 16 22 24 22 19 13 11 12 13 14 17 16 14 13 18 22 24 28 31 34
110 103 86 73 63 50 38 27 19 10 13 20 24 25 31 31 33 34 34 26 26 21 15 10 9 9 11 14 20 20 18 13 14 15 14 14 16 15 16 14 15 16 18 22 25 28 31
110 96 77 65 55 43 31 20 10 2 8 19 27 29 33 37 38 37 32 30 30 22 18 13 14 13 12 18 17 16 15 15 19 18 18 16 18 17 15 12 11 11 13 12 13 20 27
107 87 72 58 47 34 21 12 6 14 21 22 28 32 42 46 43 37 32 36 29 25 21 20 19 16 16 17 17 16 20 21 24 24 24 20 21 20 23 21 17 8 13 11 8 11 12
99 81 64 49 39 25 17 10 13 25 29 29 40 46 45 48 43 37 37 36 31 27 28 26 25 20 21 21 23 26 27 25 31 32 31 30 28 26 24 27 22 23 21 19 18 12 8
89 73 55 40 30 17 15 19 18 25 28 32 45 51 51 45 37 40 39 36 32 32 34 30 29 26 28 27 29 33 34 36 38 39 36 37 38 36 31 27 25 24 24 22 19 18 13
82 63 46 35 18 15 17 23 23 35 37 41 47 50 47 44 43 43 38 34 32 36 37 33 30 31 35 35 37 38 37 41 43 42 44 46 43 39 38 37 35 33 29 22 18 15 11
74 54 40 25 15 17 17 22 28 40 48 48 51 48 44 42 45 41 37 33 31 34 36 35 35 38 41 39 42 43 45 46 46 45 46 47 46 47 46 43 39 37 34 30 27 24 20
66 46 37 15 18 19 17 22 30 41 46 43 42 41 40 44 45 40 35 34 33 32 33 35 36 40 42 44 45 46 47 47 47 49 50 50 52 50 48 50 48 47 45 40 36 30 26
59 40 35 21 22 20 20 27 39 47 47 49 50 48 42 46 44 40 36 35 35 35 35 35 36 38 41 42 44 46 49 48 49 49 49 49 50 50 47 47 47 44 43 36 31 28 25
56 35 26 28 25 24 22 30 39 43 46 46 49 48 47 44 42 38 36 33 32 33 33 33 33 35 36 38 39 40 42 44 44 43 43 44 42 43 43 41 38 36 34 32 27 26 27
54 32 20 31 25 21 23 30 34 36 37 46 46 46 45 42 38 36 33 30 29 27 25 26 28 29 28 29 32 34 35 37 39 38 41 41 40 38 37 35 33 33 30 28 27 24 23
53 34 19 28 27 22 16 22 29 31 38 43 46 44 42 40 36 32 29 27 26 25 22 21 20 20 22 24 25 26 28 30 32 32 32 32 33 33 33 31 30 30 32 33 33 32 32
54 36 19 21 19 10 7 20 32 39 44 45 44 41 39 36 32 28 24 23 21 19 18 16 16 15 16 18 19 21 23 24 26 26 26 28 29 30 30 32 33 35 36 37 36 41 39
64 45 16 10 10 7 3 23 38 43 44 44 43 40 36 33 30 25 20 20 19 16 14 12 9 8 10 11 13 15 17 18 20 22 22 23 24 25 28 29 31 32 34 36 37 39 42

GFSGBSN_250_spd_090.txt.gz
Wind_Speed
64 68 69 69 71 72 70 71 73 69 71 70 65 54 52 63 65 71 78 77 75 76 67 75 74 78 82 83 80 75 78 73 71 72 72 70 64 63 67 69 67 67 70 72 69 72 71
69 69 70 71 71 75 76 80 83 80 77 76 73 70 57 59 61 64 73 72 65 69 68 68 66 72 77 81 77 73 73 71 72 72 70 64 62 63 66 68 65 64 67 68 65 67 67
75 69 70 71 74 79 80 81 80 83 82 79 75 69 62 62 63 62 68 63 57 65 63 57 59 64 73 76 74 70 67 68 68 67 62 64 61 63 63 63 61 61 60 62 63 65 67
91 89 79 74 72 74 77 78 85 85 84 83 80 70 63 62 66 64 63 63 49 58 59 52 55 60 62 69 68 62 61 61 61 56 59 60 60 58 59 59 56 58 61 63 64 66 69
93 100 87 82 76 74 77 81 84 87 85 83 80 73 66 65 60 62 64 64 49 51 52 50 50 55 59 62 60 58 57 53 53 54 54 53 53 55 56 57 60 60 63 62 61 59 56
92 100 92 85 79 79 79 89 91 89 87 81 77 70 66 64 60 61 64 58 44 48 43 42 42 48 53 54 54 54 48 49 48 49 45 47 49 52 56 60 59 57 53 48 48 48 51
101 107 96 88 85 85 88 90 85 82 79 74 74 65 64 63 62 59 60 48 40 42 35 36 37 41 43 44 44 37 38 41 42 39 41 43 49 54 57 55 52 44 40 38 38 44 43
107 110 102 93 90 88 88 87 84 83 74 66 65 57 58 58 59 56 50 36 40 36 32 30 29 32 35 32 28 25 33 36 34 35 39 45 49 51 50 45 40 33 28 30 33 34 38
110 114 105 97 94 92 92 90 85 75 64 53 49 47 50 53 51 48 36 35 35 33 31 29 26 28 19 21 18 21 25 29 31 33 40 42 45 42 37 35 28 20 19 26 32 35 36
112 121 109 101 100 96 95 88 77 66 55 45 42 39 41 44 42 34 34 38 32 32 29 28 22 13 16 12 16 12 23 26 27 32 35 37 36 29 25 19 16 13 17 24 30 34 37
123 117 110 105 103 97 90 78 66 56 49 37 32 31 33 36 34 34 39 33 37 31 23 18 12 12 9 12 13 13 15 20 25 27 29 28 25 19 9 7 9 11 17 25 31 37 40
130 121 112 105 99 90 78 65 55 45 37 29 23 24 25 33 32 37 33 38 34 27 18 14 10 10 7 10 10 10 15 20 23 22 23 19 15 9 1 7 11 13 16 23 33 39 43
124 118 108 100 90 80 66 54 43 34 26 19 15 20 25 29 33 31 38 35 28 24 20 13 13 9 8 7 7 11 15 17 16 14 14 8 2 2 9 14 15 13 12 13 24 39 45
126 122 111 97 83 67 53 43 33 22 16 10 11 16 23 28 30 36 36 31 30 26 20 18 15 11 5 1 6 10 12 15 11 5 4 0 6 11 15 18 14 19 15 13 24 36 45
129 125 109 90 74 59 49 36 24 16 9 1 9 20 27 25 33 34 35 37 31 26 24 20 15 10 3 3 7 10 10 8 3 1 4 8 12 18 19 17 18 17 14 11 17 28 32
128 119 98 78 68 53 41 28 16 12 9 11 20 29 35 36 37 40 40 35 32 29 25 20 14 10 8 10 10 9 8 7 5 6 11 16 18 22 24 20 18 16 15 13 15 18 26
130 115 86 73 60 48 33 18 14 15 15 22 29 34 40 42 47 43 39 38 34 30 23 18 16 15 14 15 11 8 9 11 12 13 15 20 21 24 24 23 23 21 16 15 16 22 22
124 102 77 67 51 39 26 20 16 21 30 32 38 43 46 49 49 44 44 38 33 28 25 23 22 22 21 18 14 14 13 14 18 18 19 22 26 30 31 26 22 24 23 19 17 20 23
121 94 73 60 42 32 26 25 23 30 32 33 41 51 50 47 49 49 44 38 34 33 29 30 28 26 25 21 24 21 22 20 22 23 22 24 26 29 33 34 34 35 30 27 18 17 22
113 80 66 50 39 30 28 23 28 35 33 43 52 50 50 49 50 48 44 40 41 40 38 36 31 31 33 30 33 33 33 30 28 28 25 25 24 24 26 29 34 36 36 33 26 21 22
107 69 58 44 40 33 26 20 32 38 43 52 52 49 48 50 47 47 46 46 46 46 42 38 35 38 38 38 43 44 42 41 39 37 34 32 30 28 26 26 29 29 30 32 33 32 24
99 62 53 43 43 36 24 17 34 46 47 49 50 48 45 46 46 47 48 49 49 48 46 42 39 41 43 46 50 50 50 49 49 47 45 42 40 41 36 30 30 29 29 27 26 24 22
96 53 46 45 43 35 28 18 43 45 46 43 46 48 44 42 47 49 50 51 50 50 47 46 42 39 41 45 48 53 53 53 53 54 52 51 50 50 46 40 37 42 42 37 35 31 29
97 51 48 47 41 37 27 18 33 39 38 41 44 44 42 41 44 48 49 50 49 48 47 47 44 43 43 45 48 48 48 48 49 50 49 49 48 49 49 51 49 47 43 39 37 34 32
96 47 48 48 39 33 26 19 23 25 31 37 37 38 37 39 41 42 44 43 43 43 42 42 41 41 42 43 45 47 48 48 46 46 47 47 46 47 47 47 44 44 40 37 34 31 26
106 55 45 48 34 25 18 14 13 20 28 34 33 32 32 34 39 39 39 40 38 37 36 36 36 37 37 38 40 40 42 43 43 43 42 41 42 42 40 39 36 34 32 29 27 24 20
115 93 56 49 32 20 15 6 6 20 23 28 28 27 27 30 33 35 34 33 29 29 29 29 30 31 32 33 33 33 34 35 35 34 34 35 34 33 33 31 30 28 28 26 23 21 20
104 101 73 47 31 22 11 1 4 17 24 24 24 24 23 24 26 28 28 28 25 23 24 24 23 23 25 26 25 25 27 26 26 26 26 26 27 27 26 25 25 24 24 23 23 23 24
92 95 102 59 31 23 10 6 7 12 20 22 22 21 21 22 24 24 22 19 17 15 16 16 16 16 17 16 17 16 17 17 18 18 18 19 19 20 21 23 22 22 23 24 24 27 29

GFSGBSN_250_spd_093.txt.gz
Wind_Speed
69 76 75 78 76 83 86 80 75 71 65 67 71 71 72 74 77 70 68 67 71 75 74 73 72 69 73 71 74 82 89 89 89 87 86 84 84 85 85 86 82 80 78 75 76 74 73
71 75 77 83 85 89 89 90 78 72 71 70 70 72 73 76 78 76 72 70 70 75 73 70 65 63 70 67 75 79 82 85 86 86 85 83 81 81 82 84 80 78 77 78 76 73 73
76 78 81 83 88 94 96 90 83 77 71 69 72 75 78 81 82 80 76 73 70 69 70 68 66 61 65 59 69 71 76 79 81 80 78 79 78 80 79 79 78 77 72 71 73 72 67
76 81 85 89 90 97 103 99 91 83 78 76 77 82 84 85 84 79 73 73 70 67 65 67 60 54 58 62 64 66 70 72 72 73 71 72 75 77 77 77 75 72 69 69 70 67 63
81 84 89 90 94 103 100 99 94 89 85 85 86 88 88 88 87 78 68 66 67 66 62 66 58 52 56 56 58 59 61 62 64 65 66 62 66 72 72 67 66 65 64 62 61 63 63
89 91 95 98 100 108 105 103 98 95 94 94 89 90 88 82 80 77 69 61 60 61 60 54 47 47 54 52 52 52 54 55 55 54 55 59 61 63 62 58 59 58 59 59 61 63 61
96 97 98 103 106 108 112 110 105 95 87 79 76 73 72 70 66 68 65 59 55 57 58 54 43 42 42 43 48 44 44 47 48 53 53 48 51 52 54 52 53 54 57 61 62 62 62
98 101 105 108 111 113 109 101 94 86 79 70 61 57 57 58 56 53 53 54 50 51 47 40 36 36 37 41 36 33 35 41 40 39 39 43 44 47 47 48 51 54 55 53 53 52 52
105 107 110 115 117 108 94 87 80 72 64 53 47 44 44 46 45 43 43 43 42 42 33 32 32 36 34 31 26 31 32 27 31 33 34 36 38 42 43 46 46 43 41 40 40 41 41
111 111 113 117 104 86 80 74 65 60 55 44 37 32 33 35 36 33 30 32 32 27 30 33 33 27 26 27 28 24 22 24 23 26 29 35 37 37 38 35 35 33 32 34 34 35 34
119 116 116 104 91 86 77 67 60 52 42 33 28 22 25 23 25 19 22 24 25 30 32 31 30 27 27 25 23 18 15 17 21 26 33 29 30 28 26 26 25 24 23 24 24 27 31
127 124 113 99 92 81 75 63 49 39 31 24 18 13 10 14 16 17 21 26 30 30 31 31 31 26 24 23 19 15 15 18 22 25 21 22 19 18 17 16 15 14 16 19 21 22 25
128 121 109 97 89 80 68 54 41 32 23 17 10 3 6 10 16 21 27 26 30 33 33 34 29 27 23 18 14 11 11 14 17 16 13 13 12 11 12 14 15 17 19 18 19 20 23
126 112 96 88 84 75 64 49 36 26 18 14 9 13 14 17 21 24 26 29 39 36 35 32 31 26 20 15 10 8 6 11 11 7 9 6 7 10 13 17 21 19 18 18 21 20 24
118 99 87 82 77 68 57 40 30 24 21 17 17 24 27 25 25 28 38 42 39 36 35 34 27 24 19 13 7 4 6 7 4 5 4 5 10 17 19 21 23 25 24 22 23 21 25
105 90 88 78 72 55 46 34 32 31 34 31 31 34 35 36 39 42 40 39 41 40 35 30 25 21 16 12 7 4 4 1 0 3 6 12 16 22 25 27 28 30 26 26 25 23 25
93 88 83 73 59 49 40 38 38 37 37 31 36 41 40 42 42 41 43 42 40 36 33 28 23 20 15 11 8 6 2 4 5 8 12 17 20 24 27 31 32 29 27 24 22 23 23
84 86 72 58 53 43 39 44 43 38 37 35 41 47 45 43 46 45 43 40 35 33 29 26 23 19 17 14 12 7 7 7 9 13 15 20 25 27 29 32 31 29 28 25 24 21 22
87 80 56 58 52 43 41 38 36 37 43 45 50 49 48 46 44 42 39 36 35 33 30 27 24 23 21 20 14 12 13 13 14 15 16 21 25 28 29 31 32 31 29 25 19 18 21
85 70 60 62 60 50 38 34 38 37 44 50 53 46 45 44 43 43 41 39 37 34 32 29 28 28 27 24 20 19 21 21 21 18 19 19 22 24 28 30 34 31 30 27 24 23 23
77 72 70 72 63 50 39 42 42 42 43 45 47 46 43 46 46 47 45 42 39 36 33 32 31 34 33 31 30 30 30 30 31 29 24 22 19 18 25 33 32 33 33 32 27 22 23
82 75 75 69 59 52 46 43 35 34 37 40 42 44 44 46 47 47 46 43 41 38 38 36 36 40 38 38 39 40 38 38 38 38 35 32 26 24 21 20 24 25 30 31 33 33 32
95 88 74 69 59 47 37 38 33 28 31 37 38 42 42 42 44 46 47 46 45 42 40 41 43 43 44 44 46 46 47 47 45 45 45 41 37 33 31 27 27 24 23 22 22 25 24
102 93 73 61 64 49 38 38 31 26 27 28 30 34 39 42 44 44 47 48 46 44 42 43 44 44 45 47 48 48 49 49 49 51 50 47 45 43 43 43 42 39 37 33 35 32 30
92 88 74 60 54 47 40 39 27 22 21 22 21 26 31 35 39 40 42 43 42 41 40 41 43 45 43 44 46 49 50 49 48 48 48 47 46 45 43 42 40 39 38 37 36 33 33
84 84 77 65 50 41 40 32 27 19 16 17 18 18 22 27 34 37 38 38 38 37 36 37 39 39 40 41 42 44 44 44 44 44 43 42 42 42 41 39 37 35 33 30 28 27 24
79 79 75 68 57 41 37 30 27 17 13 12 12 12 14 20 25 27 30 31 31 31 32 31 32 33 33 35 36 37 37 37 37 37 37 36 35 34 33 33 32 31 29 27 25 22 21
81 70 76 78 63 45 34 26 19 22 10 9 8 7 5 7 12 14 18 22 24 24 24 24 25 26 26 27 28 28 28 28 29 29 29 27 26 26 25 24 23 22 21 20 19 16 12
66 70 72 72 70 54 32 27 23 27 17 10 9 7 6 7 4 6 8 13 15 15 15 14 15 16 17 18 19 20 20 20 19 19 17 17 17 17 17 17 15 14 13 11 9 8 8

GFSGBSN_250_spd_096.txt.gz
Wind_Speed
68 70 73 76 78 84 84 81 84 85 87 91 92 90 91 88 80 80 81 78 78 76 74 75 77 79 75 76 73 76 79 86 92 96 98 98 98 97 95 95 94 87 85 87 86 86 84
77 80 84 86 88 91 90 89 91 93 96 95 95 96 96 92 87 79 79 79 76 76 75 75 74 75 75 73 72 71 76 79 85 88 93 97 98 98 97 96 93 90 85 88 86 86 86
80 85 88 92 96 100 103 99 101 101 102 101 96 98 98 93 88 84 80 79 78 75 75 75 70 68 73 73 66 67 69 71 78 82 87 89 92 95 93 91 90 87 84 85 88 88 88
93 93 96 101 108 106 105 107 107 107 101 99 98 93 89 84 80 78 79 79 78 76 74 72 66 61 66 70 59 59 58 66 69 72 76 82 84 89 88 87 85 86 85 84 84 82 81
100 105 107 109 114 110 108 106 101 97 92 88 85 81 74 71 67 67 66 69 68 72 67 62 55 55 58 60 51 50 50 57 65 65 74 78 80 80 82 80 79 81 80 78 80 76 75
103 111 116 119 115 111 104 94 88 84 83 81 76 73 67 57 53 53 56 59 60 58 53 53 50 50 51 48 45 45 44 51 57 63 68 72 71 71 69 69 72 72 71 72 72 70 70
110 119 124 120 110 96 89 77 68 71 68 67 68 66 60 52 46 43 46 49 48 50 49 44 42 45 42 39 34 37 44 49 50 55 58 57 58 61 62 61 61 63 63 64 66 64 63
114 127 119 110 94 85 66 66 60 59 55 54 53 51 45 40 38 37 36 37 40 43 36 36 40 38 36 32 31 35 40 42 43 43 47 49 52 51 49 51 53 56 60 60 60 61 63
123 122 114 102 97 85 75 65 64 54 44 40 38 36 30 27 29 29 26 27 32 29 31 34 30 26 28 29 30 29 31 35 36 40 41 42 41 41 43 47 47 48 51 55 58 58 60
124 115 106 101 94 85 76 72 60 47 40 35 28 23 16 18 20 17 17 19 23 23 26 24 22 25 26 25 26 29 30 31 32 30 31 32 33 35 36 39 43 46 49 52 55 56 55
114 108 99 92 84 78 74 63 52 44 33 26 20 12 6 5 5 8 13 17 21 23 24 24 26 26 24 25 30 28 24 25 29 27 27 25 29 30 34 38 41 42 43 43 42 42 41
110 101 95 87 77 70 65 53 43 36 27 19 12 7 6 10 14 18 24 28 30 31 29 28 28 25 26 28 26 23 25 25 23 20 20 22 26 29 31 31 31 31 30 28 26 24 22
107 100 88 77 68 65 57 48 37 31 25 20 18 18 16 21 26 31 33 34 34 31 29 28 27 29 27 27 27 23 22 19 16 14 16 21 22 21 22 23 23 23 21 18 19 17 18
99 87 75 69 65 62 53 45 40 37 33 27 26 30 29 30 31 32 33 33 34 33 29 31 29 27 25 25 25 21 19 17 10 12 15 12 12 14 14 16 13 15 11 16 18 19 21
91 104 96 81 64 66 62 57 52 47 39 35 33 35 36 38 35 37 36 30 31 35 33 31 28 28 26 23 20 17 13 7 8 7 5 6 9 11 12 14 14 17 18 19 22 24 25
99 99 98 86 79 71 67 63 57 53 51 50 45 42 39 38 38 40 37 32 33 35 32 32 30 25 22 18 16 10 8 8 6 7 7 9 12 14 17 16 18 21 23 24 25 24 27
98 96 92 94 89 76 68 61 56 53 52 55 58 53 44 40 40 38 39 34 34 33 30 27 24 21 18 15 12 12 11 11 9 8 10 13 14 18 20 24 23 25 26 25 20 25 26
115 91 97 90 89 84 74 65 58 53 50 47 55 50 44 43 39 38 37 34 29 27 26 23 20 16 15 16 15 15 16 13 10 11 14 13 15 21 23 25 27 28 25 25 29 20 29
110 102 88 92 85 79 73 68 63 56 52 47 49 46 40 37 34 32 31 29 27 25 23 22 20 19 18 19 19 20 18 15 13 14 15 17 20 24 25 30 32 30 28 28 29 25 29
100 106 82 83 85 81 70 65 59 54 49 47 45 42 38 36 33 31 31 30 28 27 26 24 23 23 23 25 23 24 21 18 17 15 17 15 19 23 27 29 34 32 33 30 28 25 25
96 105 91 75 72 76 75 64 61 58 51 46 40 39 38 37 36 34 33 31 30 28 27 24 25 24 27 28 26 28 26 24 23 22 19 16 15 18 18 27 30 35 33 32 29 26 21
87 99 89 74 65 66 70 65 60 58 55 49 44 40 38 37 38 39 38 36 32 29 25 28 25 26 31 31 28 28 30 31 31 31 26 26 27 20 19 18 24 29 33 32 32 33 30
88 87 87 74 64 60 61 62 54 49 46 43 43 39 39 40 41 41 41 38 34 30 30 31 30 35 35 35 33 31 31 33 34 37 36 34 28 27 27 26 24 25 21 28 28 29 29
86 75 82 79 65 54 51 50 52 45 39 37 36 35 37 37 39 40 40 40 38 36 36 36 37 40 42 43 40 38 39 41 40 41 42 40 38 37 33 34 32 32 32 31 26 17 14
83 81 71 74 70 60 44 44 41 43 39 35 33 31 32 31 33 37 37 37 38 37 36 36 38 37 40 40 43 43 45 46 46 45 47 46 45 46 45 44 41 41 41 40 37 33 30
78 77 64 68 68 75 57 37 37 38 38 32 30 29 31 33 31 28 28 30 33 34 34 35 38 38 38 39 40 40 41 43 42 43 41 42 41 40 38 38 38 37 36 35 33 31 28
74 71 75 66 66 63 69 50 33 32 32 35 28 25 26 27 26 25 24 23 25 27 28 29 31 32 32 34 34 36 36 36 36 35 34 35 35 34 33 32 30 29 28 27 25 24 22
68 66 72 63 59 62 60 62 51 30 30 29 33 26 22 20 20 18 17 15 17 18 19 21 23 24 25 25 27 28 29 29 28 28 28 27 27 26 26 24 23 22 21 19 18 16 14
63 69 66 54 62 62 58 59 55 39 21 26 29 28 24 19 16 16 16 15 13 10 10 12 12 15 15 16 18 19 19 19 18 18 18 17 17 17 16 15 14 13 12 10 9 7 6

GFSGBSN_250_spd_099.txt.gz
Wind_Speed
82 92 92 94 94 94 101 104 103 101 98 99 101 103 100 98 98 95 92 88 87 81 76 70 73 72 72 76 73 77 79 76 77 85 90 93 99 103 104 103 102 102 96 94 93 94 95
93 96 96 99 103 107 109 107 104 103 100 98 95 93 93 93 91 90 86 85 83 80 74 70 70 69 72 74 73 76 74 74 71 75 83 86 91 95 98 100 102 102 98 96 95 94 90
98 105 115 111 110 111 110 105 99 93 91 88 87 86 85 82 79 77 76 73 70 72 69 67 66 68 67 68 70 71 70 65 67 69 74 82 86 86 90 94 96 98 101 99 95 92 92
112 116 111 107 102 100 95 85 82 81 80 79 80 79 78 78 74 69 67 65 64 65 64 63 63 66 65 62 63 67 61 62 60 61 67 74 79 82 82 83 87 93 95 96 92 93 90
120 108 101 98 94 84 78 73 69 69 70 68 71 75 75 75 66 57 55 52 56 55 59 60 61 62 60 60 56 56 53 55 57 55 61 66 74 77 75 74 76 81 87 91 90 90 90
107 95 88 88 82 79 74 69 52 51 52 55 57 61 64 65 66 43 35 36 43 48 50 56 57 56 52 54 46 44 45 50 48 49 54 61 67 69 66 65 69 71 76 79 82 84 84
98 96 93 94 88 85 84 80 69 58 47 45 52 58 59 52 45 30 24 36 42 44 46 49 54 50 49 41 36 37 39 40 39 43 47 54 56 57 59 61 61 63 64 67 72 72 74
90 94 97 100 95 89 77 71 69 58 44 37 36 35 33 33 28 21 22 25 32 35 40 42 41 44 37 31 33 33 33 34 36 38 42 44 49 50 52 53 53 55 56 58 64 66 66
84 89 92 96 95 88 79 69 65 55 44 33 23 19 18 16 13 12 13 16 24 29 33 34 33 30 34 33 30 27 27 27 32 37 38 39 41 42 44 46 47 48 51 51 54 54 57
86 84 89 90 91 85 77 67 62 50 40 33 26 19 12 6 1 6 11 15 19 22 25 27 30 33 30 30 28 25 24 26 28 31 34 35 30 32 35 36 40 41 43 46 48 49 52
88 83 85 91 93 92 82 67 58 53 44 34 25 18 13 11 13 14 16 18 20 25 28 29 28 31 30 29 25 23 22 24 25 23 23 22 25 27 27 33 35 36 38 39 42 46 49
92 87 87 90 100 100 91 83 64 53 51 42 33 27 20 20 21 23 25 27 29 31 31 32 31 28 26 24 24 22 21 18 18 17 17 19 22 23 25 26 27 31 36 41 45 47 48
105 89 86 87 100 101 93 82 77 57 55 50 48 37 30 24 21 24 27 31 33 32 33 30 28 28 26 24 23 21 18 15 13 15 17 18 20 21 21 22 24 26 28 30 32 33 34
113 94 87 89 99 103 98 87 78 71 54 62 63 56 46 39 31 30 32 32 31 32 32 31 31 30 28 24 20 16 14 12 14 13 15 17 17 13 13 15 17 18 17 17 19 20 19
110 96 88 89 94 103 105 96 84 77 72 64 65 67 57 52 49 46 41 39 37 36 34 32 30 25 22 20 17 15 13 14 12 13 11 9 7 9 11 11 10 9 11 12 15 17 16
108 105 90 85 91 99 101 97 88 81 72 64 65 68 59 54 50 48 46 38 34 31 29 28 26 24 20 17 15 13 14 11 10 7 6 6 8 8 8 9 12 12 15 20 21 23 29
101 101 92 84 85 89 96 96 92 84 77 68 65 65 55 50 45 39 38 34 29 27 25 23 20 18 15 15 13 14 11 9 9 10 9 7 10 11 14 17 16 19 22 27 25 29 34
98 104 95 86 79 84 88 92 90 86 79 73 69 64 53 45 39 34 28 25 23 22 20 19 18 19 18 18 17 14 14 14 14 13 11 13 13 15 18 22 21 22 27 30 33 42 44
97 102 94 88 75 73 78 81 84 82 82 74 69 64 57 51 44 36 30 26 23 22 23 24 25 25 23 21 18 20 20 19 16 13 10 13 11 15 22 26 25 26 29 33 42 54 56
96 97 92 85 79 67 67 70 73 77 76 75 74 67 60 55 51 47 40 34 30 28 27 27 27 27 26 25 24 24 26 21 18 15 15 17 13 17 23 25 28 27 31 35 45 64 68
93 93 84 89 85 71 60 61 66 67 71 71 71 69 62 58 56 54 52 46 39 33 31 29 28 27 28 29 31 29 28 23 21 19 17 16 15 19 23 27 30 30 33 36 41 68 68
86 90 80 94 85 79 65 55 55 59 62 65 68 66 64 58 53 53 56 53 47 41 35 30 28 28 26 28 31 31 29 29 30 26 24 21 19 13 19 25 29 29 30 36 35 54 74
81 82 82 80 85 89 78 60 47 47 50 54 55 60 60 55 55 54 53 49 48 43 40 37 35 33 30 29 27 28 31 30 30 32 31 26 25 22 18 14 23 25 26 30 33 38 63
74 79 81 78 79 86 89 75 60 43 40 43 48 50 51 53 49 51 52 49 47 46 45 45 41 37 35 34 33 33 31 31 28 30 31 31 31 30 27 24 22 15 14 19 21 20 33
72 75 78 75 66 81 78 78 69 60 40 33 36 41 43 43 45 46 45 44 43 43 43 43 42 42 40 39 39 39 39 38 36 36 37 35 34 34 32 29 30 30 27 24 19 16 17
69 71 72 75 75 77 78 71 70 58 54 37 27 29 32 34 34 37 39 38 38 38 36 36 38 40 39 39 37 36 37 37 37 37 36 36 36 36 36 34 34 33 33 33 31 28 27
64 70 65 73 74 75 77 68 63 67 58 50 34 24 23 26 30 28 29 32 31 29 29 29 29 30 31 31 31 32 32 32 31 31 31 31 31 31 30 31 30 29 28 28 27 24 21
66 68 65 71 68 70 69 71 68 67 60 53 47 31 22 19 22 26 26 24 24 23 21 20 20 21 21 21 21 22 22 23 22 23 24 23 23 22 22 21 20 19 18 18 18 17 17
58 65 66 67 64 70 69 73 60 62 63 51 50 42 30 23 17 19 22 23 21 21 20 15 11 11 11 12 12 14 14 14 14 13 13 13 12 11 10 10 9 8 7 6 6 6 5

GFSGBSN_250_spd_102.txt.gz
Wind_Speed
92 99 104 79 80 77 78 74 76 80 82 76 77 81 85 87 91 91 89 88 86 86 86 85 82 84 84 82 80 80 80 84 86 85 89 88 88 89 93 99 107 108 106 104 101 100 96
96 108 83 76 71 75 81 74 71 70 73 73 73 73 74 76 78 79 81 81 78 75 74 72 75 79 80 80 79 81 80 81 84 82 82 87 88 87 85 93 98 104 107 105 104 103 98
101 100 80 71 67 76 79 76 72 62 57 62 65 62 65 68 70 71 74 73 73 72 69 68 65 70 74 78 76 79 75 78 80 76 78 82 87 86 81 84 90 96 97 103 104 102 102
107 90 74 69 75 81 80 81 75 56 48 52 57 57 54 58 63 65 65 63 64 67 61 60 59 64 68 71 72 72 71 73 73 73 73 75 80 85 78 82 83 85 87 95 99 103 102
111 83 72 70 84 81 78 78 67 57 51 43 47 47 45 48 50 54 51 52 51 51 49 49 53 58 61 65 68 65 66 66 67 66 65 68 68 73 79 80 76 76 80 86 90 94 97
111 85 76 79 80 78 76 72 66 59 48 38 36 38 38 37 38 41 40 36 32 30 32 38 53 55 55 63 64 57 57 60 59 57 54 56 63 68 68 68 69 71 74 76 78 79 86
106 86 76 82 82 79 82 71 64 54 44 36 30 28 29 28 28 24 22 16 24 31 43 47 52 52 55 55 53 50 50 51 49 46 49 56 56 58 58 61 63 64 66 68 69 70 76
109 93 81 84 85 85 83 75 71 61 48 37 29 23 19 17 15 14 15 19 27 35 41 48 48 49 46 40 43 42 39 40 43 46 48 45 50 50 50 52 53 56 56 59 62 62 64
116 99 84 84 86 96 84 81 71 60 51 42 37 30 20 13 9 3 7 15 25 30 31 33 35 34 33 33 30 33 34 38 40 38 37 40 41 41 42 44 45 46 47 51 53 52 54
123 109 92 80 93 101 87 84 74 63 54 48 49 39 28 19 13 9 10 14 17 18 21 22 25 26 22 23 28 31 32 30 30 32 33 33 35 37 38 36 37 39 41 41 42 41 45
123 117 98 90 91 106 104 87 88 79 68 61 57 48 37 26 22 19 17 16 14 16 15 19 21 25 29 29 27 27 27 28 30 30 28 26 29 26 26 27 27 30 36 37 37 36 34
120 120 106 99 89 102 114 105 94 87 77 67 63 59 56 48 36 28 24 21 19 18 19 21 24 24 23 25 26 26 24 24 21 18 17 19 16 17 20 22 22 24 26 27 28 26 28
118 123 114 98 97 98 112 108 104 96 86 78 73 69 60 55 50 46 41 36 31 29 25 24 25 25 24 23 22 21 19 17 16 13 13 10 10 13 14 14 17 20 21 21 22 24 28
112 117 112 111 98 94 100 108 103 105 101 90 76 72 64 58 52 48 45 41 35 30 30 26 25 24 23 22 21 19 16 13 11 12 9 8 10 10 11 15 17 19 20 20 17 20 20
110 115 114 118 103 96 91 98 104 101 105 101 90 79 67 60 56 49 47 46 36 32 30 27 25 23 22 20 18 16 15 12 9 9 10 9 9 9 11 12 13 12 10 8 9 13 17
101 107 109 117 111 96 92 89 96 98 100 102 97 85 74 62 53 46 47 40 34 32 30 27 23 21 19 15 15 13 10 9 10 10 10 11 11 11 8 7 7 4 5 9 14 17 18
95 100 105 106 112 103 90 86 84 89 91 93 95 93 81 70 60 49 41 34 29 25 22 21 19 18 13 10 13 14 17 17 16 17 13 13 12 11 8 6 5 7 10 16 21 25 30
90 96 100 101 104 106 96 81 77 76 82 83 89 92 87 78 66 56 46 37 30 26 22 23 23 21 20 20 22 23 23 20 19 19 16 16 14 14 13 13 12 13 21 27 27 32 38
90 91 94 102 104 103 96 91 75 72 70 75 77 84 84 82 77 66 55 44 35 29 25 25 26 26 26 26 26 26 25 25 22 20 18 16 14 15 19 21 19 22 32 38 39 38 44
80 90 90 93 96 103 105 97 82 70 67 65 70 73 76 77 78 72 65 56 48 39 33 29 28 29 28 29 31 30 28 25 22 21 19 19 17 18 19 21 23 33 38 54 52 50 52
71 80 90 91 89 90 97 94 91 76 66 63 58 62 66 68 70 70 68 64 57 52 46 39 34 33 30 26 32 32 29 27 23 20 17 16 18 18 20 24 27 37 41 56 59 60 56
67 71 78 83 86 91 96 95 89 81 71 64 61 55 54 58 62 64 65 65 63 57 54 47 43 38 32 29 34 35 32 29 27 24 19 16 16 15 19 24 26 35 44 54 62 62 60
61 67 72 76 82 84 90 89 93 93 85 72 61 56 50 48 51 53 57 63 60 58 55 52 49 44 40 36 31 29 31 28 26 22 18 17 15 12 14 19 27 29 41 49 60 49 58
56 61 65 74 80 78 82 88 93 96 78 74 71 53 50 46 43 46 48 50 53 53 51 50 48 46 43 41 38 34 31 29 27 24 23 23 22 19 14 12 11 10 28 31 39 36 40
56 60 59 65 68 71 78 78 88 93 88 88 76 69 53 44 41 39 40 41 42 44 46 44 44 44 42 40 39 39 38 36 34 32 28 26 25 23 20 20 21 14 12 12 27 25 23
53 58 57 59 63 73 71 78 79 87 90 89 84 71 63 49 40 37 37 37 36 36 36 37 37 35 36 36 36 34 33 32 32 33 33 33 33 31 30 29 25 19 18 15 13 40 24
54 50 59 57 64 64 72 69 78 82 88 89 81 74 63 53 59 32 31 32 34 35 33 32 31 29 28 27 26 26 26 26 26 26 25 27 28 27 27 26 24 25 25 26 24 18 13
46 52 55 65 58 64 71 61 71 79 80 86 83 78 73 69 52 39 30 29 28 28 30 30 30 28 25 21 19 20 18 16 16 17 17 17 18 17 18 17 16 17 15 17 17 18 18
47 49 57 57 57 62 68 63 71 76 77 82 84 81 75 64 55 38 32 41 28 21 23 23 23 25 26 25 21 17 13 9 7 7 7 7 7 7 7 8 8 7 6 7 6 6 5

GFSGBSN_250_spd_105.txt.gz
Wind_Speed
106 106 72 74 80 85 85 81 79 73 70 68 64 66 72 69 73 71 72 75 81 90 95 97 97 94 91 89 90 87 86 84 82 83 85 82 86 87 87 91 100 103 108 110 106 106 105
109 94 75 82 89 91 84 78 72 70 63 58 51 51 60 57 60 64 66 70 75 80 86 90 91 88 87 86 89 88 86 84 82 83 84 85 83 87 89 91 89 94 99 104 108 108 107
112 96 77 83 88 84 80 79 69 55 52 44 42 42 49 49 50 55 60 65 71 74 76 77 80 81 79 80 84 86 85 81 80 80 83 84 85 86 87 88 87 90 91 93 99 106 106
109 98 79 85 89 85 77 77 68 52 42 37 32 31 38 36 42 48 55 60 65 67 67 68 72 70 69 72 77 79 75 75 75 77 79 81 82 82 83 85 83 85 88 90 91 94 98
109 102 81 88 88 86 77 74 68 58 44 31 26 22 22 23 23 29 41 49 53 54 54 57 62 64 62 67 70 70 67 64 69 71 75 78 78 79 79 77 80 82 80 85 85 86 84
109 110 91 89 89 88 79 78 70 58 44 32 27 21 16 11 11 12 17 26 36 41 44 46 49 52 59 62 66 66 60 58 61 66 71 74 73 72 70 74 76 74 74 83 83 75 69
112 114 106 91 97 91 85 81 76 67 54 42 33 26 20 16 10 2 10 17 25 28 27 32 39 42 54 58 58 58 53 53 55 60 65 67 65 64 65 65 64 69 72 74 77 73 74
108 112 116 98 98 95 87 81 79 77 68 56 43 35 31 25 15 7 5 12 27 34 37 39 43 48 49 51 52 49 46 46 48 52 54 54 57 55 53 57 60 60 61 62 66 67 68
107 113 122 112 99 104 100 96 93 90 82 71 60 49 44 36 26 19 10 7 17 30 40 49 53 50 53 50 45 41 42 42 42 42 45 45 45 46 50 49 53 53 55 56 58 57 56
107 115 121 123 106 105 104 107 96 89 85 83 72 57 46 44 38 30 24 19 11 5 10 19 28 30 27 33 32 30 31 30 29 32 34 37 37 38 39 42 44 44 46 48 47 44 42
107 115 122 126 119 105 107 107 106 99 93 84 80 74 63 53 48 44 37 29 22 19 13 11 14 15 15 18 20 22 22 25 27 29 27 27 31 31 32 33 33 35 34 30 27 28 29
104 115 118 124 124 115 105 105 106 107 104 94 83 73 70 62 54 50 42 37 30 24 21 17 18 18 19 21 24 23 20 18 16 18 22 21 22 23 24 26 25 22 22 24 26 28 31
100 109 116 118 122 122 114 103 104 104 105 104 93 81 69 63 59 54 51 44 38 33 29 26 24 21 20 18 18 17 17 17 16 16 14 14 15 17 18 18 15 14 17 18 21 23 26
97 106 110 114 120 121 116 110 99 99 99 101 102 91 80 68 58 57 55 51 44 35 31 28 25 24 22 20 19 18 17 17 16 16 15 15 13 13 12 11 10 12 13 15 16 18 17
90 98 107 109 110 121 115 112 110 96 94 93 96 94 86 79 68 56 49 51 44 39 35 31 29 25 24 22 22 22 21 18 18 16 15 13 13 11 10 9 10 12 13 11 12 13 16
86 94 100 102 107 113 118 117 117 108 92 88 87 89 91 83 74 64 60 51 41 35 31 30 29 28 26 24 23 20 17 16 14 13 13 12 11 12 16 14 14 14 14 13 11 12 13
81 88 97 101 106 103 115 117 118 116 102 88 84 83 82 84 76 68 67 55 46 38 30 29 26 23 22 22 22 20 21 19 19 17 15 14 15 18 19 17 16 14 13 15 19 23 21
72 79 90 94 101 101 108 110 114 116 109 100 86 80 77 78 80 76 65 59 53 44 37 34 30 27 26 24 23 24 24 24 24 22 17 18 18 20 21 22 20 15 15 17 25 24 23
69 72 78 89 93 100 103 111 108 111 112 106 98 85 76 73 74 77 74 62 56 53 46 37 34 34 32 32 29 28 27 27 25 22 20 21 17 19 22 19 16 17 22 25 30 30 29
67 71 68 85 87 94 94 102 106 104 109 103 102 95 86 71 67 70 72 71 69 61 52 43 35 32 34 35 33 33 31 28 24 21 21 21 17 17 21 30 29 28 29 30 31 31 29
63 69 64 73 83 85 88 91 98 102 105 101 101 98 96 79 67 63 63 69 71 67 61 53 45 42 38 34 34 34 31 29 23 19 19 17 16 16 21 37 40 35 30 32 34 35 32
58 62 62 65 77 81 84 92 93 97 105 103 93 97 95 82 73 70 59 58 61 65 63 60 57 51 46 42 37 31 30 30 26 19 17 16 14 12 17 37 41 39 33 34 38 37 36
49 56 60 62 67 75 78 83 87 90 100 99 95 96 93 87 73 80 74 57 53 55 57 59 58 56 52 47 42 37 33 29 25 19 18 19 17 15 14 13 8 32 32 35 34 30 35
51 50 58 58 65 67 75 76 81 85 92 94 93 88 91 83 86 63 76 67 54 47 48 50 52 52 51 51 48 43 38 34 31 24 20 18 17 15 12 5 13 11 18 21 29 24 24
48 53 57 57 62 59 67 74 74 80 85 88 87 91 89 89 81 76 75 67 68 57 48 43 45 44 44 44 43 41 39 35 33 29 26 22 18 13 14 11 7 2 7 13 20 7 13
45 49 53 57 55 54 62 68 68 77 78 83 84 86 88 87 81 76 69 70 63 63 58 47 42 40 39 37 34 32 32 31 31 28 26 24 24 19 15 15 9 4 6 4 7 8 12
46 51 49 50 57 48 56 64 64 70 70 73 78 79 79 85 91 85 70 68 57 56 60 53 47 39 37 34 31 29 27 22 21 21 22 22 21 20 19 17 15 12 9 5 5 11 4
45 49 61 59 55 48 53 55 61 59 67 71 70 77 79 78 86 80 73 68 50 61 51 48 52 46 38 33 31 28 26 23 20 16 12 11 11 11 11 12 11 11 10 9 8 8 6
49 53 50 49 46 45 48 55 50 58 62 64 66 73 77 73 78 73 75 70 71 66 46 53 41 44 41 38 30 28 26 24 23 22 19 17 14 8 4 3 0 3 5 4 6 6 5

GFSGBSN_250_spd_108.txt.gz
Wind_Speed
95 90 70 74 84 99 101 84 77 60 48 42 42 45 44 53 62 67 72 75 81 83 83 83 85 86 93 97 98 95 91 88 87 82 80 79 76 81 85 85 87 88 94 100 108 112 109
98 98 73 78 86 99 94 73 68 55 42 34 30 31 32 47 52 59 66 71 75 79 82 81 85 87 91 97 99 97 96 94 91 89 88 82 79 77 84 84 84 85 88 91 98 105 111
98 99 85 78 87 99 84 69 64 57 47 39 31 25 27 38 48 54 61 67 74 77 78 80 82 84 87 95 99 103 102 96 93 92 90 85 81 80 80 85 85 85 87 89 90 91 98
103 107 94 84 91 103 89 78 72 70 56 39 26 21 20 24 25 37 46 50 62 68 74 78 80 82 83 91 101 101 100 97 91 88 84 83 82 80 81 82 84 87 85 86 85 85 88
104 108 99 92 92 104 105 85 83 79 72 57 43 28 18 15 13 20 28 37 48 53 61 66 72 75 80 80 90 96 95 90 85 83 82 81 80 81 80 80 83 87 85 86 89 85 79
104 107 107 104 92 101 110 97 84 84 83 73 55 40 26 14 8 11 19 27 38 43 46 53 62 67 73 76 81 88 87 84 81 75 73 75 76 77 78 79 81 84 86 83 83 78 73
103 108 113 118 99 100 108 113 94 87 83 78 68 51 34 21 10 1 10 18 27 34 37 46 51 57 58 65 69 73 73 67 66 67 64 67 69 69 75 77 78 78 77 79 78 74 68
106 109 116 118 109 100 105 113 110 97 87 82 76 64 45 31 21 14 7 14 22 32 37 38 40 44 45 48 52 56 55 54 57 60 59 60 62 65 67 70 69 67 68 69 75 70 61
104 111 117 121 122 109 104 110 114 108 97 89 81 74 59 42 31 30 19 5 14 26 34 37 36 36 38 43 44 42 44 47 50 51 53 56 57 58 60 60 60 58 61 64 59 52 51
98 108 113 122 122 121 114 107 111 114 107 97 86 80 73 57 44 38 31 24 11 4 6 17 29 20 26 42 44 39 35 39 41 41 43 43 44 47 50 50 50 46 45 44 41 40 41
94 102 112 113 123 124 127 111 107 110 111 109 96 85 78 72 59 50 42 33 24 17 10 5 14 17 18 26 29 27 23 27 28 26 29 34 36 38 37 36 32 31 31 31 31 34 35
91 100 110 112 117 127 126 123 116 104 108 107 108 90 81 74 67 59 54 47 38 29 22 20 20 17 16 14 14 15 17 20 23 24 24 26 26 23 21 21 23 22 22 24 27 29 33
86 96 102 103 113 121 127 119 122 107 99 102 105 101 89 76 69 58 58 54 49 42 33 27 21 18 17 20 19 19 19 18 18 18 14 13 15 13 13 16 17 18 21 21 22 24 25
81 88 97 101 110 117 122 123 122 112 97 96 100 99 98 83 70 63 58 56 53 45 38 33 29 25 23 21 21 21 21 18 18 16 15 13 12 13 16 15 16 14 13 15 16 17 18
79 78 89 98 103 108 116 122 120 115 105 92 95 94 95 93 72 64 65 60 49 42 41 38 35 30 27 25 24 22 22 21 20 18 17 16 15 14 14 13 12 13 12 12 12 13 15
72 76 81 94 98 102 109 117 120 118 105 98 92 93 88 85 83 78 76 61 55 48 40 34 30 27 25 24 24 24 23 21 20 18 16 14 15 15 16 15 15 17 15 15 14 15 15
69 70 77 84 91 94 103 108 114 113 116 111 97 93 93 85 83 86 75 65 60 51 44 40 36 32 28 24 22 22 21 20 20 20 21 21 18 17 18 20 23 21 20 18 16 16 13
62 64 73 78 83 88 98 101 106 106 109 114 101 97 90 88 78 76 82 78 69 60 49 43 41 37 34 32 28 23 25 27 25 23 22 21 19 21 22 23 21 19 15 12 14 17 12
58 62 67 75 78 86 93 95 96 96 106 108 106 106 90 89 89 78 74 76 79 73 66 53 47 46 43 38 35 34 34 32 29 27 25 22 20 21 21 19 19 19 16 16 14 14 14
53 58 65 68 73 79 86 90 91 94 97 103 103 104 104 91 89 87 82 71 70 70 72 67 61 53 49 45 41 38 36 33 31 27 25 21 18 20 21 22 23 22 16 18 15 12 15
50 52 58 63 69 75 78 84 89 88 92 100 102 103 105 100 93 92 84 78 72 66 65 65 69 68 62 54 48 43 38 34 32 27 25 19 17 17 19 18 19 18 16 18 18 15 16
47 51 53 56 64 70 70 76 78 84 85 91 98 99 103 101 100 91 85 81 78 71 65 62 62 63 64 63 57 50 44 37 34 29 28 25 14 8 12 16 16 17 16 14 18 13 16
45 50 53 56 63 66 62 67 70 75 76 84 90 94 98 99 101 95 87 88 77 80 70 64 59 56 55 56 55 55 51 45 38 30 25 24 20 12 5 11 16 4 8 12 13 14 12
48 50 51 55 58 57 57 63 62 66 71 77 81 90 92 93 99 94 93 86 86 80 72 71 68 55 53 51 50 50 49 48 45 40 30 22 18 17 13 10 10 8 8 6 8 7 5
47 47 49 52 57 52 55 61 61 56 64 67 76 81 87 86 89 90 86 91 88 80 85 69 72 64 53 49 47 44 43 42 40 38 37 34 26 19 16 10 11 14 10 12 14 5 7
45 42 46 51 51 52 51 56 57 56 58 60 67 74 80 81 81 85 87 84 84 85 77 75 77 68 60 58 45 40 39 36 35 33 33 32 29 27 25 25 17 16 13 9 7 5 4
42 45 42 45 48 49 43 50 56 48 56 52 60 63 71 77 78 76 81 78 76 75 79 79 74 70 64 61 55 57 44 36 33 32 30 28 28 25 22 21 20 17 15 14 9 6 4
44 39 38 37 40 47 43 45 47 49 54 51 54 55 63 71 76 73 74 70 72 71 71 72 72 72 65 64 62 47 55 56 44 35 31 28 25 23 22 23 21 18 14 11 10 8 6
41 35 37 37 37 40 48 45 46 42 47 56 47 53 56 58 64 70 71 68 62 65 63 64 68 72 73 71 68 63 48 47 50 51 41 33 31 28 26 23 19 19 19 19 17 16 14

GFSGBSN_250_spd_111.txt.gz
Wind_Speed
95 107 97 78 77 86 96 82 70 62 41 30 25 19 21 24 34 49 57 60 66 70 72 70 74 71 70 72 76 85 88 91 89 88 86 82 79 77 76 77 79 79 82 86 93 105 106
91 107 103 99 85 89 100 88 75 64 52 41 32 24 14 18 29 40 49 57 59 64 67 67 71 70 67 68 73 79 87 89 91 93 93 88 85 82 80 77 75 76 80 83 85 88 88
97 111 120 111 95 92 101 99 85 75 65 51 41 28 18 12 18 29 40 49 56 59 64 68 69 71 71 72 74 80 83 80 84 92 94 91 88 82 77 73 71 73 75 78 83 86 86
98 108 117 118 102 93 100 107 94 80 70 59 49 37 24 13 8 15 24 34 46 56 59 59 64 71 77 76 82 82 83 82 79 89 92 92 87 83 80 78 77 75 76 80 82 84 86
97 106 117 126 105 97 97 105 106 91 75 67 56 45 35 19 9 6 15 24 33 47 52 55 62 71 77 83 87 83 83 82 80 78 88 89 90 87 83 82 81 82 80 82 86 86 83
97 104 116 125 119 104 100 102 109 101 82 71 61 52 43 30 17 5 7 16 25 33 45 54 60 67 72 79 78 77 79 78 78 77 82 91 91 90 86 85 82 81 81 82 85 84 83
95 103 111 122 125 113 106 102 106 110 95 77 68 60 49 37 24 17 5 8 23 28 37 47 57 59 66 66 67 74 73 71 70 73 76 82 87 90 88 84 81 78 78 82 83 81 80
90 101 107 119 126 122 114 103 102 110 106 86 76 67 59 45 33 23 15 3 10 21 28 36 41 51 53 57 63 67 64 64 65 66 66 70 78 77 76 79 78 76 79 80 81 73 68
87 97 110 113 121 124 115 107 100 103 111 93 86 71 64 56 46 35 27 21 11 7 21 26 27 30 39 46 52 58 58 57 56 54 51 54 60 63 67 70 72 73 75 75 72 62 54
86 91 104 112 115 120 120 118 104 101 106 107 93 82 69 60 58 48 36 27 21 16 11 1 19 13 26 35 42 44 47 48 49 49 48 48 50 54 57 59 61 60 62 56 54 45 46
84 89 100 108 112 115 125 119 105 101 101 106 103 92 82 66 61 56 48 37 28 20 15 13 6 9 5 16 30 34 34 36 40 41 42 44 43 43 46 50 52 49 41 36 36 39 42
79 85 95 103 108 111 117 119 122 106 103 100 103 99 88 77 63 58 53 47 40 35 28 21 17 13 6 5 8 11 17 28 30 32 30 31 37 42 44 39 33 31 30 29 30 29 31
74 82 89 97 102 109 111 118 121 120 106 100 94 98 95 85 74 65 58 56 47 42 36 31 22 16 15 15 16 15 18 22 25 31 33 32 30 25 23 23 23 22 21 21 21 19 22
70 77 83 92 96 102 107 110 114 122 119 108 99 92 95 91 82 72 69 61 52 45 39 36 33 28 23 20 19 18 17 16 17 21 23 19 17 17 16 16 14 14 14 16 15 16 17
64 71 78 86 89 96 102 104 109 114 119 120 107 93 90 90 89 83 77 72 56 48 42 38 37 32 29 26 24 20 18 16 18 19 20 18 15 14 13 14 14 15 14 13 13 13 13
59 65 72 81 84 92 94 100 101 108 114 120 115 110 103 88 86 88 91 72 61 55 47 40 35 31 31 28 25 22 22 20 18 17 18 16 15 15 15 16 16 15 15 14 11 11 9
57 59 66 77 80 88 87 90 96 101 106 113 115 118 116 97 85 85 83 82 79 67 58 54 48 38 31 29 25 23 21 19 17 16 14 14 13 15 15 14 15 15 14 14 12 8 3
54 60 62 71 75 81 82 84 88 95 103 106 106 112 114 113 101 83 81 79 80 81 81 71 61 55 52 45 36 30 25 21 18 16 14 14 13 16 16 16 15 12 11 9 9 9 7
50 54 59 62 69 74 77 77 79 89 95 101 102 106 107 113 113 101 93 77 80 77 77 79 79 70 58 49 47 48 42 36 30 25 21 22 21 20 18 15 15 11 9 7 10 9 8
48 54 55 56 66 67 68 72 71 80 85 92 97 99 102 103 107 106 106 91 80 83 77 72 74 75 76 72 62 51 48 47 40 38 30 23 20 18 15 13 10 8 6 4 4 6 3
43 47 52 50 57 60 60 68 72 70 80 79 89 93 96 99 103 102 104 106 89 86 80 74 71 67 66 67 67 68 62 51 47 44 38 33 25 15 12 17 9 4 6 5 1 0 2
39 45 46 44 51 52 56 57 67 61 69 72 83 86 89 90 96 100 100 105 105 95 82 76 74 69 66 62 61 61 60 61 58 50 43 37 32 32 22 18 11 9 12 14 11 7 8
39 42 41 45 48 45 53 50 58 58 60 63 71 76 83 83 87 91 94 97 100 98 87 82 72 67 69 66 59 57 56 54 54 53 51 48 41 34 29 25 22 15 18 20 16 14 7
38 43 46 46 45 37 45 45 51 53 49 61 61 70 76 78 79 83 85 89 92 94 91 86 81 79 71 65 64 60 52 49 48 47 45 44 44 43 35 28 25 17 17 19 20 12 12
34 37 42 45 40 39 39 37 48 45 39 53 56 60 68 70 73 77 77 81 84 86 87 90 83 82 77 72 62 59 56 60 54 43 39 38 37 36 35 34 29 22 16 13 15 11 10
44 37 37 39 39 34 33 40 42 48 35 50 53 49 58 62 68 72 72 74 76 79 78 76 84 76 76 76 76 72 64 59 59 55 46 36 32 31 30 30 29 27 25 20 9 9 6
49 45 40 38 39 34 33 32 36 39 34 46 48 47 51 54 59 63 66 67 68 71 69 67 71 71 71 71 75 74 71 65 54 55 52 46 44 33 29 29 27 25 24 24 21 16 11
50 47 47 40 39 37 31 34 33 36 29 44 39 48 52 49 52 56 59 62 65 64 62 58 61 62 67 65 66 67 65 63 66 58 60 55 48 41 40 36 32 30 30 28 26 25 21
52 49 48 44 40 40 41 39 39 40 40 44 45 43 45 48 50 53 55 59 60 61 58 56 59 61 62 60 63 64 61 57 61 62 63 61 56 50 46 44 42 35 30 29 30 29 29

GFSGBSN_250_spd_114.txt.gz
Wind_Speed
91 94 108 105 90 82 86 86 81 75 67 55 40 34 23 17 22 32 42 54 62 65 78 93 93 89 82 84 80 85 93 92 89 89 87 85 82 79 77 74 75 74 77 83 92 98 96
90 97 108 114 99 88 87 90 87 79 72 62 49 38 26 16 17 26 41 51 55 57 61 71 85 86 85 76 73 76 80 88 91 91 89 88 87 85 82 79 76 75 77 77 78 82 95
89 99 106 116 107 93 88 92 93 82 74 65 56 44 28 15 9 20 31 41 49 52 53 59 71 80 81 74 73 72 73 75 78 86 92 94 90 87 85 82 81 80 79 78 77 77 77
87 100 103 112 120 101 92 94 100 89 77 67 64 50 33 17 6 8 19 28 36 46 49 53 62 70 81 77 73 74 71 68 67 74 79 85 87 85 82 84 85 86 84 82 81 76 72
89 97 105 111 122 114 100 94 103 98 82 71 67 52 38 26 13 3 10 22 25 37 49 51 55 63 74 76 76 73 67 63 60 62 67 71 75 78 78 79 81 84 83 83 79 77 74
88 96 105 106 115 119 115 98 99 104 89 75 74 63 46 34 29 14 5 16 24 33 42 50 53 60 67 75 76 72 65 60 59 58 58 64 67 68 71 76 82 84 86 86 83 79 78
85 94 104 104 111 119 128 118 97 104 101 86 78 69 52 46 37 34 23 6 14 27 34 39 45 50 57 60 64 63 58 54 53 54 56 57 59 63 68 69 74 82 83 87 87 84 84
82 91 100 102 106 116 124 131 108 106 105 93 80 76 66 53 46 39 35 30 12 10 24 31 34 45 46 51 53 52 54 54 55 56 57 58 61 63 64 66 68 70 78 84 86 85 85
76 88 95 102 103 112 123 123 131 109 108 106 90 82 72 61 53 44 38 35 28 13 10 9 18 25 34 42 45 49 52 54 55 57 60 62 64 65 68 68 69 70 72 78 80 79 78
73 85 92 96 102 108 118 122 125 125 114 104 104 89 78 66 59 52 48 34 28 23 16 11 7 14 21 29 35 40 43 46 49 52 54 57 59 60 61 61 62 62 65 64 63 65 67
71 81 88 92 98 105 110 118 121 127 124 112 101 101 86 72 63 61 53 45 34 24 24 23 15 11 11 19 22 27 32 37 41 42 42 44 46 46 46 48 50 52 55 58 60 56 51
69 77 85 87 92 97 105 114 116 120 125 127 103 99 94 78 70 62 58 54 45 37 26 23 19 13 10 16 16 18 22 26 28 30 32 34 36 40 43 44 48 47 42 40 40 42 43
65 70 79 81 85 96 95 105 107 115 120 124 126 101 94 86 74 69 62 58 57 48 38 31 21 18 19 19 19 14 20 23 24 28 30 33 38 39 38 33 29 31 32 33 32 29 29
60 68 72 75 81 91 96 99 101 111 117 121 119 127 99 88 85 77 73 66 60 53 48 43 36 30 23 21 20 14 17 22 21 22 24 26 22 17 18 20 20 21 21 20 19 19 18
56 62 66 71 73 82 87 89 94 104 111 114 117 120 121 99 85 87 86 81 65 59 53 49 46 40 34 31 26 20 12 10 9 12 12 13 11 12 13 14 15 16 16 15 13 13 11
50 54 59 67 66 75 80 84 84 94 101 109 110 113 116 114 100 81 91 88 78 69 65 58 53 48 42 36 30 24 20 16 15 13 11 11 12 13 12 12 12 11 11 10 8 6 4
47 51 51 60 62 68 73 76 76 85 91 99 102 106 108 110 113 102 89 79 82 84 79 73 66 61 55 50 41 34 25 18 15 13 12 12 9 8 6 5 5 7 9 10 13 13 15
43 47 46 55 57 62 68 69 69 76 85 89 94 98 102 105 108 108 109 93 80 77 79 78 77 73 69 64 58 50 44 38 30 21 18 16 15 16 17 18 16 15 15 13 10 9 11
42 42 47 54 55 57 59 64 64 68 75 83 83 90 95 97 103 104 108 107 101 87 76 73 75 74 73 74 72 63 62 57 50 39 34 31 32 26 24 22 19 16 13 9 6 8 12
42 41 45 51 51 53 52 57 59 60 67 72 76 81 86 90 93 98 100 101 105 96 93 82 76 71 71 70 67 66 67 66 59 52 47 45 39 31 28 29 24 21 14 9 10 10 12
41 38 42 46 49 48 45 54 53 51 59 62 69 74 78 80 84 89 92 94 97 99 94 92 94 80 74 69 68 66 63 61 61 61 55 48 45 40 34 34 28 29 26 21 13 11 11
40 39 32 37 44 46 38 46 45 48 50 54 61 66 72 72 76 81 84 87 90 89 91 93 94 89 89 76 75 67 59 57 56 54 53 53 52 41 34 32 30 27 29 27 26 20 15
39 40 37 32 35 41 33 43 35 43 42 53 50 57 67 64 69 72 76 79 82 83 81 83 85 84 85 84 79 69 69 65 58 50 47 46 44 41 43 38 30 25 16 18 14 11 14
47 47 42 39 36 33 38 39 30 40 38 40 49 50 55 58 62 64 68 72 75 77 78 79 79 79 77 75 79 81 69 65 62 57 49 46 44 40 41 38 34 30 30 22 13 8 4
47 50 49 43 35 34 32 33 33 31 38 31 44 41 48 51 56 59 61 63 68 70 72 73 75 74 74 70 69 74 72 67 62 60 60 49 50 46 44 40 36 33 31 28 24 23 20
44 43 44 41 39 36 33 30 31 34 34 28 37 40 42 46 50 51 54 57 59 60 63 65 66 68 69 68 68 68 71 71 61 60 55 52 52 51 41 39 40 38 35 33 29 24 21
43 41 39 39 38 36 37 35 33 30 30 30 35 39 42 45 45 47 48 49 49 51 54 56 57 60 62 63 64 64 65 67 67 63 59 60 52 54 47 49 42 40 35 32 31 27 27
52 49 45 40 41 41 42 42 37 37 33 34 37 38 39 42 42 41 41 43 44 44 46 49 53 56 57 58 58 59 61 60 61 62 63 63 63 58 55 51 50 45 42 38 34 33 31
62 57 51 47 45 44 42 45 43 45 42 41 40 38 40 42 40 40 40 40 41 43 44 45 49 51 55 57 58 58 57 58 59 58 59 61 63 63 60 58 55 50 44 44 42 36 33

GFSGBSN_250_spd_117.txt.gz
Wind_Speed
80 85 91 105 109 111 91 85 88 78 71 61 47 37 26 18 13 17 27 41 54 60 61 69 87 92 91 85 81 82 92 97 98 92 91 88 84 81 77 73 74 73 75 79 82 87 92
80 89 91 104 113 114 100 87 89 82 71 62 50 37 28 19 9 10 19 32 47 53 56 61 76 90 93 87 85 81 82 84 89 94 92 90 88 85 81 78 76 74 72 73 76 76 80
80 87 98 100 113 116 111 87 90 87 76 68 54 41 29 22 13 5 9 23 35 46 53 57 67 85 92 90 85 84 82 74 76 87 92 90 88 87 83 81 79 77 74 73 72 73 73
80 86 98 101 113 121 120 101 89 94 83 75 61 48 35 27 19 8 1 11 21 39 49 54 60 67 88 91 87 82 80 72 69 77 84 89 88 89 89 85 83 82 79 77 76 76 76
78 85 96 105 112 120 124 115 96 98 87 77 70 58 44 35 29 20 6 9 16 31 43 48 51 57 73 83 87 86 81 73 69 67 71 79 85 85 82 82 81 81 80 79 81 79 78
77 83 94 103 106 117 122 130 114 107 108 94 81 67 55 42 34 27 18 4 13 19 33 41 43 48 58 75 84 86 80 69 65 65 63 62 68 77 81 81 82 81 84 83 80 80 81
74 80 92 99 105 111 123 129 126 126 111 102 84 72 63 50 38 30 24 9 9 16 26 33 38 40 46 57 71 78 75 69 63 63 59 56 57 59 66 71 75 80 85 87 86 82 84
74 76 88 94 103 109 118 123 132 129 122 109 90 73 67 60 48 39 32 23 12 9 18 24 27 28 29 39 51 60 63 62 55 54 53 53 52 53 55 57 64 70 73 76 78 81 83
70 75 82 90 96 99 113 119 123 132 132 110 106 81 68 64 57 46 38 31 26 16 7 11 14 18 21 29 38 47 51 53 52 48 50 50 49 50 51 52 53 58 62 66 68 71 74
66 73 77 87 92 97 104 113 118 125 131 129 108 96 75 66 60 54 45 37 27 24 17 12 9 12 17 22 33 39 46 49 50 52 51 48 49 51 51 53 54 55 58 61 63 67 70
61 69 72 81 86 89 96 103 114 118 124 130 119 101 88 74 67 59 52 44 35 28 30 22 17 14 13 14 20 29 36 44 49 49 51 51 52 53 54 55 56 57 58 61 62 62 63
60 66 67 77 82 83 90 97 105 113 116 121 123 107 100 87 75 65 58 53 45 35 29 24 20 15 19 19 19 22 28 35 42 46 50 51 51 50 51 54 55 56 57 57 54 51 49
55 63 65 70 77 79 85 87 97 105 110 115 119 122 110 96 89 80 70 61 59 51 41 33 29 20 20 17 20 24 25 28 30 33 35 37 39 43 46 48 50 48 45 43 44 42 41
53 59 63 67 70 76 75 82 87 98 102 107 110 115 118 115 96 90 88 84 66 53 50 45 39 31 20 15 11 16 23 26 28 29 32 37 39 36 32 29 32 34 32 31 28 29 28
53 57 59 63 66 70 67 74 80 87 94 96 103 107 112 115 110 101 94 90 79 72 64 53 46 42 36 30 25 19 13 7 5 5 5 6 10 16 17 17 18 19 16 17 15 12 12
52 52 54 58 62 63 60 69 74 80 83 88 94 100 104 107 109 111 118 98 87 84 86 79 63 50 44 40 34 28 25 20 15 10 7 5 3 2 1 2 3 4 5 4 6 7 7
49 50 49 53 59 57 59 61 68 69 74 80 84 89 96 99 103 106 109 103 105 92 83 80 81 77 60 56 50 44 37 30 25 21 18 16 13 12 11 11 11 15 16 17 14 13 12
47 45 44 46 52 54 53 56 61 63 69 70 76 79 84 90 94 100 101 103 101 102 96 93 82 75 76 74 71 63 55 50 47 43 39 34 30 27 27 26 25 23 21 15 12 10 7
46 45 42 42 45 50 51 54 49 58 57 60 67 71 76 81 85 88 90 95 98 97 101 92 91 85 79 74 69 68 66 61 56 50 45 45 40 36 33 27 23 20 18 19 13 10 10
46 46 43 39 43 42 45 47 40 54 48 54 58 63 69 72 75 78 82 85 89 91 94 94 97 92 85 79 79 65 61 60 60 59 54 48 45 39 37 36 32 29 30 25 17 12 10
47 48 46 43 43 40 39 42 37 49 44 46 48 55 61 64 67 71 73 77 80 82 85 86 88 89 92 81 81 78 71 66 60 52 49 49 48 46 41 34 30 28 27 21 19 16 12
51 49 44 44 45 43 38 37 40 44 44 39 44 49 51 58 62 65 65 68 70 73 76 78 79 82 81 82 84 82 75 71 67 64 53 49 45 42 38 36 34 29 25 17 16 12 12
48 43 42 42 43 43 36 34 33 38 40 33 44 42 46 52 55 59 60 60 61 63 67 69 72 73 75 75 75 76 77 75 71 69 61 58 52 47 44 40 35 30 28 26 22 18 12
47 45 36 32 31 33 30 29 31 32 34 37 38 36 40 44 47 51 53 54 56 56 56 59 62 65 68 69 69 70 69 68 68 68 65 64 60 55 51 46 46 37 33 27 23 21 19
45 44 47 38 33 30 29 30 30 30 31 33 36 34 42 39 42 42 44 48 50 52 54 54 56 56 57 60 62 64 65 64 62 64 64 63 61 61 55 52 50 49 45 42 34 31 30
52 51 50 46 46 38 33 32 32 32 30 31 32 35 36 42 43 38 38 39 41 46 49 50 52 53 53 54 57 58 59 60 62 61 61 59 63 61 59 55 53 48 46 43 38 40 35
64 61 57 53 53 49 40 39 37 36 36 34 33 34 36 39 43 45 42 38 39 39 41 45 47 48 50 50 49 50 52 53 56 58 59 60 63 63 60 60 58 55 53 49 47 42 37
66 65 65 61 61 58 53 50 43 39 39 40 41 38 37 38 42 46 47 44 42 41 41 41 43 45 48 48 45 45 46 46 49 53 55 58 60 61 66 62 58 60 53 53 54 46 45
71 67 63 62 63 63 61 60 57 52 51 49 47 44 45 41 40 42 46 46 44 43 42 40 41 43 43 43 43 43 45 46 45 46 49 49 54 53 57 59 59 57 56 53 54 55 52